<?xml version="1.0" encoding="UTF-8" standalone="no" ?>
<gpx xmlns="http://www.topografix.com/GPX/1/1" xmlns:xsi="http://www.w3.org/2001/XMLSchema-instance" xsi:schemaLocation="http://www.topografix.com/GPX/1/1 http://www.topografix.com/GPX/1/1/gpx.xsd" version="1.1" creator="VisuGPX - https://www.visugpx.com">
  <metadata>
    <name>361_Circuit 90 km Les Herbiers_Les Herbiers édité par cth85.com</name>
    <desc><![CDATA[Circuit de 90 km passant par:
Les Herbiers
Beaurepaire
La Gaubretière
Saint Martin des Tilleuls
La Verrie
rochard
Le Puy Saint Bonnet
La Tessouale
Moulin
Mauleon
Saint Amand sur Sèvre
La Pommeraie sur Sèvre
La Flocelière
la chagnaie
Le Boupère
Saint Paul en Pareds
Les Herbiers.]]></desc>
  </metadata>
  <trk>
    <name><![CDATA[90_361_1]]></name>
    <extensions>
      <line xmlns="http://www.topografix.com/GPX/gpx_style/0/2">
        <color>0000FF</color>
        <opacity>1</opacity>
        <width>4</width>
      </line>
    </extensions>
    <trkseg>
      <trkpt lat="46.86381" lon="-1.00562">
        <ele>119.2</ele>
        <time>2026-03-28T09:03:07.000Z</time>
        <extensions>
          <visugpx:TrkExtension xmlns:visugpx="https://www.visugpx.com/editgpx/">
            <visugpx:node>6</visugpx:node>
            </visugpx:TrkExtension>
        </extensions>
      </trkpt>
      <trkpt lat="46.86392" lon="-1.00554">
        <ele>119</ele>
        <time>2026-03-28T09:03:08.547Z</time>
      </trkpt>
      <trkpt lat="46.86405" lon="-1.00559">
        <ele>119.1</ele>
      </trkpt>
      <trkpt lat="46.86429" lon="-1.00563">
        <ele>118.8</ele>
      </trkpt>
      <trkpt lat="46.86461" lon="-1.0056">
        <ele>117.6</ele>
        <time>2026-03-28T09:03:16.894Z</time>
      </trkpt>
      <trkpt lat="46.8649" lon="-1.00564">
        <ele>117.4</ele>
        <time>2026-03-28T09:03:21.182Z</time>
      </trkpt>
      <trkpt lat="46.86496" lon="-1.00567">
        <ele>117.2</ele>
        <time>2026-03-28T09:03:21.848Z</time>
      </trkpt>
      <trkpt lat="46.8652" lon="-1.00578">
        <ele>114.9</ele>
        <time>2026-03-28T09:03:24.050Z</time>
      </trkpt>
      <trkpt lat="46.86535" lon="-1.00588">
        <ele>114.4</ele>
        <time>2026-03-28T09:03:25.902Z</time>
      </trkpt>
      <trkpt lat="46.86547" lon="-1.00596">
        <ele>114.7</ele>
        <time>2026-03-28T09:03:28.330Z</time>
        <extensions>
          <visugpx:TrkExtension xmlns:visugpx="https://www.visugpx.com/editgpx/">
            <visugpx:node>1</visugpx:node>
            </visugpx:TrkExtension>
        </extensions>
      </trkpt>
      <trkpt lat="46.86555" lon="-1.00602">
        <ele>114.7</ele>
        <time>2026-03-28T09:03:29.641Z</time>
      </trkpt>
      <trkpt lat="46.86557" lon="-1.00598">
        <ele>114.4</ele>
        <time>2026-03-28T09:03:29.938Z</time>
        <extensions>
          <visugpx:TrkExtension xmlns:visugpx="https://www.visugpx.com/editgpx/">
            <visugpx:node>2</visugpx:node>
            </visugpx:TrkExtension>
        </extensions>
      </trkpt>
      <trkpt lat="46.86557" lon="-1.00598">
        <ele>114.4</ele>
        <time>2026-03-28T09:03:29.938Z</time>
        <extensions>
          <visugpx:TrkExtension xmlns:visugpx="https://www.visugpx.com/editgpx/">
            <visugpx:node>3</visugpx:node>
            </visugpx:TrkExtension>
        </extensions>
      </trkpt>
      <trkpt lat="46.86573" lon="-1.00609">
        <ele>113.7</ele>
        <time>2026-03-28T09:03:31.790Z</time>
      </trkpt>
      <trkpt lat="46.86595" lon="-1.00621">
        <ele>112.8</ele>
        <time>2026-03-28T09:03:34.273Z</time>
      </trkpt>
      <trkpt lat="46.86721" lon="-1.00665">
        <ele>110</ele>
        <time>2026-03-28T09:03:49.877Z</time>
      </trkpt>
      <trkpt lat="46.86726" lon="-1.00663">
        <ele>110</ele>
        <time>2026-03-28T09:03:50.633Z</time>
      </trkpt>
      <trkpt lat="46.86731" lon="-1.00783">
        <ele>108.6</ele>
        <time>2026-03-28T09:04:00.920Z</time>
      </trkpt>
      <trkpt lat="46.86693" lon="-1.00824">
        <ele>109.1</ele>
        <time>2026-03-28T09:04:08.565Z</time>
      </trkpt>
      <trkpt lat="46.86679" lon="-1.00848">
        <ele>110.1</ele>
        <time>2026-03-28T09:04:13.808Z</time>
      </trkpt>
      <trkpt lat="46.86599" lon="-1.00939">
        <ele>110.5</ele>
        <time>2026-03-28T09:04:29.165Z</time>
      </trkpt>
      <trkpt lat="46.86588" lon="-1.00948">
        <ele>110.7</ele>
        <time>2026-03-28T09:04:31.320Z</time>
      </trkpt>
      <trkpt lat="46.86579" lon="-1.00961">
        <ele>110.7</ele>
        <time>2026-03-28T09:04:33.166Z</time>
      </trkpt>
      <trkpt lat="46.86584" lon="-1.01011">
        <ele>110</ele>
        <time>2026-03-28T09:04:37.374Z</time>
      </trkpt>
      <trkpt lat="46.86595" lon="-1.01029">
        <ele>109.5</ele>
        <time>2026-03-28T09:04:39.229Z</time>
      </trkpt>
      <trkpt lat="46.86602" lon="-1.01045">
        <ele>108.7</ele>
        <time>2026-03-28T09:04:40.402Z</time>
      </trkpt>
      <trkpt lat="46.86611" lon="-1.01056">
        <ele>108</ele>
        <time>2026-03-28T09:04:41.474Z</time>
      </trkpt>
      <trkpt lat="46.8662" lon="-1.01062">
        <ele>108</ele>
        <time>2026-03-28T09:04:42.917Z</time>
      </trkpt>
      <trkpt lat="46.86646" lon="-1.01098">
        <ele>107.9</ele>
        <time>2026-03-28T09:04:48.004Z</time>
      </trkpt>
      <trkpt lat="46.8666" lon="-1.01113">
        <ele>107.2</ele>
        <time>2026-03-28T09:04:49.813Z</time>
      </trkpt>
      <trkpt lat="46.86665" lon="-1.01121">
        <ele>107.1</ele>
        <time>2026-03-28T09:04:50.769Z</time>
      </trkpt>
      <trkpt lat="46.86664" lon="-1.01149">
        <ele>107.4</ele>
        <time>2026-03-28T09:04:54.039Z</time>
      </trkpt>
      <trkpt lat="46.86694" lon="-1.01251">
        <ele>109</ele>
        <time>2026-03-28T09:05:07.764Z</time>
      </trkpt>
      <trkpt lat="46.86711" lon="-1.01363">
        <ele>111.1</ele>
        <time>2026-03-28T09:05:22.867Z</time>
      </trkpt>
      <trkpt lat="46.86716" lon="-1.01377">
        <ele>111.6</ele>
        <time>2026-03-28T09:05:25.490Z</time>
      </trkpt>
      <trkpt lat="46.86719" lon="-1.01378">
        <ele>111.6</ele>
        <time>2026-03-28T09:05:25.939Z</time>
      </trkpt>
      <trkpt lat="46.86721" lon="-1.01381">
        <ele>111.7</ele>
        <time>2026-03-28T09:05:26.544Z</time>
      </trkpt>
      <trkpt lat="46.86721" lon="-1.01386">
        <ele>111.9</ele>
        <time>2026-03-28T09:05:27.516Z</time>
      </trkpt>
      <trkpt lat="46.86725" lon="-1.01388">
        <ele>111.9</ele>
        <time>2026-03-28T09:05:28.132Z</time>
      </trkpt>
      <trkpt lat="46.8673" lon="-1.01396">
        <ele>111.8</ele>
        <time>2026-03-28T09:05:29.089Z</time>
      </trkpt>
      <trkpt lat="46.86755" lon="-1.01415">
        <ele>111.8</ele>
        <time>2026-03-28T09:05:33.199Z</time>
      </trkpt>
      <trkpt lat="46.86782" lon="-1.01444">
        <ele>111</ele>
        <time>2026-03-28T09:05:37.159Z</time>
      </trkpt>
      <trkpt lat="46.86817" lon="-1.01469">
        <ele>110.2</ele>
        <time>2026-03-28T09:05:41.893Z</time>
      </trkpt>
      <trkpt lat="46.86856" lon="-1.01488">
        <ele>108.5</ele>
        <time>2026-03-28T09:05:46.145Z</time>
      </trkpt>
      <trkpt lat="46.86891" lon="-1.01497">
        <ele>106.1</ele>
        <time>2026-03-28T09:05:49.256Z</time>
      </trkpt>
      <trkpt lat="46.8691" lon="-1.01511">
        <ele>105</ele>
        <time>2026-03-28T09:05:51.304Z</time>
      </trkpt>
      <trkpt lat="46.86935" lon="-1.01538">
        <ele>102.6</ele>
        <time>2026-03-28T09:05:54.024Z</time>
      </trkpt>
      <trkpt lat="46.86986" lon="-1.01578">
        <ele>100.5</ele>
        <time>2026-03-28T09:06:00.237Z</time>
      </trkpt>
      <trkpt lat="46.87012" lon="-1.01579">
        <ele>101.3</ele>
        <time>2026-03-28T09:06:05.477Z</time>
      </trkpt>
      <trkpt lat="46.87006" lon="-1.01601">
        <ele>101.5</ele>
        <time>2026-03-28T09:06:08.147Z</time>
      </trkpt>
      <trkpt lat="46.87005" lon="-1.01618">
        <ele>101.7</ele>
        <time>2026-03-28T09:06:10.168Z</time>
      </trkpt>
      <trkpt lat="46.87021" lon="-1.01626">
        <ele>103.4</ele>
        <time>2026-03-28T09:06:18.550Z</time>
      </trkpt>
      <trkpt lat="46.87025" lon="-1.01637">
        <ele>103.8</ele>
        <time>2026-03-28T09:06:20.636Z</time>
      </trkpt>
      <trkpt lat="46.87047" lon="-1.01648">
        <ele>105.7</ele>
        <time>2026-03-28T09:06:29.677Z</time>
      </trkpt>
      <trkpt lat="46.87051" lon="-1.01644">
        <ele>105.9</ele>
        <time>2026-03-28T09:06:30.783Z</time>
      </trkpt>
      <trkpt lat="46.87051" lon="-1.01645">
        <ele>105.9</ele>
        <time>2026-03-28T09:06:30.883Z</time>
      </trkpt>
      <trkpt lat="46.87053" lon="-1.01643">
        <ele>106</ele>
        <time>2026-03-28T09:06:31.436Z</time>
      </trkpt>
      <trkpt lat="46.87065" lon="-1.01646">
        <ele>106.8</ele>
        <time>2026-03-28T09:06:35.244Z</time>
      </trkpt>
      <trkpt lat="46.87085" lon="-1.01655">
        <ele>108.1</ele>
        <time>2026-03-28T09:06:41.483Z</time>
      </trkpt>
      <trkpt lat="46.87076" lon="-1.01701">
        <ele>108.7</ele>
        <time>2026-03-28T09:06:47.225Z</time>
      </trkpt>
      <trkpt lat="46.87229" lon="-1.01816">
        <ele>111.9</ele>
        <time>2026-03-28T09:07:17.506Z</time>
      </trkpt>
      <trkpt lat="46.87242" lon="-1.01874">
        <ele>111.3</ele>
        <time>2026-03-28T09:07:22.848Z</time>
      </trkpt>
      <trkpt lat="46.87266" lon="-1.01969">
        <ele>109.5</ele>
        <time>2026-03-28T09:07:30.896Z</time>
      </trkpt>
      <trkpt lat="46.87301" lon="-1.02053">
        <ele>108.4</ele>
        <time>2026-03-28T09:07:39.362Z</time>
      </trkpt>
      <trkpt lat="46.87339" lon="-1.02154">
        <ele>107.4</ele>
        <time>2026-03-28T09:07:49.602Z</time>
      </trkpt>
      <trkpt lat="46.87361" lon="-1.02205">
        <ele>107</ele>
        <time>2026-03-28T09:07:55.102Z</time>
      </trkpt>
      <trkpt lat="46.8738" lon="-1.02231">
        <ele>106.3</ele>
        <time>2026-03-28T09:07:58.104Z</time>
      </trkpt>
      <trkpt lat="46.87419" lon="-1.02278">
        <ele>105.1</ele>
        <time>2026-03-28T09:08:04.085Z</time>
      </trkpt>
      <trkpt lat="46.87453" lon="-1.02313">
        <ele>105.3</ele>
        <time>2026-03-28T09:08:10.439Z</time>
      </trkpt>
      <trkpt lat="46.87468" lon="-1.02335">
        <ele>105.8</ele>
        <time>2026-03-28T09:08:14.384Z</time>
      </trkpt>
      <trkpt lat="46.87497" lon="-1.02425">
        <ele>106.8</ele>
        <time>2026-03-28T09:08:25.873Z</time>
      </trkpt>
      <trkpt lat="46.87499" lon="-1.02442">
        <ele>107</ele>
        <time>2026-03-28T09:08:27.913Z</time>
      </trkpt>
      <trkpt lat="46.87503" lon="-1.02439">
        <ele>107</ele>
        <time>2026-03-28T09:08:28.569Z</time>
      </trkpt>
      <trkpt lat="46.87515" lon="-1.02438">
        <ele>107</ele>
        <time>2026-03-28T09:08:30.322Z</time>
      </trkpt>
      <trkpt lat="46.87523" lon="-1.02443">
        <ele>107</ele>
        <time>2026-03-28T09:08:31.591Z</time>
      </trkpt>
      <trkpt lat="46.87527" lon="-1.02448">
        <ele>106.9</ele>
        <time>2026-03-28T09:08:32.239Z</time>
      </trkpt>
      <trkpt lat="46.87531" lon="-1.02458">
        <ele>106.5</ele>
        <time>2026-03-28T09:08:33.008Z</time>
      </trkpt>
      <trkpt lat="46.87532" lon="-1.02469">
        <ele>106.1</ele>
        <time>2026-03-28T09:08:33.733Z</time>
      </trkpt>
      <trkpt lat="46.87531" lon="-1.02478">
        <ele>106</ele>
        <time>2026-03-28T09:08:34.520Z</time>
      </trkpt>
      <trkpt lat="46.87525" lon="-1.02491">
        <ele>105.9</ele>
        <time>2026-03-28T09:08:35.955Z</time>
      </trkpt>
      <trkpt lat="46.87533" lon="-1.02494">
        <ele>106</ele>
        <time>2026-03-28T09:08:37.313Z</time>
      </trkpt>
      <trkpt lat="46.87539" lon="-1.02486">
        <ele>106</ele>
        <time>2026-03-28T09:08:38.497Z</time>
      </trkpt>
      <trkpt lat="46.87562" lon="-1.02578">
        <ele>105.2</ele>
        <time>2026-03-28T09:08:47.255Z</time>
      </trkpt>
      <trkpt lat="46.8758" lon="-1.02621">
        <ele>105.6</ele>
        <time>2026-03-28T09:08:52.894Z</time>
      </trkpt>
      <trkpt lat="46.87596" lon="-1.02648">
        <ele>106.4</ele>
        <time>2026-03-28T09:08:57.930Z</time>
      </trkpt>
      <trkpt lat="46.87602" lon="-1.02653">
        <ele>106.7</ele>
        <time>2026-03-28T09:08:59.548Z</time>
      </trkpt>
      <trkpt lat="46.87618" lon="-1.02658">
        <ele>108.1</ele>
        <time>2026-03-28T09:09:06.250Z</time>
      </trkpt>
      <trkpt lat="46.87609" lon="-1.0267">
        <ele>106.8</ele>
        <time>2026-03-28T09:09:07.315Z</time>
      </trkpt>
      <trkpt lat="46.8761" lon="-1.02674">
        <ele>106.9</ele>
        <time>2026-03-28T09:09:07.927Z</time>
      </trkpt>
      <trkpt lat="46.8761" lon="-1.02681">
        <ele>106.9</ele>
        <time>2026-03-28T09:09:08.625Z</time>
      </trkpt>
      <trkpt lat="46.87608" lon="-1.02685">
        <ele>106.7</ele>
        <time>2026-03-28T09:09:08.936Z</time>
      </trkpt>
      <trkpt lat="46.87636" lon="-1.02742">
        <ele>109.2</ele>
        <time>2026-03-28T09:09:21.480Z</time>
      </trkpt>
      <trkpt lat="46.87679" lon="-1.02815">
        <ele>112.2</ele>
        <time>2026-03-28T09:09:37.327Z</time>
      </trkpt>
      <trkpt lat="46.87703" lon="-1.02845">
        <ele>113.4</ele>
        <time>2026-03-28T09:09:44.254Z</time>
      </trkpt>
      <trkpt lat="46.87749" lon="-1.02889">
        <ele>116</ele>
        <time>2026-03-28T09:09:57.771Z</time>
      </trkpt>
      <trkpt lat="46.87761" lon="-1.02905">
        <ele>116.5</ele>
        <time>2026-03-28T09:10:01.044Z</time>
      </trkpt>
      <trkpt lat="46.87899" lon="-1.03145">
        <ele>112.9</ele>
        <time>2026-03-28T09:10:27.930Z</time>
      </trkpt>
      <trkpt lat="46.88008" lon="-1.03302">
        <ele>109.3</ele>
        <time>2026-03-28T09:10:46.067Z</time>
      </trkpt>
      <trkpt lat="46.88013" lon="-1.03295">
        <ele>109.5</ele>
        <time>2026-03-28T09:10:47.432Z</time>
      </trkpt>
      <trkpt lat="46.8802" lon="-1.0329">
        <ele>109.5</ele>
        <time>2026-03-28T09:10:48.568Z</time>
      </trkpt>
      <trkpt lat="46.88027" lon="-1.03288">
        <ele>109.4</ele>
        <time>2026-03-28T09:10:49.484Z</time>
      </trkpt>
      <trkpt lat="46.88034" lon="-1.03288">
        <ele>109.3</ele>
        <time>2026-03-28T09:10:50.381Z</time>
      </trkpt>
      <trkpt lat="46.88041" lon="-1.03292">
        <ele>109.3</ele>
        <time>2026-03-28T09:10:51.477Z</time>
      </trkpt>
      <trkpt lat="46.88047" lon="-1.03298">
        <ele>109.2</ele>
        <time>2026-03-28T09:10:52.413Z</time>
      </trkpt>
      <trkpt lat="46.88052" lon="-1.03307">
        <ele>109.1</ele>
        <time>2026-03-28T09:10:53.444Z</time>
      </trkpt>
      <trkpt lat="46.88056" lon="-1.03319">
        <ele>109</ele>
        <time>2026-03-28T09:10:54.648Z</time>
      </trkpt>
      <trkpt lat="46.88056" lon="-1.03332">
        <ele>109</ele>
        <time>2026-03-28T09:10:55.944Z</time>
      </trkpt>
      <trkpt lat="46.88053" lon="-1.03345">
        <ele>109.1</ele>
        <time>2026-03-28T09:10:57.463Z</time>
      </trkpt>
      <trkpt lat="46.88048" lon="-1.03356">
        <ele>109.1</ele>
        <time>2026-03-28T09:10:58.781Z</time>
      </trkpt>
      <trkpt lat="46.88041" lon="-1.03364">
        <ele>109</ele>
        <time>2026-03-28T09:10:59.949Z</time>
      </trkpt>
      <trkpt lat="46.88037" lon="-1.03365">
        <ele>109</ele>
        <time>2026-03-28T09:11:00.541Z</time>
      </trkpt>
      <trkpt lat="46.88037" lon="-1.03366">
        <ele>109</ele>
        <time>2026-03-28T09:11:00.641Z</time>
      </trkpt>
      <trkpt lat="46.88032" lon="-1.03368">
        <ele>109</ele>
        <time>2026-03-28T09:11:01.397Z</time>
      </trkpt>
      <trkpt lat="46.88023" lon="-1.03367">
        <ele>109</ele>
        <time>2026-03-28T09:11:02.714Z</time>
      </trkpt>
      <trkpt lat="46.88014" lon="-1.03361">
        <ele>109</ele>
        <time>2026-03-28T09:11:04.157Z</time>
      </trkpt>
      <trkpt lat="46.88007" lon="-1.03352">
        <ele>109.2</ele>
        <time>2026-03-28T09:11:05.849Z</time>
      </trkpt>
      <trkpt lat="46.88003" lon="-1.03341">
        <ele>109.2</ele>
        <time>2026-03-28T09:11:07.091Z</time>
      </trkpt>
      <trkpt lat="46.88001" lon="-1.03327">
        <ele>109.1</ele>
        <time>2026-03-28T09:11:08.389Z</time>
      </trkpt>
      <trkpt lat="46.88003" lon="-1.03314">
        <ele>109.1</ele>
        <time>2026-03-28T09:11:09.718Z</time>
      </trkpt>
      <trkpt lat="46.88008" lon="-1.03302">
        <ele>109.3</ele>
        <time>2026-03-28T09:11:11.450Z</time>
      </trkpt>
      <trkpt lat="46.88013" lon="-1.03295">
        <ele>109.5</ele>
        <time>2026-03-28T09:11:12.815Z</time>
      </trkpt>
      <trkpt lat="46.8802" lon="-1.0329">
        <ele>109.5</ele>
        <time>2026-03-28T09:11:13.951Z</time>
      </trkpt>
      <trkpt lat="46.88027" lon="-1.03288">
        <ele>109.4</ele>
        <time>2026-03-28T09:11:14.867Z</time>
      </trkpt>
      <trkpt lat="46.88034" lon="-1.03288">
        <ele>109.3</ele>
        <time>2026-03-28T09:11:15.764Z</time>
      </trkpt>
      <trkpt lat="46.88041" lon="-1.03292">
        <ele>109.3</ele>
        <time>2026-03-28T09:11:16.860Z</time>
      </trkpt>
      <trkpt lat="46.88047" lon="-1.03298">
        <ele>109.2</ele>
        <time>2026-03-28T09:11:17.796Z</time>
      </trkpt>
      <trkpt lat="46.88052" lon="-1.03307">
        <ele>109.1</ele>
        <time>2026-03-28T09:11:18.827Z</time>
      </trkpt>
      <trkpt lat="46.88056" lon="-1.03319">
        <ele>109</ele>
        <time>2026-03-28T09:11:20.031Z</time>
      </trkpt>
      <trkpt lat="46.88056" lon="-1.03332">
        <ele>109</ele>
        <time>2026-03-28T09:11:21.327Z</time>
      </trkpt>
      <trkpt lat="46.88053" lon="-1.03345">
        <ele>109.1</ele>
        <time>2026-03-28T09:11:22.846Z</time>
      </trkpt>
      <trkpt lat="46.88048" lon="-1.03356">
        <ele>109.1</ele>
        <time>2026-03-28T09:11:24.164Z</time>
      </trkpt>
      <trkpt lat="46.88056" lon="-1.03366">
        <ele>109</ele>
        <time>2026-03-28T09:11:25.570Z</time>
      </trkpt>
      <trkpt lat="46.88087" lon="-1.03391">
        <ele>109</ele>
        <time>2026-03-28T09:11:30.734Z</time>
      </trkpt>
      <trkpt lat="46.88185" lon="-1.03463">
        <ele>108.2</ele>
        <time>2026-03-28T09:11:45.684Z</time>
      </trkpt>
      <trkpt lat="46.88244" lon="-1.03509">
        <ele>107.2</ele>
        <time>2026-03-28T09:11:54.201Z</time>
      </trkpt>
      <trkpt lat="46.887" lon="-1.03974">
        <ele>106.9</ele>
        <time>2026-03-28T09:13:14.871Z</time>
      </trkpt>
      <trkpt lat="46.88715" lon="-1.03984">
        <ele>107</ele>
        <time>2026-03-28T09:13:17.421Z</time>
      </trkpt>
      <trkpt lat="46.88719" lon="-1.03976">
        <ele>107.1</ele>
        <time>2026-03-28T09:13:18.566Z</time>
      </trkpt>
      <trkpt lat="46.88724" lon="-1.03971">
        <ele>106.9</ele>
        <time>2026-03-28T09:13:19.232Z</time>
      </trkpt>
      <trkpt lat="46.88737" lon="-1.03968">
        <ele>106.9</ele>
        <time>2026-03-28T09:13:21.152Z</time>
      </trkpt>
      <trkpt lat="46.88743" lon="-1.03978">
        <ele>107.1</ele>
        <time>2026-03-28T09:13:22.813Z</time>
      </trkpt>
      <trkpt lat="46.88746" lon="-1.03985">
        <ele>107.1</ele>
        <time>2026-03-28T09:13:23.637Z</time>
      </trkpt>
      <trkpt lat="46.88748" lon="-1.03996">
        <ele>107.1</ele>
        <time>2026-03-28T09:13:24.772Z</time>
      </trkpt>
      <trkpt lat="46.88746" lon="-1.04004">
        <ele>107.1</ele>
        <time>2026-03-28T09:13:25.621Z</time>
      </trkpt>
      <trkpt lat="46.88742" lon="-1.04013">
        <ele>107.2</ele>
        <time>2026-03-28T09:13:26.847Z</time>
      </trkpt>
      <trkpt lat="46.88737" lon="-1.04018">
        <ele>107.2</ele>
        <time>2026-03-28T09:13:27.730Z</time>
      </trkpt>
      <trkpt lat="46.88926" lon="-1.04603">
        <ele>104.5</ele>
        <time>2026-03-28T09:14:28.673Z</time>
      </trkpt>
      <trkpt lat="46.88942" lon="-1.04648">
        <ele>104.9</ele>
        <time>2026-03-28T09:14:34.341Z</time>
      </trkpt>
      <trkpt lat="46.88957" lon="-1.04684">
        <ele>104.4</ele>
        <time>2026-03-28T09:14:37.937Z</time>
      </trkpt>
      <trkpt lat="46.88985" lon="-1.04729">
        <ele>104</ele>
        <time>2026-03-28T09:14:43.490Z</time>
      </trkpt>
      <trkpt lat="46.89137" lon="-1.04945">
        <ele>104</ele>
        <time>2026-03-28T09:15:14.399Z</time>
      </trkpt>
      <trkpt lat="46.89164" lon="-1.0499">
        <ele>104.6</ele>
        <time>2026-03-28T09:15:21.309Z</time>
      </trkpt>
      <trkpt lat="46.8932" lon="-1.05334">
        <ele>103.5</ele>
        <time>2026-03-28T09:16:00.987Z</time>
      </trkpt>
      <trkpt lat="46.89332" lon="-1.05366">
        <ele>104</ele>
        <time>2026-03-28T09:16:05.447Z</time>
      </trkpt>
      <trkpt lat="46.89469" lon="-1.05764">
        <ele>101.4</ele>
        <time>2026-03-28T09:16:46.499Z</time>
      </trkpt>
      <trkpt lat="46.89678" lon="-1.06363">
        <ele>92.5</ele>
        <time>2026-03-28T09:17:42.900Z</time>
      </trkpt>
      <trkpt lat="46.89697" lon="-1.06412">
        <ele>90.1</ele>
        <time>2026-03-28T09:17:46.361Z</time>
      </trkpt>
      <trkpt lat="46.89723" lon="-1.06466">
        <ele>89.8</ele>
        <time>2026-03-28T09:17:52.551Z</time>
      </trkpt>
      <trkpt lat="46.89797" lon="-1.06585">
        <ele>92</ele>
        <time>2026-03-28T09:18:12.200Z</time>
      </trkpt>
      <trkpt lat="46.89797" lon="-1.06584">
        <ele>92</ele>
        <time>2026-03-28T09:18:12.299Z</time>
      </trkpt>
      <trkpt lat="46.89909" lon="-1.06758">
        <ele>95</ele>
        <time>2026-03-28T09:18:40.980Z</time>
      </trkpt>
      <trkpt lat="46.89953" lon="-1.06822">
        <ele>96.2</ele>
        <time>2026-03-28T09:18:51.987Z</time>
      </trkpt>
      <trkpt lat="46.90021" lon="-1.06909">
        <ele>98</ele>
        <time>2026-03-28T09:19:08.115Z</time>
      </trkpt>
      <trkpt lat="46.90118" lon="-1.07026">
        <ele>100.2</ele>
        <time>2026-03-28T09:19:29.983Z</time>
      </trkpt>
      <trkpt lat="46.9015" lon="-1.07074">
        <ele>101</ele>
        <time>2026-03-28T09:19:37.951Z</time>
      </trkpt>
      <trkpt lat="46.90168" lon="-1.07116">
        <ele>102</ele>
        <time>2026-03-28T09:19:44.680Z</time>
      </trkpt>
      <trkpt lat="46.90184" lon="-1.07168">
        <ele>102</ele>
        <time>2026-03-28T09:19:50.365Z</time>
      </trkpt>
      <trkpt lat="46.90204" lon="-1.07263">
        <ele>102.2</ele>
        <time>2026-03-28T09:20:00.557Z</time>
      </trkpt>
      <trkpt lat="46.90216" lon="-1.07255">
        <ele>102.1</ele>
        <time>2026-03-28T09:20:02.350Z</time>
      </trkpt>
      <trkpt lat="46.90226" lon="-1.07255">
        <ele>102.2</ele>
        <time>2026-03-28T09:20:03.959Z</time>
      </trkpt>
      <trkpt lat="46.90232" lon="-1.07257">
        <ele>102.2</ele>
        <time>2026-03-28T09:20:04.857Z</time>
      </trkpt>
      <trkpt lat="46.9024" lon="-1.07265">
        <ele>102.2</ele>
        <time>2026-03-28T09:20:06.270Z</time>
      </trkpt>
      <trkpt lat="46.90245" lon="-1.07273">
        <ele>102.1</ele>
        <time>2026-03-28T09:20:07.226Z</time>
      </trkpt>
      <trkpt lat="46.90249" lon="-1.07286">
        <ele>102</ele>
        <time>2026-03-28T09:20:08.519Z</time>
      </trkpt>
      <trkpt lat="46.90249" lon="-1.07304">
        <ele>102.1</ele>
        <time>2026-03-28T09:20:10.462Z</time>
      </trkpt>
      <trkpt lat="46.90281" lon="-1.0731">
        <ele>101.7</ele>
        <time>2026-03-28T09:20:14.664Z</time>
      </trkpt>
      <trkpt lat="46.90292" lon="-1.07323">
        <ele>101.2</ele>
        <time>2026-03-28T09:20:16.192Z</time>
      </trkpt>
      <trkpt lat="46.90307" lon="-1.07349">
        <ele>101</ele>
        <time>2026-03-28T09:20:19.325Z</time>
      </trkpt>
      <trkpt lat="46.90355" lon="-1.07455">
        <ele>99.2</ele>
        <time>2026-03-28T09:20:29.868Z</time>
      </trkpt>
      <trkpt lat="46.9039" lon="-1.07541">
        <ele>98</ele>
        <time>2026-03-28T09:20:38.391Z</time>
      </trkpt>
      <trkpt lat="46.90418" lon="-1.07592">
        <ele>97.7</ele>
        <time>2026-03-28T09:20:44.517Z</time>
      </trkpt>
      <trkpt lat="46.90457" lon="-1.07656">
        <ele>99</ele>
        <time>2026-03-28T09:20:55.239Z</time>
      </trkpt>
      <trkpt lat="46.90477" lon="-1.07708">
        <ele>98.6</ele>
        <time>2026-03-28T09:21:00.673Z</time>
      </trkpt>
      <trkpt lat="46.90487" lon="-1.07756">
        <ele>98.3</ele>
        <time>2026-03-28T09:21:05.286Z</time>
      </trkpt>
      <trkpt lat="46.90492" lon="-1.07803">
        <ele>97.7</ele>
        <time>2026-03-28T09:21:09.304Z</time>
      </trkpt>
      <trkpt lat="46.90489" lon="-1.07866">
        <ele>97.5</ele>
        <time>2026-03-28T09:21:15.331Z</time>
      </trkpt>
      <trkpt lat="46.90477" lon="-1.08018">
        <ele>96.2</ele>
        <time>2026-03-28T09:21:28.944Z</time>
      </trkpt>
      <trkpt lat="46.90479" lon="-1.08063">
        <ele>96.2</ele>
        <time>2026-03-28T09:21:33.439Z</time>
      </trkpt>
      <trkpt lat="46.90487" lon="-1.08105">
        <ele>96.5</ele>
        <time>2026-03-28T09:21:38.237Z</time>
      </trkpt>
      <trkpt lat="46.90551" lon="-1.08234">
        <ele>96.9</ele>
        <time>2026-03-28T09:21:54.698Z</time>
      </trkpt>
      <trkpt lat="46.90567" lon="-1.08257">
        <ele>96.7</ele>
        <time>2026-03-28T09:21:57.710Z</time>
      </trkpt>
      <trkpt lat="46.90589" lon="-1.08274">
        <ele>96.1</ele>
        <time>2026-03-28T09:22:00.646Z</time>
      </trkpt>
      <trkpt lat="46.90799" lon="-1.08385">
        <ele>93.3</ele>
        <time>2026-03-28T09:22:29.695Z</time>
      </trkpt>
      <trkpt lat="46.90834" lon="-1.08415">
        <ele>93</ele>
        <time>2026-03-28T09:22:35.219Z</time>
      </trkpt>
      <trkpt lat="46.90851" lon="-1.08438">
        <ele>93.1</ele>
        <time>2026-03-28T09:22:38.739Z</time>
      </trkpt>
      <trkpt lat="46.90854" lon="-1.08434">
        <ele>93.3</ele>
        <time>2026-03-28T09:22:39.763Z</time>
      </trkpt>
      <trkpt lat="46.90859" lon="-1.08435">
        <ele>93.3</ele>
        <time>2026-03-28T09:22:40.499Z</time>
      </trkpt>
      <trkpt lat="46.90861" lon="-1.0844">
        <ele>93.2</ele>
        <time>2026-03-28T09:22:40.962Z</time>
      </trkpt>
      <trkpt lat="46.90859" lon="-1.08449">
        <ele>93</ele>
        <time>2026-03-28T09:22:41.685Z</time>
      </trkpt>
      <trkpt lat="46.90871" lon="-1.08464">
        <ele>93.4</ele>
        <time>2026-03-28T09:22:44.675Z</time>
      </trkpt>
      <trkpt lat="46.90908" lon="-1.08533">
        <ele>93.7</ele>
        <time>2026-03-28T09:22:53.850Z</time>
      </trkpt>
      <trkpt lat="46.91013" lon="-1.08723">
        <ele>95</ele>
        <time>2026-03-28T09:23:20.127Z</time>
      </trkpt>
      <trkpt lat="46.91053" lon="-1.08801">
        <ele>95.9</ele>
        <time>2026-03-28T09:23:31.243Z</time>
      </trkpt>
      <trkpt lat="46.91073" lon="-1.08819">
        <ele>95.5</ele>
        <time>2026-03-28T09:23:34.181Z</time>
      </trkpt>
      <trkpt lat="46.91084" lon="-1.08804">
        <ele>96.1</ele>
        <time>2026-03-28T09:23:37.556Z</time>
      </trkpt>
      <trkpt lat="46.91094" lon="-1.08799">
        <ele>96.1</ele>
        <time>2026-03-28T09:23:39.097Z</time>
      </trkpt>
      <trkpt lat="46.91103" lon="-1.08801">
        <ele>96</ele>
        <time>2026-03-28T09:23:40.298Z</time>
      </trkpt>
      <trkpt lat="46.91116" lon="-1.0881">
        <ele>95.7</ele>
        <time>2026-03-28T09:23:42.041Z</time>
      </trkpt>
      <trkpt lat="46.91152" lon="-1.08844">
        <ele>96.3</ele>
        <time>2026-03-28T09:23:49.225Z</time>
      </trkpt>
      <trkpt lat="46.91171" lon="-1.08852">
        <ele>97.2</ele>
        <time>2026-03-28T09:23:53.980Z</time>
      </trkpt>
      <trkpt lat="46.9121" lon="-1.08842">
        <ele>98.2</ele>
        <time>2026-03-28T09:24:01.476Z</time>
      </trkpt>
      <trkpt lat="46.91226" lon="-1.08842">
        <ele>98.5</ele>
        <time>2026-03-28T09:24:04.297Z</time>
      </trkpt>
      <trkpt lat="46.91243" lon="-1.08857">
        <ele>99.7</ele>
        <time>2026-03-28T09:24:10.084Z</time>
      </trkpt>
      <trkpt lat="46.91283" lon="-1.08912">
        <ele>101.2</ele>
        <time>2026-03-28T09:24:20.718Z</time>
      </trkpt>
      <trkpt lat="46.91291" lon="-1.08912">
        <ele>101.5</ele>
        <time>2026-03-28T09:24:22.462Z</time>
      </trkpt>
      <trkpt lat="46.91295" lon="-1.08916">
        <ele>101.6</ele>
        <time>2026-03-28T09:24:23.334Z</time>
      </trkpt>
      <trkpt lat="46.91311" lon="-1.08898">
        <ele>102</ele>
        <time>2026-03-28T09:24:26.933Z</time>
      </trkpt>
      <trkpt lat="46.91408" lon="-1.08733">
        <ele>100.8</ele>
        <time>2026-03-28T09:24:47.064Z</time>
      </trkpt>
      <trkpt lat="46.91426" lon="-1.08715">
        <ele>101.2</ele>
        <time>2026-03-28T09:24:50.891Z</time>
      </trkpt>
      <trkpt lat="46.91461" lon="-1.08698">
        <ele>101.6</ele>
        <time>2026-03-28T09:24:56.877Z</time>
      </trkpt>
      <trkpt lat="46.91515" lon="-1.0869">
        <ele>102.9</ele>
        <time>2026-03-28T09:25:07.004Z</time>
      </trkpt>
      <trkpt lat="46.91669" lon="-1.08671">
        <ele>106.1</ele>
        <time>2026-03-28T09:25:34.832Z</time>
      </trkpt>
      <trkpt lat="46.91721" lon="-1.08675">
        <ele>108</ele>
        <time>2026-03-28T09:25:46.051Z</time>
      </trkpt>
      <trkpt lat="46.91781" lon="-1.08679">
        <ele>108.1</ele>
        <time>2026-03-28T09:25:54.954Z</time>
      </trkpt>
      <trkpt lat="46.92265" lon="-1.08755">
        <ele>109.1</ele>
        <time>2026-03-28T09:27:07.375Z</time>
      </trkpt>
      <trkpt lat="46.9236" lon="-1.08755">
        <ele>110</ele>
        <time>2026-03-28T09:27:22.583Z</time>
      </trkpt>
      <trkpt lat="46.92443" lon="-1.08748">
        <ele>111</ele>
        <time>2026-03-28T09:27:36.243Z</time>
      </trkpt>
      <trkpt lat="46.92537" lon="-1.08748">
        <ele>109.7</ele>
        <time>2026-03-28T09:27:48.336Z</time>
      </trkpt>
      <trkpt lat="46.92596" lon="-1.0874">
        <ele>108.7</ele>
        <time>2026-03-28T09:27:55.762Z</time>
      </trkpt>
      <trkpt lat="46.92624" lon="-1.08721">
        <ele>108.1</ele>
        <time>2026-03-28T09:27:59.546Z</time>
      </trkpt>
      <trkpt lat="46.92695" lon="-1.08639">
        <ele>108</ele>
        <time>2026-03-28T09:28:12.600Z</time>
      </trkpt>
      <trkpt lat="46.92724" lon="-1.08621">
        <ele>107.7</ele>
        <time>2026-03-28T09:28:16.809Z</time>
      </trkpt>
      <trkpt lat="46.92759" lon="-1.08612">
        <ele>109.3</ele>
        <time>2026-03-28T09:28:25.303Z</time>
      </trkpt>
      <trkpt lat="46.9279" lon="-1.0861">
        <ele>110.4</ele>
        <time>2026-03-28T09:28:31.907Z</time>
      </trkpt>
      <trkpt lat="46.92806" lon="-1.08606">
        <ele>111</ele>
        <time>2026-03-28T09:28:35.424Z</time>
      </trkpt>
      <trkpt lat="46.92834" lon="-1.08592">
        <ele>111.7</ele>
        <time>2026-03-28T09:28:40.927Z</time>
      </trkpt>
      <trkpt lat="46.9285" lon="-1.08572">
        <ele>112</ele>
        <time>2026-03-28T09:28:44.464Z</time>
      </trkpt>
      <trkpt lat="46.92861" lon="-1.08551">
        <ele>112.2</ele>
        <time>2026-03-28T09:28:47.404Z</time>
      </trkpt>
      <trkpt lat="46.92887" lon="-1.08469">
        <ele>112.9</ele>
        <time>2026-03-28T09:28:57.477Z</time>
      </trkpt>
      <trkpt lat="46.92917" lon="-1.08385">
        <ele>113</ele>
        <time>2026-03-28T09:29:07.061Z</time>
      </trkpt>
      <trkpt lat="46.92958" lon="-1.08323">
        <ele>114.2</ele>
        <time>2026-03-28T09:29:17.634Z</time>
      </trkpt>
      <trkpt lat="46.9311" lon="-1.08152">
        <ele>120</ele>
        <time>2026-03-28T09:29:56.032Z</time>
      </trkpt>
      <trkpt lat="46.93155" lon="-1.08108">
        <ele>121</ele>
        <time>2026-03-28T09:30:05.545Z</time>
      </trkpt>
      <trkpt lat="46.93192" lon="-1.08088">
        <ele>121.8</ele>
        <time>2026-03-28T09:30:12.614Z</time>
      </trkpt>
      <trkpt lat="46.93409" lon="-1.0803">
        <ele>122.2</ele>
        <time>2026-03-28T09:30:45.356Z</time>
      </trkpt>
      <trkpt lat="46.93448" lon="-1.08002">
        <ele>122.9</ele>
        <time>2026-03-28T09:30:52.803Z</time>
      </trkpt>
      <trkpt lat="46.93532" lon="-1.07897">
        <ele>123.4</ele>
        <time>2026-03-28T09:31:09.633Z</time>
      </trkpt>
      <trkpt lat="46.93632" lon="-1.07761">
        <ele>124.5</ele>
        <time>2026-03-28T09:31:31.171Z</time>
      </trkpt>
      <trkpt lat="46.9367" lon="-1.07716">
        <ele>125.1</ele>
        <time>2026-03-28T09:31:39.221Z</time>
      </trkpt>
      <trkpt lat="46.937" lon="-1.0769">
        <ele>126.4</ele>
        <time>2026-03-28T09:31:46.803Z</time>
      </trkpt>
      <trkpt lat="46.93701" lon="-1.07679">
        <ele>126.3</ele>
        <time>2026-03-28T09:31:47.784Z</time>
      </trkpt>
      <trkpt lat="46.93704" lon="-1.0767">
        <ele>126.4</ele>
        <time>2026-03-28T09:31:48.938Z</time>
      </trkpt>
      <trkpt lat="46.9371" lon="-1.07664">
        <ele>126.6</ele>
        <time>2026-03-28T09:31:50.349Z</time>
      </trkpt>
      <trkpt lat="46.93716" lon="-1.0766">
        <ele>126.8</ele>
        <time>2026-03-28T09:31:51.670Z</time>
      </trkpt>
      <trkpt lat="46.93723" lon="-1.07659">
        <ele>127</ele>
        <time>2026-03-28T09:31:53.050Z</time>
      </trkpt>
      <trkpt lat="46.9373" lon="-1.07662">
        <ele>127</ele>
        <time>2026-03-28T09:31:54.114Z</time>
      </trkpt>
      <trkpt lat="46.93769" lon="-1.07586">
        <ele>127.9</ele>
        <time>2026-03-28T09:32:04.984Z</time>
      </trkpt>
      <trkpt lat="46.93959" lon="-1.06933">
        <ele>135.7</ele>
        <time>2026-03-28T09:33:28.056Z</time>
      </trkpt>
      <trkpt lat="46.93959" lon="-1.06934">
        <ele>135.7</ele>
        <time>2026-03-28T09:33:28.155Z</time>
      </trkpt>
      <trkpt lat="46.93966" lon="-1.06909">
        <ele>136.3</ele>
        <time>2026-03-28T09:33:31.949Z</time>
      </trkpt>
      <trkpt lat="46.93981" lon="-1.06871">
        <ele>137.6</ele>
        <time>2026-03-28T09:33:38.968Z</time>
      </trkpt>
      <trkpt lat="46.93987" lon="-1.06862">
        <ele>138</ele>
        <time>2026-03-28T09:33:41.061Z</time>
      </trkpt>
      <trkpt lat="46.9404" lon="-1.06817">
        <ele>139.8</ele>
        <time>2026-03-28T09:33:53.211Z</time>
      </trkpt>
      <trkpt lat="46.94213" lon="-1.06647">
        <ele>144.7</ele>
        <time>2026-03-28T09:34:31.896Z</time>
      </trkpt>
      <trkpt lat="46.9422" lon="-1.06639">
        <ele>145</ele>
        <time>2026-03-28T09:34:33.749Z</time>
      </trkpt>
      <trkpt lat="46.9425" lon="-1.06575">
        <ele>146</ele>
        <time>2026-03-28T09:34:43.106Z</time>
      </trkpt>
      <trkpt lat="46.94262" lon="-1.06533">
        <ele>146.5</ele>
        <time>2026-03-28T09:34:48.433Z</time>
      </trkpt>
      <trkpt lat="46.94271" lon="-1.06491">
        <ele>147.2</ele>
        <time>2026-03-28T09:34:54.000Z</time>
      </trkpt>
      <trkpt lat="46.94276" lon="-1.06494">
        <ele>147.1</ele>
        <time>2026-03-28T09:34:54.668Z</time>
      </trkpt>
      <trkpt lat="46.94301" lon="-1.06493">
        <ele>145.5</ele>
        <time>2026-03-28T09:34:56.894Z</time>
      </trkpt>
      <trkpt lat="46.94314" lon="-1.06494">
        <ele>144.6</ele>
        <time>2026-03-28T09:34:58.033Z</time>
      </trkpt>
      <trkpt lat="46.94327" lon="-1.06499">
        <ele>143.5</ele>
        <time>2026-03-28T09:34:59.210Z</time>
      </trkpt>
      <trkpt lat="46.94336" lon="-1.06509">
        <ele>142.9</ele>
        <time>2026-03-28T09:35:00.287Z</time>
      </trkpt>
      <trkpt lat="46.94364" lon="-1.06556">
        <ele>140.8</ele>
        <time>2026-03-28T09:35:04.454Z</time>
      </trkpt>
      <trkpt lat="46.94371" lon="-1.06554">
        <ele>140.3</ele>
        <time>2026-03-28T09:35:05.078Z</time>
      </trkpt>
      <trkpt lat="46.9437" lon="-1.06554">
        <ele>140.4</ele>
        <time>2026-03-28T09:35:05.571Z</time>
      </trkpt>
      <trkpt lat="46.94364" lon="-1.06556">
        <ele>140.8</ele>
        <time>2026-03-28T09:35:07.477Z</time>
      </trkpt>
      <trkpt lat="46.94477" lon="-1.06759">
        <ele>132.8</ele>
        <time>2026-03-28T09:35:25.536Z</time>
      </trkpt>
      <trkpt lat="46.94479" lon="-1.06757">
        <ele>132.8</ele>
        <time>2026-03-28T09:35:25.889Z</time>
      </trkpt>
      <trkpt lat="46.94487" lon="-1.06757">
        <ele>132.5</ele>
        <time>2026-03-28T09:35:26.741Z</time>
      </trkpt>
      <trkpt lat="46.9449" lon="-1.06761">
        <ele>132.4</ele>
        <time>2026-03-28T09:35:27.217Z</time>
      </trkpt>
      <trkpt lat="46.94549" lon="-1.06703">
        <ele>127.5</ele>
        <time>2026-03-28T09:35:33.437Z</time>
      </trkpt>
      <trkpt lat="46.94555" lon="-1.06697">
        <ele>127</ele>
        <time>2026-03-28T09:35:34.073Z</time>
      </trkpt>
      <trkpt lat="46.9455" lon="-1.06685">
        <ele>127.1</ele>
        <time>2026-03-28T09:35:35.624Z</time>
      </trkpt>
      <trkpt lat="46.94555" lon="-1.06697">
        <ele>127</ele>
        <time>2026-03-28T09:35:36.896Z</time>
      </trkpt>
      <trkpt lat="46.94595" lon="-1.06656">
        <ele>125</ele>
        <time>2026-03-28T09:35:41.961Z</time>
      </trkpt>
      <trkpt lat="46.9461" lon="-1.06639">
        <ele>125</ele>
        <time>2026-03-28T09:35:44.727Z</time>
      </trkpt>
      <trkpt lat="46.94621" lon="-1.0662">
        <ele>124.5</ele>
        <time>2026-03-28T09:35:46.652Z</time>
      </trkpt>
      <trkpt lat="46.94629" lon="-1.06601">
        <ele>124.5</ele>
        <time>2026-03-28T09:35:48.875Z</time>
      </trkpt>
      <trkpt lat="46.94638" lon="-1.06564">
        <ele>124.1</ele>
        <time>2026-03-28T09:35:52.292Z</time>
      </trkpt>
      <trkpt lat="46.94639" lon="-1.06546">
        <ele>123.6</ele>
        <time>2026-03-28T09:35:53.575Z</time>
      </trkpt>
      <trkpt lat="46.94634" lon="-1.06507">
        <ele>123.2</ele>
        <time>2026-03-28T09:35:57.032Z</time>
      </trkpt>
      <trkpt lat="46.94627" lon="-1.06473">
        <ele>123.4</ele>
        <time>2026-03-28T09:36:00.866Z</time>
      </trkpt>
      <trkpt lat="46.94679" lon="-1.06452">
        <ele>122.6</ele>
        <time>2026-03-28T09:36:07.745Z</time>
      </trkpt>
      <trkpt lat="46.94725" lon="-1.06437">
        <ele>124.4</ele>
        <time>2026-03-28T09:36:18.108Z</time>
      </trkpt>
      <trkpt lat="46.94769" lon="-1.06404">
        <ele>132.3</ele>
        <time>2026-03-28T09:36:49.013Z</time>
      </trkpt>
      <trkpt lat="46.94917" lon="-1.06236">
        <ele>139</ele>
        <time>2026-03-28T09:37:29.017Z</time>
      </trkpt>
      <trkpt lat="46.94967" lon="-1.06191">
        <ele>137.3</ele>
        <time>2026-03-28T09:37:35.680Z</time>
      </trkpt>
      <trkpt lat="46.95038" lon="-1.06145">
        <ele>136.6</ele>
        <time>2026-03-28T09:37:46.101Z</time>
      </trkpt>
      <trkpt lat="46.95099" lon="-1.06112">
        <ele>135.4</ele>
        <time>2026-03-28T09:37:54.142Z</time>
      </trkpt>
      <trkpt lat="46.95151" lon="-1.06092">
        <ele>134.2</ele>
        <time>2026-03-28T09:38:00.580Z</time>
      </trkpt>
      <trkpt lat="46.95202" lon="-1.06055">
        <ele>132.7</ele>
        <time>2026-03-28T09:38:07.177Z</time>
      </trkpt>
      <trkpt lat="46.95282" lon="-1.05947">
        <ele>128.8</ele>
        <time>2026-03-28T09:38:18.895Z</time>
      </trkpt>
      <trkpt lat="46.95359" lon="-1.05848">
        <ele>124.7</ele>
        <time>2026-03-28T09:38:29.596Z</time>
      </trkpt>
      <trkpt lat="46.95386" lon="-1.05797">
        <ele>124.1</ele>
        <time>2026-03-28T09:38:35.274Z</time>
      </trkpt>
      <trkpt lat="46.95418" lon="-1.05755">
        <ele>121.2</ele>
        <time>2026-03-28T09:38:39.034Z</time>
      </trkpt>
      <trkpt lat="46.95438" lon="-1.05745">
        <ele>121.7</ele>
        <time>2026-03-28T09:38:42.965Z</time>
      </trkpt>
      <trkpt lat="46.95462" lon="-1.0574">
        <ele>124.1</ele>
        <time>2026-03-28T09:38:54.764Z</time>
      </trkpt>
      <trkpt lat="46.95485" lon="-1.05728">
        <ele>126.3</ele>
        <time>2026-03-28T09:39:05.384Z</time>
      </trkpt>
      <trkpt lat="46.95485" lon="-1.05729">
        <ele>126.3</ele>
        <time>2026-03-28T09:39:05.484Z</time>
      </trkpt>
      <trkpt lat="46.95527" lon="-1.05701">
        <ele>128</ele>
        <time>2026-03-28T09:39:15.467Z</time>
      </trkpt>
      <trkpt lat="46.95557" lon="-1.05692">
        <ele>128</ele>
        <time>2026-03-28T09:39:19.935Z</time>
      </trkpt>
      <trkpt lat="46.95595" lon="-1.05689">
        <ele>127.1</ele>
        <time>2026-03-28T09:39:24.443Z</time>
      </trkpt>
      <trkpt lat="46.9561" lon="-1.05694">
        <ele>127</ele>
        <time>2026-03-28T09:39:26.555Z</time>
      </trkpt>
      <trkpt lat="46.95695" lon="-1.05765">
        <ele>125.5</ele>
        <time>2026-03-28T09:39:38.980Z</time>
      </trkpt>
      <trkpt lat="46.95744" lon="-1.05775">
        <ele>124.3</ele>
        <time>2026-03-28T09:39:44.812Z</time>
      </trkpt>
      <trkpt lat="46.95799" lon="-1.05767">
        <ele>123.8</ele>
        <time>2026-03-28T09:39:52.229Z</time>
      </trkpt>
      <trkpt lat="46.95858" lon="-1.05746">
        <ele>120.4</ele>
        <time>2026-03-28T09:39:57.912Z</time>
      </trkpt>
      <trkpt lat="46.95913" lon="-1.05703">
        <ele>114.4</ele>
        <time>2026-03-28T09:40:03.368Z</time>
      </trkpt>
      <trkpt lat="46.96014" lon="-1.05603">
        <ele>106.8</ele>
        <time>2026-03-28T09:40:14.326Z</time>
      </trkpt>
      <trkpt lat="46.96078" lon="-1.05547">
        <ele>104.7</ele>
        <time>2026-03-28T09:40:22.843Z</time>
      </trkpt>
      <trkpt lat="46.96148" lon="-1.05494">
        <ele>111.8</ele>
        <time>2026-03-28T09:40:57.118Z</time>
      </trkpt>
      <trkpt lat="46.96192" lon="-1.05473">
        <ele>115.8</ele>
        <time>2026-03-28T09:41:16.293Z</time>
      </trkpt>
      <trkpt lat="46.9624" lon="-1.05483">
        <ele>120.3</ele>
        <time>2026-03-28T09:41:38.138Z</time>
      </trkpt>
      <trkpt lat="46.96424" lon="-1.05574">
        <ele>126.7</ele>
        <time>2026-03-28T09:42:18.274Z</time>
      </trkpt>
      <trkpt lat="46.96468" lon="-1.05583">
        <ele>126</ele>
        <time>2026-03-28T09:42:23.895Z</time>
      </trkpt>
      <trkpt lat="46.96518" lon="-1.05573">
        <ele>125</ele>
        <time>2026-03-28T09:42:30.065Z</time>
      </trkpt>
      <trkpt lat="46.96574" lon="-1.05552">
        <ele>124.1</ele>
        <time>2026-03-28T09:42:37.390Z</time>
      </trkpt>
      <trkpt lat="46.96634" lon="-1.05513">
        <ele>125</ele>
        <time>2026-03-28T09:42:48.364Z</time>
      </trkpt>
      <trkpt lat="46.96725" lon="-1.05446">
        <ele>127.8</ele>
        <time>2026-03-28T09:43:08.133Z</time>
      </trkpt>
      <trkpt lat="46.96838" lon="-1.05352">
        <ele>127.8</ele>
        <time>2026-03-28T09:43:27.089Z</time>
      </trkpt>
      <trkpt lat="46.96871" lon="-1.05329">
        <ele>127.1</ele>
        <time>2026-03-28T09:43:31.581Z</time>
      </trkpt>
      <trkpt lat="46.96901" lon="-1.05316">
        <ele>126.6</ele>
        <time>2026-03-28T09:43:35.532Z</time>
      </trkpt>
      <trkpt lat="46.96945" lon="-1.05311">
        <ele>125</ele>
        <time>2026-03-28T09:43:40.271Z</time>
      </trkpt>
      <trkpt lat="46.96971" lon="-1.05314">
        <ele>124</ele>
        <time>2026-03-28T09:43:43.029Z</time>
      </trkpt>
      <trkpt lat="46.97004" lon="-1.05326">
        <ele>122.9</ele>
        <time>2026-03-28T09:43:46.789Z</time>
      </trkpt>
      <trkpt lat="46.97024" lon="-1.05328">
        <ele>122.1</ele>
        <time>2026-03-28T09:43:48.885Z</time>
      </trkpt>
      <trkpt lat="46.97096" lon="-1.05299">
        <ele>120.7</ele>
        <time>2026-03-28T09:43:58.096Z</time>
      </trkpt>
      <trkpt lat="46.97174" lon="-1.05282">
        <ele>118</ele>
        <time>2026-03-28T09:44:06.693Z</time>
      </trkpt>
      <trkpt lat="46.97252" lon="-1.05293">
        <ele>120.6</ele>
        <time>2026-03-28T09:44:22.931Z</time>
      </trkpt>
      <trkpt lat="46.97327" lon="-1.05307">
        <ele>122</ele>
        <time>2026-03-28T09:44:36.228Z</time>
      </trkpt>
      <trkpt lat="46.97339" lon="-1.05316">
        <ele>122</ele>
        <time>2026-03-28T09:44:38.194Z</time>
      </trkpt>
      <trkpt lat="46.9738" lon="-1.05348">
        <ele>122</ele>
        <time>2026-03-28T09:44:44.971Z</time>
      </trkpt>
      <trkpt lat="46.97379" lon="-1.05262">
        <ele>122</ele>
        <time>2026-03-28T09:44:53.532Z</time>
      </trkpt>
      <trkpt lat="46.9738" lon="-1.05195">
        <ele>122.3</ele>
        <time>2026-03-28T09:45:00.642Z</time>
      </trkpt>
      <trkpt lat="46.97384" lon="-1.05104">
        <ele>123</ele>
        <time>2026-03-28T09:45:10.784Z</time>
      </trkpt>
      <trkpt lat="46.97397" lon="-1.05084">
        <ele>123</ele>
        <time>2026-03-28T09:45:13.533Z</time>
      </trkpt>
      <trkpt lat="46.97412" lon="-1.05055">
        <ele>123.2</ele>
        <time>2026-03-28T09:45:17.452Z</time>
      </trkpt>
      <trkpt lat="46.97423" lon="-1.05024">
        <ele>123.8</ele>
        <time>2026-03-28T09:45:21.961Z</time>
      </trkpt>
      <trkpt lat="46.97443" lon="-1.04927">
        <ele>124</ele>
        <time>2026-03-28T09:45:32.331Z</time>
      </trkpt>
      <trkpt lat="46.97446" lon="-1.04904">
        <ele>124</ele>
        <time>2026-03-28T09:45:34.662Z</time>
      </trkpt>
      <trkpt lat="46.97458" lon="-1.0472">
        <ele>125.6</ele>
        <time>2026-03-28T09:45:55.525Z</time>
      </trkpt>
      <trkpt lat="46.97461" lon="-1.04605">
        <ele>126.8</ele>
        <time>2026-03-28T09:46:08.870Z</time>
      </trkpt>
      <trkpt lat="46.97459" lon="-1.04565">
        <ele>126.6</ele>
        <time>2026-03-28T09:46:12.600Z</time>
      </trkpt>
      <trkpt lat="46.97447" lon="-1.04476">
        <ele>126.1</ele>
        <time>2026-03-28T09:46:20.979Z</time>
      </trkpt>
      <trkpt lat="46.97349" lon="-1.0408">
        <ele>125.4</ele>
        <time>2026-03-28T09:47:01.957Z</time>
      </trkpt>
      <trkpt lat="46.9734" lon="-1.0404">
        <ele>125.6</ele>
        <time>2026-03-28T09:47:06.443Z</time>
      </trkpt>
      <trkpt lat="46.97335" lon="-1.03997">
        <ele>127.2</ele>
        <time>2026-03-28T09:47:14.391Z</time>
      </trkpt>
      <trkpt lat="46.97364" lon="-1.03825">
        <ele>131</ele>
        <time>2026-03-28T09:47:38.939Z</time>
      </trkpt>
      <trkpt lat="46.97373" lon="-1.03757">
        <ele>131.9</ele>
        <time>2026-03-28T09:47:47.298Z</time>
      </trkpt>
      <trkpt lat="46.974" lon="-1.03282">
        <ele>137.5</ele>
        <time>2026-03-28T09:48:43.711Z</time>
      </trkpt>
      <trkpt lat="46.974" lon="-1.03228">
        <ele>137.9</ele>
        <time>2026-03-28T09:48:49.693Z</time>
      </trkpt>
      <trkpt lat="46.97384" lon="-1.03129">
        <ele>139</ele>
        <time>2026-03-28T09:49:01.560Z</time>
      </trkpt>
      <trkpt lat="46.97368" lon="-1.02921">
        <ele>139.8</ele>
        <time>2026-03-28T09:49:23.557Z</time>
      </trkpt>
      <trkpt lat="46.97362" lon="-1.02785">
        <ele>140</ele>
        <time>2026-03-28T09:49:37.405Z</time>
      </trkpt>
      <trkpt lat="46.97386" lon="-1.02466">
        <ele>137</ele>
        <time>2026-03-28T09:50:05.609Z</time>
      </trkpt>
      <trkpt lat="46.97338" lon="-1.02205">
        <ele>133.4</ele>
        <time>2026-03-28T09:50:28.215Z</time>
      </trkpt>
      <trkpt lat="46.97324" lon="-1.02192">
        <ele>133.3</ele>
        <time>2026-03-28T09:50:30.500Z</time>
      </trkpt>
      <trkpt lat="46.97298" lon="-1.02164">
        <ele>134</ele>
        <time>2026-03-28T09:50:36.373Z</time>
      </trkpt>
      <trkpt lat="46.97289" lon="-1.02149">
        <ele>134</ele>
        <time>2026-03-28T09:50:38.361Z</time>
      </trkpt>
      <trkpt lat="46.97281" lon="-1.02129">
        <ele>134.3</ele>
        <time>2026-03-28T09:50:41.157Z</time>
      </trkpt>
      <trkpt lat="46.97107" lon="-1.01514">
        <ele>137</ele>
        <time>2026-03-28T09:51:51.360Z</time>
      </trkpt>
      <trkpt lat="46.97099" lon="-1.0148">
        <ele>136.6</ele>
        <time>2026-03-28T09:51:54.451Z</time>
      </trkpt>
      <trkpt lat="46.97067" lon="-1.01249">
        <ele>133.8</ele>
        <time>2026-03-28T09:52:14.517Z</time>
      </trkpt>
      <trkpt lat="46.97038" lon="-1.01038">
        <ele>128.7</ele>
        <time>2026-03-28T09:52:30.472Z</time>
      </trkpt>
      <trkpt lat="46.97028" lon="-1.01017">
        <ele>129.4</ele>
        <time>2026-03-28T09:52:34.401Z</time>
      </trkpt>
      <trkpt lat="46.96991" lon="-1.00977">
        <ele>133</ele>
        <time>2026-03-28T09:52:51.468Z</time>
      </trkpt>
      <trkpt lat="46.96915" lon="-1.00903">
        <ele>137.1</ele>
        <time>2026-03-28T09:53:13.254Z</time>
      </trkpt>
      <trkpt lat="46.96853" lon="-1.00846">
        <ele>139.8</ele>
        <time>2026-03-28T09:53:29.099Z</time>
      </trkpt>
      <trkpt lat="46.96835" lon="-1.00826">
        <ele>140.3</ele>
        <time>2026-03-28T09:53:33.230Z</time>
      </trkpt>
      <trkpt lat="46.96825" lon="-1.00811">
        <ele>140.9</ele>
        <time>2026-03-28T09:53:36.523Z</time>
      </trkpt>
      <trkpt lat="46.96824" lon="-1.00744">
        <ele>143</ele>
        <time>2026-03-28T09:53:47.577Z</time>
      </trkpt>
      <trkpt lat="46.96831" lon="-1.00628">
        <ele>146.2</ele>
        <time>2026-03-28T09:54:05.494Z</time>
      </trkpt>
      <trkpt lat="46.9683" lon="-1.00611">
        <ele>146.8</ele>
        <time>2026-03-28T09:54:08.515Z</time>
      </trkpt>
      <trkpt lat="46.96827" lon="-1.00589">
        <ele>146.7</ele>
        <time>2026-03-28T09:54:10.617Z</time>
      </trkpt>
      <trkpt lat="46.96819" lon="-1.00575">
        <ele>146.9</ele>
        <time>2026-03-28T09:54:12.752Z</time>
      </trkpt>
      <trkpt lat="46.96808" lon="-1.00562">
        <ele>147.6</ele>
        <time>2026-03-28T09:54:16.327Z</time>
      </trkpt>
      <trkpt lat="46.9679" lon="-1.00553">
        <ele>148.8</ele>
        <time>2026-03-28T09:54:22.071Z</time>
      </trkpt>
      <trkpt lat="46.9678" lon="-1.00554">
        <ele>149.1</ele>
        <time>2026-03-28T09:54:24.071Z</time>
      </trkpt>
      <trkpt lat="46.96758" lon="-1.00562">
        <ele>150.3</ele>
        <time>2026-03-28T09:54:30.061Z</time>
      </trkpt>
      <trkpt lat="46.96747" lon="-1.00562">
        <ele>151</ele>
        <time>2026-03-28T09:54:33.408Z</time>
      </trkpt>
      <trkpt lat="46.9673" lon="-1.00548">
        <ele>152</ele>
        <time>2026-03-28T09:54:38.452Z</time>
      </trkpt>
      <trkpt lat="46.96715" lon="-1.00517">
        <ele>155.2</ele>
        <time>2026-03-28T09:54:54.209Z</time>
      </trkpt>
      <trkpt lat="46.96708" lon="-1.00508">
        <ele>155.9</ele>
        <time>2026-03-28T09:54:57.521Z</time>
      </trkpt>
      <trkpt lat="46.96689" lon="-1.00498">
        <ele>156.5</ele>
        <time>2026-03-28T09:55:01.540Z</time>
      </trkpt>
      <trkpt lat="46.9668" lon="-1.00498">
        <ele>157.1</ele>
        <time>2026-03-28T09:55:04.392Z</time>
      </trkpt>
      <trkpt lat="46.96667" lon="-1.00507">
        <ele>158</ele>
        <time>2026-03-28T09:55:08.706Z</time>
      </trkpt>
      <trkpt lat="46.96657" lon="-1.00509">
        <ele>158.3</ele>
        <time>2026-03-28T09:55:10.715Z</time>
      </trkpt>
      <trkpt lat="46.96636" lon="-1.00508">
        <ele>159.1</ele>
        <time>2026-03-28T09:55:15.329Z</time>
      </trkpt>
      <trkpt lat="46.9662" lon="-1.00498">
        <ele>159.8</ele>
        <time>2026-03-28T09:55:19.249Z</time>
      </trkpt>
      <trkpt lat="46.96614" lon="-1.00486">
        <ele>160.4</ele>
        <time>2026-03-28T09:55:22.157Z</time>
      </trkpt>
      <trkpt lat="46.9661" lon="-1.00473">
        <ele>161</ele>
        <time>2026-03-28T09:55:25.040Z</time>
      </trkpt>
      <trkpt lat="46.96609" lon="-1.00458">
        <ele>161.6</ele>
        <time>2026-03-28T09:55:27.956Z</time>
      </trkpt>
      <trkpt lat="46.96611" lon="-1.00439">
        <ele>162</ele>
        <time>2026-03-28T09:55:30.591Z</time>
      </trkpt>
      <trkpt lat="46.96636" lon="-1.00343">
        <ele>163.1</ele>
        <time>2026-03-28T09:55:42.559Z</time>
      </trkpt>
      <trkpt lat="46.96653" lon="-1.00282">
        <ele>162.6</ele>
        <time>2026-03-28T09:55:48.483Z</time>
      </trkpt>
      <trkpt lat="46.96655" lon="-1.00261">
        <ele>162.2</ele>
        <time>2026-03-28T09:55:50.143Z</time>
      </trkpt>
      <trkpt lat="46.96655" lon="-1.00251">
        <ele>162</ele>
        <time>2026-03-28T09:55:50.916Z</time>
      </trkpt>
      <trkpt lat="46.9665" lon="-1.00236">
        <ele>161.8</ele>
        <time>2026-03-28T09:55:52.335Z</time>
      </trkpt>
      <trkpt lat="46.96642" lon="-1.00221">
        <ele>161.8</ele>
        <time>2026-03-28T09:55:54.230Z</time>
      </trkpt>
      <trkpt lat="46.96625" lon="-1.00197">
        <ele>161.5</ele>
        <time>2026-03-28T09:55:57.297Z</time>
      </trkpt>
      <trkpt lat="46.96544" lon="-1.00104">
        <ele>162.2</ele>
        <time>2026-03-28T09:56:13.335Z</time>
      </trkpt>
      <trkpt lat="46.96506" lon="-1.00057">
        <ele>162.8</ele>
        <time>2026-03-28T09:56:21.508Z</time>
      </trkpt>
      <trkpt lat="46.96459" lon="-0.99989">
        <ele>161.6</ele>
        <time>2026-03-28T09:56:29.696Z</time>
      </trkpt>
      <trkpt lat="46.96336" lon="-0.997">
        <ele>159.3</ele>
        <time>2026-03-28T09:57:00.652Z</time>
      </trkpt>
      <trkpt lat="46.96325" lon="-0.99683">
        <ele>158.7</ele>
        <time>2026-03-28T09:57:02.353Z</time>
      </trkpt>
      <trkpt lat="46.96306" lon="-0.99672">
        <ele>158</ele>
        <time>2026-03-28T09:57:04.580Z</time>
      </trkpt>
      <trkpt lat="46.96233" lon="-0.9967">
        <ele>159.7</ele>
        <time>2026-03-28T09:57:18.102Z</time>
      </trkpt>
      <trkpt lat="46.96219" lon="-0.99664">
        <ele>160.2</ele>
        <time>2026-03-28T09:57:21.164Z</time>
      </trkpt>
      <trkpt lat="46.96199" lon="-0.9965">
        <ele>161.2</ele>
        <time>2026-03-28T09:57:26.468Z</time>
      </trkpt>
      <trkpt lat="46.96182" lon="-0.99615">
        <ele>161.1</ele>
        <time>2026-03-28T09:57:30.610Z</time>
      </trkpt>
      <trkpt lat="46.96166" lon="-0.99577">
        <ele>159.7</ele>
        <time>2026-03-28T09:57:33.662Z</time>
      </trkpt>
      <trkpt lat="46.96146" lon="-0.99558">
        <ele>158.3</ele>
        <time>2026-03-28T09:57:35.854Z</time>
      </trkpt>
      <trkpt lat="46.96141" lon="-0.99537">
        <ele>157.4</ele>
        <time>2026-03-28T09:57:37.245Z</time>
      </trkpt>
      <trkpt lat="46.96142" lon="-0.99518">
        <ele>156.8</ele>
        <time>2026-03-28T09:57:38.545Z</time>
      </trkpt>
      <trkpt lat="46.96144" lon="-0.99511">
        <ele>156.7</ele>
        <time>2026-03-28T09:57:39.181Z</time>
      </trkpt>
      <trkpt lat="46.96133" lon="-0.99507">
        <ele>156.3</ele>
        <time>2026-03-28T09:57:40.407Z</time>
      </trkpt>
      <trkpt lat="46.96125" lon="-0.99498">
        <ele>155.9</ele>
        <time>2026-03-28T09:57:41.464Z</time>
      </trkpt>
      <trkpt lat="46.96114" lon="-0.99455">
        <ele>153.5</ele>
        <time>2026-03-28T09:57:44.207Z</time>
      </trkpt>
      <trkpt lat="46.96072" lon="-0.99385">
        <ele>153.6</ele>
        <time>2026-03-28T09:57:53.627Z</time>
      </trkpt>
      <trkpt lat="46.96043" lon="-0.99345">
        <ele>159</ele>
        <time>2026-03-28T09:58:18.528Z</time>
      </trkpt>
      <trkpt lat="46.96031" lon="-0.99323">
        <ele>161.2</ele>
        <time>2026-03-28T09:58:29.519Z</time>
      </trkpt>
      <trkpt lat="46.9601" lon="-0.99261">
        <ele>163.5</ele>
        <time>2026-03-28T09:58:41.342Z</time>
      </trkpt>
      <trkpt lat="46.95996" lon="-0.99239">
        <ele>164</ele>
        <time>2026-03-28T09:58:45.190Z</time>
      </trkpt>
      <trkpt lat="46.95936" lon="-0.99095">
        <ele>165.3</ele>
        <time>2026-03-28T09:59:03.967Z</time>
      </trkpt>
      <trkpt lat="46.95934" lon="-0.99098">
        <ele>165.4</ele>
        <time>2026-03-28T09:59:04.572Z</time>
      </trkpt>
      <trkpt lat="46.95929" lon="-0.99099">
        <ele>165.6</ele>
        <time>2026-03-28T09:59:05.701Z</time>
      </trkpt>
      <trkpt lat="46.95926" lon="-0.99096">
        <ele>165.7</ele>
        <time>2026-03-28T09:59:06.406Z</time>
      </trkpt>
      <trkpt lat="46.95925" lon="-0.99089">
        <ele>165.7</ele>
        <time>2026-03-28T09:59:07.119Z</time>
      </trkpt>
      <trkpt lat="46.95929" lon="-0.99083">
        <ele>165.5</ele>
        <time>2026-03-28T09:59:07.739Z</time>
      </trkpt>
      <trkpt lat="46.95931" lon="-0.99083">
        <ele>165.5</ele>
        <time>2026-03-28T09:59:08.031Z</time>
      </trkpt>
      <trkpt lat="46.95914" lon="-0.98986">
        <ele>162.6</ele>
        <time>2026-03-28T09:59:15.048Z</time>
      </trkpt>
      <trkpt lat="46.95901" lon="-0.98935">
        <ele>161.2</ele>
        <time>2026-03-28T09:59:18.996Z</time>
      </trkpt>
      <trkpt lat="46.95888" lon="-0.98862">
        <ele>159</ele>
        <time>2026-03-28T09:59:24.271Z</time>
      </trkpt>
      <trkpt lat="46.95878" lon="-0.98824">
        <ele>158.1</ele>
        <time>2026-03-28T09:59:27.345Z</time>
      </trkpt>
      <trkpt lat="46.9586" lon="-0.9879">
        <ele>156.9</ele>
        <time>2026-03-28T09:59:30.394Z</time>
      </trkpt>
      <trkpt lat="46.95801" lon="-0.98727">
        <ele>156.3</ele>
        <time>2026-03-28T09:59:40.264Z</time>
      </trkpt>
      <trkpt lat="46.9578" lon="-0.9871">
        <ele>156.9</ele>
        <time>2026-03-28T09:59:44.793Z</time>
      </trkpt>
      <trkpt lat="46.9579" lon="-0.98688">
        <ele>156.1</ele>
        <time>2026-03-28T09:59:46.620Z</time>
      </trkpt>
      <trkpt lat="46.95818" lon="-0.98605">
        <ele>154.7</ele>
        <time>2026-03-28T09:59:54.198Z</time>
      </trkpt>
      <trkpt lat="46.95847" lon="-0.98565">
        <ele>156.5</ele>
        <time>2026-03-28T10:00:03.738Z</time>
      </trkpt>
      <trkpt lat="46.95895" lon="-0.98516">
        <ele>160</ele>
        <time>2026-03-28T10:00:20.655Z</time>
      </trkpt>
      <trkpt lat="46.95908" lon="-0.98461">
        <ele>161.6</ele>
        <time>2026-03-28T10:00:29.613Z</time>
      </trkpt>
      <trkpt lat="46.95914" lon="-0.98397">
        <ele>160.6</ele>
        <time>2026-03-28T10:00:34.877Z</time>
      </trkpt>
      <trkpt lat="46.95931" lon="-0.98331">
        <ele>158.5</ele>
        <time>2026-03-28T10:00:39.778Z</time>
      </trkpt>
      <trkpt lat="46.95956" lon="-0.98287">
        <ele>157.6</ele>
        <time>2026-03-28T10:00:44.430Z</time>
      </trkpt>
      <trkpt lat="46.95991" lon="-0.98257">
        <ele>156.3</ele>
        <time>2026-03-28T10:00:48.925Z</time>
      </trkpt>
      <trkpt lat="46.96045" lon="-0.98179">
        <ele>154.4</ele>
        <time>2026-03-28T10:00:57.807Z</time>
      </trkpt>
      <trkpt lat="46.96089" lon="-0.9809">
        <ele>153</ele>
        <time>2026-03-28T10:01:07.065Z</time>
      </trkpt>
      <trkpt lat="46.962" lon="-0.97835">
        <ele>147.3</ele>
        <time>2026-03-28T10:01:30.753Z</time>
      </trkpt>
      <trkpt lat="46.96242" lon="-0.97759">
        <ele>143.3</ele>
        <time>2026-03-28T10:01:36.844Z</time>
      </trkpt>
      <trkpt lat="46.96242" lon="-0.9776">
        <ele>143.3</ele>
        <time>2026-03-28T10:01:36.944Z</time>
      </trkpt>
      <trkpt lat="46.96273" lon="-0.97697">
        <ele>141.2</ele>
        <time>2026-03-28T10:01:42.497Z</time>
      </trkpt>
      <trkpt lat="46.9629" lon="-0.97651">
        <ele>140.8</ele>
        <time>2026-03-28T10:01:47.196Z</time>
      </trkpt>
      <trkpt lat="46.96279" lon="-0.97577">
        <ele>141.3</ele>
        <time>2026-03-28T10:01:55.487Z</time>
      </trkpt>
      <trkpt lat="46.96254" lon="-0.97458">
        <ele>148</ele>
        <time>2026-03-28T10:02:27.266Z</time>
      </trkpt>
      <trkpt lat="46.96227" lon="-0.97338">
        <ele>151.7</ele>
        <time>2026-03-28T10:02:47.345Z</time>
      </trkpt>
      <trkpt lat="46.96221" lon="-0.97315">
        <ele>152</ele>
        <time>2026-03-28T10:02:50.280Z</time>
      </trkpt>
      <trkpt lat="46.96173" lon="-0.97184">
        <ele>151.6</ele>
        <time>2026-03-28T10:03:04.545Z</time>
      </trkpt>
      <trkpt lat="46.96158" lon="-0.97131">
        <ele>150.8</ele>
        <time>2026-03-28T10:03:09.309Z</time>
      </trkpt>
      <trkpt lat="46.96132" lon="-0.97025">
        <ele>147.9</ele>
        <time>2026-03-28T10:03:17.474Z</time>
      </trkpt>
      <trkpt lat="46.96091" lon="-0.96804">
        <ele>139</ele>
        <time>2026-03-28T10:03:32.014Z</time>
      </trkpt>
      <trkpt lat="46.96104" lon="-0.96745">
        <ele>141.2</ele>
        <time>2026-03-28T10:03:43.060Z</time>
      </trkpt>
      <trkpt lat="46.96106" lon="-0.96721">
        <ele>141.8</ele>
        <time>2026-03-28T10:03:46.610Z</time>
      </trkpt>
      <trkpt lat="46.96105" lon="-0.96685">
        <ele>143.7</ele>
        <time>2026-03-28T10:03:55.610Z</time>
      </trkpt>
      <trkpt lat="46.96079" lon="-0.96552">
        <ele>143.2</ele>
        <time>2026-03-28T10:04:08.719Z</time>
      </trkpt>
      <trkpt lat="46.9608" lon="-0.96514">
        <ele>143.1</ele>
        <time>2026-03-28T10:04:12.371Z</time>
      </trkpt>
      <trkpt lat="46.96101" lon="-0.96471">
        <ele>142.4</ele>
        <time>2026-03-28T10:04:16.799Z</time>
      </trkpt>
      <trkpt lat="46.96145" lon="-0.96398">
        <ele>140.9</ele>
        <time>2026-03-28T10:04:24.743Z</time>
      </trkpt>
      <trkpt lat="46.96166" lon="-0.96356">
        <ele>139.8</ele>
        <time>2026-03-28T10:04:28.715Z</time>
      </trkpt>
      <trkpt lat="46.96171" lon="-0.96326">
        <ele>138.9</ele>
        <time>2026-03-28T10:04:30.875Z</time>
      </trkpt>
      <trkpt lat="46.96176" lon="-0.96266">
        <ele>139.7</ele>
        <time>2026-03-28T10:04:38.198Z</time>
      </trkpt>
      <trkpt lat="46.96199" lon="-0.9599">
        <ele>148.9</ele>
        <time>2026-03-28T10:05:25.568Z</time>
      </trkpt>
      <trkpt lat="46.96218" lon="-0.95887">
        <ele>147.9</ele>
        <time>2026-03-28T10:05:34.944Z</time>
      </trkpt>
      <trkpt lat="46.96372" lon="-0.9551">
        <ele>136.1</ele>
        <time>2026-03-28T10:06:06.418Z</time>
      </trkpt>
      <trkpt lat="46.96376" lon="-0.95488">
        <ele>135.4</ele>
        <time>2026-03-28T10:06:07.983Z</time>
      </trkpt>
      <trkpt lat="46.96378" lon="-0.9545">
        <ele>133.8</ele>
        <time>2026-03-28T10:06:10.334Z</time>
      </trkpt>
      <trkpt lat="46.96316" lon="-0.95195">
        <ele>124.4</ele>
        <time>2026-03-28T10:06:28.219Z</time>
      </trkpt>
      <trkpt lat="46.96308" lon="-0.9517">
        <ele>124</ele>
        <time>2026-03-28T10:06:30.496Z</time>
      </trkpt>
      <trkpt lat="46.96421" lon="-0.95048">
        <ele>118.5</ele>
        <time>2026-03-28T10:06:45.246Z</time>
      </trkpt>
      <trkpt lat="46.96521" lon="-0.94975">
        <ele>114.8</ele>
        <time>2026-03-28T10:06:57.531Z</time>
      </trkpt>
      <trkpt lat="46.96568" lon="-0.94944">
        <ele>112.7</ele>
        <time>2026-03-28T10:07:02.886Z</time>
      </trkpt>
      <trkpt lat="46.96587" lon="-0.9492">
        <ele>111.6</ele>
        <time>2026-03-28T10:07:05.436Z</time>
      </trkpt>
      <trkpt lat="46.96633" lon="-0.94807">
        <ele>110</ele>
        <time>2026-03-28T10:07:16.599Z</time>
      </trkpt>
      <trkpt lat="46.96662" lon="-0.94742">
        <ele>106.7</ele>
        <time>2026-03-28T10:07:21.366Z</time>
      </trkpt>
      <trkpt lat="46.96686" lon="-0.947">
        <ele>103.5</ele>
        <time>2026-03-28T10:07:24.638Z</time>
      </trkpt>
      <trkpt lat="46.96699" lon="-0.94659">
        <ele>100.3</ele>
        <time>2026-03-28T10:07:27.338Z</time>
      </trkpt>
      <trkpt lat="46.96703" lon="-0.94591">
        <ele>95.9</ele>
        <time>2026-03-28T10:07:31.415Z</time>
      </trkpt>
      <trkpt lat="46.96704" lon="-0.94552">
        <ele>92.4</ele>
        <time>2026-03-28T10:07:33.746Z</time>
      </trkpt>
      <trkpt lat="46.96638" lon="-0.94428">
        <ele>90.7</ele>
        <time>2026-03-28T10:07:47.315Z</time>
      </trkpt>
      <trkpt lat="46.96559" lon="-0.94261">
        <ele>92.9</ele>
        <time>2026-03-28T10:08:11.026Z</time>
      </trkpt>
      <trkpt lat="46.96536" lon="-0.94199">
        <ele>96.9</ele>
        <time>2026-03-28T10:08:30.096Z</time>
      </trkpt>
      <trkpt lat="46.96531" lon="-0.94182">
        <ele>96.8</ele>
        <time>2026-03-28T10:08:31.808Z</time>
      </trkpt>
      <trkpt lat="46.9653" lon="-0.9417">
        <ele>95.9</ele>
        <time>2026-03-28T10:08:32.530Z</time>
      </trkpt>
      <trkpt lat="46.96534" lon="-0.94153">
        <ele>93.5</ele>
        <time>2026-03-28T10:08:33.604Z</time>
      </trkpt>
      <trkpt lat="46.96592" lon="-0.94069">
        <ele>93.3</ele>
        <time>2026-03-28T10:08:45.229Z</time>
      </trkpt>
      <trkpt lat="46.96612" lon="-0.94054">
        <ele>94.1</ele>
        <time>2026-03-28T10:08:50.019Z</time>
      </trkpt>
      <trkpt lat="46.96628" lon="-0.94059">
        <ele>96.9</ele>
        <time>2026-03-28T10:09:00.247Z</time>
      </trkpt>
      <trkpt lat="46.9666" lon="-0.94122">
        <ele>101.5</ele>
        <time>2026-03-28T10:09:22.275Z</time>
      </trkpt>
      <trkpt lat="46.96691" lon="-0.94214">
        <ele>104.7</ele>
        <time>2026-03-28T10:09:39.154Z</time>
      </trkpt>
      <trkpt lat="46.96735" lon="-0.94274">
        <ele>109.8</ele>
        <time>2026-03-28T10:10:03.536Z</time>
      </trkpt>
      <trkpt lat="46.96773" lon="-0.94315">
        <ele>113</ele>
        <time>2026-03-28T10:10:18.722Z</time>
      </trkpt>
      <trkpt lat="46.96802" lon="-0.94323">
        <ele>113</ele>
        <time>2026-03-28T10:10:23.027Z</time>
      </trkpt>
      <trkpt lat="46.96839" lon="-0.94314">
        <ele>112.4</ele>
        <time>2026-03-28T10:10:27.763Z</time>
      </trkpt>
      <trkpt lat="46.9689" lon="-0.9429">
        <ele>109.6</ele>
        <time>2026-03-28T10:10:32.900Z</time>
      </trkpt>
      <trkpt lat="46.96926" lon="-0.94247">
        <ele>110</ele>
        <time>2026-03-28T10:10:40.271Z</time>
      </trkpt>
      <trkpt lat="46.96968" lon="-0.9422">
        <ele>111.6</ele>
        <time>2026-03-28T10:10:49.967Z</time>
      </trkpt>
      <trkpt lat="46.97077" lon="-0.94252">
        <ele>113.3</ele>
        <time>2026-03-28T10:11:08.861Z</time>
      </trkpt>
      <trkpt lat="46.97098" lon="-0.94246">
        <ele>113.1</ele>
        <time>2026-03-28T10:11:11.724Z</time>
      </trkpt>
      <trkpt lat="46.9711" lon="-0.94234">
        <ele>112.7</ele>
        <time>2026-03-28T10:11:13.393Z</time>
      </trkpt>
      <trkpt lat="46.97121" lon="-0.94202">
        <ele>110.3</ele>
        <time>2026-03-28T10:11:15.533Z</time>
      </trkpt>
      <trkpt lat="46.97135" lon="-0.94148">
        <ele>109.7</ele>
        <time>2026-03-28T10:11:20.543Z</time>
      </trkpt>
      <trkpt lat="46.97188" lon="-0.94135">
        <ele>113.3</ele>
        <time>2026-03-28T10:11:37.646Z</time>
      </trkpt>
      <trkpt lat="46.97224" lon="-0.94144">
        <ele>117.3</ele>
        <time>2026-03-28T10:11:57.611Z</time>
      </trkpt>
      <trkpt lat="46.97281" lon="-0.94129">
        <ele>123.2</ele>
        <time>2026-03-28T10:12:26.772Z</time>
      </trkpt>
      <trkpt lat="46.9728" lon="-0.94129">
        <ele>123.2</ele>
        <time>2026-03-28T10:12:26.918Z</time>
      </trkpt>
      <trkpt lat="46.97292" lon="-0.94126">
        <ele>124</ele>
        <time>2026-03-28T10:12:30.726Z</time>
      </trkpt>
      <trkpt lat="46.97313" lon="-0.94105">
        <ele>125.7</ele>
        <time>2026-03-28T10:12:38.804Z</time>
      </trkpt>
      <trkpt lat="46.97335" lon="-0.94086">
        <ele>126.9</ele>
        <time>2026-03-28T10:12:45.060Z</time>
      </trkpt>
      <trkpt lat="46.97349" lon="-0.94078">
        <ele>126.3</ele>
        <time>2026-03-28T10:12:46.631Z</time>
      </trkpt>
      <trkpt lat="46.97357" lon="-0.94083">
        <ele>126.1</ele>
        <time>2026-03-28T10:12:47.667Z</time>
      </trkpt>
      <trkpt lat="46.97448" lon="-0.94099">
        <ele>121.4</ele>
        <time>2026-03-28T10:12:56.516Z</time>
      </trkpt>
      <trkpt lat="46.97509" lon="-0.94105">
        <ele>115.4</ele>
        <time>2026-03-28T10:13:01.867Z</time>
      </trkpt>
      <trkpt lat="46.97574" lon="-0.94046">
        <ele>106.2</ele>
        <time>2026-03-28T10:13:08.559Z</time>
      </trkpt>
      <trkpt lat="46.97608" lon="-0.94018">
        <ele>103.8</ele>
        <time>2026-03-28T10:13:12.083Z</time>
      </trkpt>
      <trkpt lat="46.9762" lon="-0.93997">
        <ele>102.3</ele>
        <time>2026-03-28T10:13:13.718Z</time>
      </trkpt>
      <trkpt lat="46.97624" lon="-0.93987">
        <ele>102</ele>
        <time>2026-03-28T10:13:14.557Z</time>
      </trkpt>
      <trkpt lat="46.97622" lon="-0.9398">
        <ele>102.1</ele>
        <time>2026-03-28T10:13:15.476Z</time>
      </trkpt>
      <trkpt lat="46.97623" lon="-0.9397">
        <ele>102.2</ele>
        <time>2026-03-28T10:13:16.638Z</time>
      </trkpt>
      <trkpt lat="46.97627" lon="-0.93965">
        <ele>102.5</ele>
        <time>2026-03-28T10:13:18.104Z</time>
      </trkpt>
      <trkpt lat="46.97633" lon="-0.93964">
        <ele>102.6</ele>
        <time>2026-03-28T10:13:19.144Z</time>
      </trkpt>
      <trkpt lat="46.97639" lon="-0.93971">
        <ele>102.1</ele>
        <time>2026-03-28T10:13:19.822Z</time>
      </trkpt>
      <trkpt lat="46.97639" lon="-0.93983">
        <ele>101.6</ele>
        <time>2026-03-28T10:13:20.564Z</time>
      </trkpt>
      <trkpt lat="46.97652" lon="-0.93996">
        <ele>100.8</ele>
        <time>2026-03-28T10:13:22.088Z</time>
      </trkpt>
      <trkpt lat="46.97684" lon="-0.94052">
        <ele>97.5</ele>
        <time>2026-03-28T10:13:26.463Z</time>
      </trkpt>
      <trkpt lat="46.97738" lon="-0.94084">
        <ele>93.8</ele>
        <time>2026-03-28T10:13:31.661Z</time>
      </trkpt>
      <trkpt lat="46.97764" lon="-0.94092">
        <ele>91.9</ele>
        <time>2026-03-28T10:13:33.987Z</time>
      </trkpt>
      <trkpt lat="46.97812" lon="-0.9416">
        <ele>92.5</ele>
        <time>2026-03-28T10:13:44.621Z</time>
      </trkpt>
      <trkpt lat="46.97875" lon="-0.94206">
        <ele>98.4</ele>
        <time>2026-03-28T10:14:12.781Z</time>
      </trkpt>
      <trkpt lat="46.97938" lon="-0.9428">
        <ele>102.7</ele>
        <time>2026-03-28T10:14:34.204Z</time>
      </trkpt>
      <trkpt lat="46.97957" lon="-0.94281">
        <ele>104.1</ele>
        <time>2026-03-28T10:14:40.827Z</time>
      </trkpt>
      <trkpt lat="46.98014" lon="-0.94264">
        <ele>107.5</ele>
        <time>2026-03-28T10:14:57.344Z</time>
      </trkpt>
      <trkpt lat="46.98088" lon="-0.94221">
        <ele>111.2</ele>
        <time>2026-03-28T10:15:16.720Z</time>
      </trkpt>
      <trkpt lat="46.98101" lon="-0.94206">
        <ele>111.6</ele>
        <time>2026-03-28T10:15:19.815Z</time>
      </trkpt>
      <trkpt lat="46.98115" lon="-0.94177">
        <ele>112.8</ele>
        <time>2026-03-28T10:15:25.945Z</time>
      </trkpt>
      <trkpt lat="46.9813" lon="-0.94155">
        <ele>114.1</ele>
        <time>2026-03-28T10:15:32.199Z</time>
      </trkpt>
      <trkpt lat="46.98146" lon="-0.94142">
        <ele>115.1</ele>
        <time>2026-03-28T10:15:37.142Z</time>
      </trkpt>
      <trkpt lat="46.98172" lon="-0.9413">
        <ele>116.5</ele>
        <time>2026-03-28T10:15:44.200Z</time>
      </trkpt>
      <trkpt lat="46.98309" lon="-0.93932">
        <ele>122.1</ele>
        <time>2026-03-28T10:16:22.237Z</time>
      </trkpt>
      <trkpt lat="46.98334" lon="-0.93886">
        <ele>122.9</ele>
        <time>2026-03-28T10:16:29.402Z</time>
      </trkpt>
      <trkpt lat="46.98354" lon="-0.93827">
        <ele>123.5</ele>
        <time>2026-03-28T10:16:36.889Z</time>
      </trkpt>
      <trkpt lat="46.98354" lon="-0.93828">
        <ele>123.5</ele>
        <time>2026-03-28T10:16:36.988Z</time>
      </trkpt>
      <trkpt lat="46.98373" lon="-0.93771">
        <ele>125.9</ele>
        <time>2026-03-28T10:16:48.804Z</time>
      </trkpt>
      <trkpt lat="46.98454" lon="-0.93651">
        <ele>128</ele>
        <time>2026-03-28T10:17:08.997Z</time>
      </trkpt>
      <trkpt lat="46.98468" lon="-0.93618">
        <ele>129.5</ele>
        <time>2026-03-28T10:17:16.342Z</time>
      </trkpt>
      <trkpt lat="46.98469" lon="-0.93607">
        <ele>129.7</ele>
        <time>2026-03-28T10:17:17.794Z</time>
      </trkpt>
      <trkpt lat="46.98471" lon="-0.93602">
        <ele>129.9</ele>
        <time>2026-03-28T10:17:18.807Z</time>
      </trkpt>
      <trkpt lat="46.98477" lon="-0.93595">
        <ele>130.1</ele>
        <time>2026-03-28T10:17:20.273Z</time>
      </trkpt>
      <trkpt lat="46.98488" lon="-0.93594">
        <ele>130.2</ele>
        <time>2026-03-28T10:17:22.030Z</time>
      </trkpt>
      <trkpt lat="46.98507" lon="-0.93581">
        <ele>129.7</ele>
        <time>2026-03-28T10:17:24.510Z</time>
      </trkpt>
      <trkpt lat="46.98586" lon="-0.93489">
        <ele>130</ele>
        <time>2026-03-28T10:17:39.655Z</time>
      </trkpt>
      <trkpt lat="46.98658" lon="-0.93387">
        <ele>130</ele>
        <time>2026-03-28T10:17:54.261Z</time>
      </trkpt>
      <trkpt lat="46.9868" lon="-0.93327">
        <ele>129.5</ele>
        <time>2026-03-28T10:18:00.402Z</time>
      </trkpt>
      <trkpt lat="46.98682" lon="-0.93311">
        <ele>129.6</ele>
        <time>2026-03-28T10:18:02.171Z</time>
      </trkpt>
      <trkpt lat="46.98677" lon="-0.9329">
        <ele>129.4</ele>
        <time>2026-03-28T10:18:04.134Z</time>
      </trkpt>
      <trkpt lat="46.98686" lon="-0.93266">
        <ele>129.4</ele>
        <time>2026-03-28T10:18:06.859Z</time>
      </trkpt>
      <trkpt lat="46.98695" lon="-0.93261">
        <ele>129.4</ele>
        <time>2026-03-28T10:18:08.263Z</time>
      </trkpt>
      <trkpt lat="46.98701" lon="-0.93261">
        <ele>129.4</ele>
        <time>2026-03-28T10:18:09.138Z</time>
      </trkpt>
      <trkpt lat="46.9871" lon="-0.93268">
        <ele>129.6</ele>
        <time>2026-03-28T10:18:10.952Z</time>
      </trkpt>
      <trkpt lat="46.98738" lon="-0.93263">
        <ele>129.8</ele>
        <time>2026-03-28T10:18:15.361Z</time>
      </trkpt>
      <trkpt lat="46.98756" lon="-0.9325">
        <ele>129.8</ele>
        <time>2026-03-28T10:18:18.288Z</time>
      </trkpt>
      <trkpt lat="46.98862" lon="-0.93097">
        <ele>130</ele>
        <time>2026-03-28T10:18:40.269Z</time>
      </trkpt>
      <trkpt lat="46.98896" lon="-0.93053">
        <ele>131.1</ele>
        <time>2026-03-28T10:18:48.759Z</time>
      </trkpt>
      <trkpt lat="46.98924" lon="-0.93036">
        <ele>131.5</ele>
        <time>2026-03-28T10:18:53.799Z</time>
      </trkpt>
      <trkpt lat="46.99004" lon="-0.93015">
        <ele>132.4</ele>
        <time>2026-03-28T10:19:07.023Z</time>
      </trkpt>
      <trkpt lat="46.99018" lon="-0.93014">
        <ele>132.2</ele>
        <time>2026-03-28T10:19:08.819Z</time>
      </trkpt>
      <trkpt lat="46.99018" lon="-0.93008">
        <ele>132.3</ele>
        <time>2026-03-28T10:19:09.587Z</time>
      </trkpt>
      <trkpt lat="46.99022" lon="-0.93">
        <ele>132.2</ele>
        <time>2026-03-28T10:19:10.450Z</time>
      </trkpt>
      <trkpt lat="46.99029" lon="-0.92996">
        <ele>132</ele>
        <time>2026-03-28T10:19:11.319Z</time>
      </trkpt>
      <trkpt lat="46.98993" lon="-0.92755">
        <ele>134</ele>
        <time>2026-03-28T10:19:38.929Z</time>
      </trkpt>
      <trkpt lat="46.98989" lon="-0.92719">
        <ele>134</ele>
        <time>2026-03-28T10:19:42.558Z</time>
      </trkpt>
      <trkpt lat="46.98987" lon="-0.92689">
        <ele>134</ele>
        <time>2026-03-28T10:19:45.558Z</time>
      </trkpt>
      <trkpt lat="46.98989" lon="-0.92661">
        <ele>134</ele>
        <time>2026-03-28T10:19:48.359Z</time>
      </trkpt>
      <trkpt lat="46.99007" lon="-0.92548">
        <ele>135</ele>
        <time>2026-03-28T10:20:01.446Z</time>
      </trkpt>
      <trkpt lat="46.99174" lon="-0.91621">
        <ele>121.2</ele>
        <time>2026-03-28T10:21:20.556Z</time>
      </trkpt>
      <trkpt lat="46.99174" lon="-0.91622">
        <ele>121.2</ele>
        <time>2026-03-28T10:21:20.655Z</time>
      </trkpt>
      <trkpt lat="46.99217" lon="-0.91351">
        <ele>117.3</ele>
        <time>2026-03-28T10:21:43.717Z</time>
      </trkpt>
      <trkpt lat="46.99231" lon="-0.91304">
        <ele>117.3</ele>
        <time>2026-03-28T10:21:48.821Z</time>
      </trkpt>
      <trkpt lat="46.99247" lon="-0.91273">
        <ele>116.4</ele>
        <time>2026-03-28T10:21:51.718Z</time>
      </trkpt>
      <trkpt lat="46.99268" lon="-0.91244">
        <ele>116.9</ele>
        <time>2026-03-28T10:21:56.728Z</time>
      </trkpt>
      <trkpt lat="46.99368" lon="-0.91147">
        <ele>113.8</ele>
        <time>2026-03-28T10:22:10.682Z</time>
      </trkpt>
      <trkpt lat="46.99439" lon="-0.91073">
        <ele>113</ele>
        <time>2026-03-28T10:22:22.358Z</time>
      </trkpt>
      <trkpt lat="46.99453" lon="-0.91051">
        <ele>112.6</ele>
        <time>2026-03-28T10:22:24.873Z</time>
      </trkpt>
      <trkpt lat="46.99466" lon="-0.91018">
        <ele>113.1</ele>
        <time>2026-03-28T10:22:29.480Z</time>
      </trkpt>
      <trkpt lat="46.99481" lon="-0.9097">
        <ele>114</ele>
        <time>2026-03-28T10:22:36.277Z</time>
      </trkpt>
      <trkpt lat="46.9949" lon="-0.90918">
        <ele>115</ele>
        <time>2026-03-28T10:22:43.367Z</time>
      </trkpt>
      <trkpt lat="46.99494" lon="-0.90886">
        <ele>115.8</ele>
        <time>2026-03-28T10:22:48.123Z</time>
      </trkpt>
      <trkpt lat="46.99496" lon="-0.90842">
        <ele>116</ele>
        <time>2026-03-28T10:22:52.804Z</time>
      </trkpt>
      <trkpt lat="46.99491" lon="-0.90426">
        <ele>121.3</ele>
        <time>2026-03-28T10:23:42.798Z</time>
      </trkpt>
      <trkpt lat="46.99497" lon="-0.9039">
        <ele>122</ele>
        <time>2026-03-28T10:23:47.716Z</time>
      </trkpt>
      <trkpt lat="46.99508" lon="-0.90346">
        <ele>122</ele>
        <time>2026-03-28T10:23:52.379Z</time>
      </trkpt>
      <trkpt lat="46.99555" lon="-0.90177">
        <ele>123</ele>
        <time>2026-03-28T10:24:12.019Z</time>
      </trkpt>
      <trkpt lat="46.99561" lon="-0.90143">
        <ele>123</ele>
        <time>2026-03-28T10:24:15.514Z</time>
      </trkpt>
      <trkpt lat="46.9956" lon="-0.90106">
        <ele>123</ele>
        <time>2026-03-28T10:24:19.198Z</time>
      </trkpt>
      <trkpt lat="46.99536" lon="-0.89906">
        <ele>125</ele>
        <time>2026-03-28T10:24:42.530Z</time>
      </trkpt>
      <trkpt lat="46.99543" lon="-0.89839">
        <ele>125</ele>
        <time>2026-03-28T10:24:49.274Z</time>
      </trkpt>
      <trkpt lat="46.99553" lon="-0.89785">
        <ele>124.3</ele>
        <time>2026-03-28T10:24:53.998Z</time>
      </trkpt>
      <trkpt lat="46.99575" lon="-0.89701">
        <ele>124.8</ele>
        <time>2026-03-28T10:25:03.693Z</time>
      </trkpt>
      <trkpt lat="46.99612" lon="-0.89516">
        <ele>126</ele>
        <time>2026-03-28T10:25:24.668Z</time>
      </trkpt>
      <trkpt lat="46.99629" lon="-0.89446">
        <ele>128</ele>
        <time>2026-03-28T10:25:35.984Z</time>
      </trkpt>
      <trkpt lat="46.9963" lon="-0.89432">
        <ele>128.4</ele>
        <time>2026-03-28T10:25:38.186Z</time>
      </trkpt>
      <trkpt lat="46.99583" lon="-0.89368">
        <ele>129.7</ele>
        <time>2026-03-28T10:25:49.681Z</time>
      </trkpt>
      <trkpt lat="46.99575" lon="-0.89353">
        <ele>130</ele>
        <time>2026-03-28T10:25:52.082Z</time>
      </trkpt>
      <trkpt lat="46.99554" lon="-0.89312">
        <ele>130.8</ele>
        <time>2026-03-28T10:25:58.530Z</time>
      </trkpt>
      <trkpt lat="46.99547" lon="-0.89288">
        <ele>131.6</ele>
        <time>2026-03-28T10:26:02.781Z</time>
      </trkpt>
      <trkpt lat="46.99574" lon="-0.89276">
        <ele>133.3</ele>
        <time>2026-03-28T10:26:10.985Z</time>
      </trkpt>
      <trkpt lat="46.99603" lon="-0.89268">
        <ele>135.7</ele>
        <time>2026-03-28T10:26:22.400Z</time>
      </trkpt>
      <trkpt lat="46.99651" lon="-0.89272">
        <ele>138.9</ele>
        <time>2026-03-28T10:26:37.612Z</time>
      </trkpt>
      <trkpt lat="46.99683" lon="-0.89268">
        <ele>140</ele>
        <time>2026-03-28T10:26:44.351Z</time>
      </trkpt>
      <trkpt lat="46.99703" lon="-0.89259">
        <ele>140.2</ele>
        <time>2026-03-28T10:26:47.703Z</time>
      </trkpt>
      <trkpt lat="46.99719" lon="-0.89243">
        <ele>141.1</ele>
        <time>2026-03-28T10:26:52.417Z</time>
      </trkpt>
      <trkpt lat="46.99717" lon="-0.89236">
        <ele>141.3</ele>
        <time>2026-03-28T10:26:53.561Z</time>
      </trkpt>
      <trkpt lat="46.99717" lon="-0.89228">
        <ele>141.6</ele>
        <time>2026-03-28T10:26:55.041Z</time>
      </trkpt>
      <trkpt lat="46.9972" lon="-0.89222">
        <ele>141.9</ele>
        <time>2026-03-28T10:26:56.495Z</time>
      </trkpt>
      <trkpt lat="46.99724" lon="-0.89218">
        <ele>142</ele>
        <time>2026-03-28T10:26:57.366Z</time>
      </trkpt>
      <trkpt lat="46.99718" lon="-0.89195">
        <ele>141.8</ele>
        <time>2026-03-28T10:26:59.564Z</time>
      </trkpt>
      <trkpt lat="46.99687" lon="-0.891">
        <ele>141.6</ele>
        <time>2026-03-28T10:27:09.771Z</time>
      </trkpt>
      <trkpt lat="46.99689" lon="-0.89004">
        <ele>144.3</ele>
        <time>2026-03-28T10:27:24.711Z</time>
      </trkpt>
      <trkpt lat="46.99694" lon="-0.88977">
        <ele>145</ele>
        <time>2026-03-28T10:27:28.832Z</time>
      </trkpt>
      <trkpt lat="46.99714" lon="-0.88915">
        <ele>147.8</ele>
        <time>2026-03-28T10:27:42.364Z</time>
      </trkpt>
      <trkpt lat="46.99727" lon="-0.88855">
        <ele>150.4</ele>
        <time>2026-03-28T10:27:54.900Z</time>
      </trkpt>
      <trkpt lat="46.99737" lon="-0.88692">
        <ele>161.3</ele>
        <time>2026-03-28T10:28:48.343Z</time>
      </trkpt>
      <trkpt lat="46.99748" lon="-0.88616">
        <ele>165.5</ele>
        <time>2026-03-28T10:29:08.272Z</time>
      </trkpt>
      <trkpt lat="46.99758" lon="-0.88446">
        <ele>170.3</ele>
        <time>2026-03-28T10:29:34.825Z</time>
      </trkpt>
      <trkpt lat="46.99757" lon="-0.88428">
        <ele>169.8</ele>
        <time>2026-03-28T10:29:36.106Z</time>
      </trkpt>
      <trkpt lat="46.99753" lon="-0.88411">
        <ele>169.2</ele>
        <time>2026-03-28T10:29:37.309Z</time>
      </trkpt>
      <trkpt lat="46.99731" lon="-0.88367">
        <ele>167.6</ele>
        <time>2026-03-28T10:29:41.113Z</time>
      </trkpt>
      <trkpt lat="46.99703" lon="-0.883">
        <ele>164.4</ele>
        <time>2026-03-28T10:29:46.011Z</time>
      </trkpt>
      <trkpt lat="46.99663" lon="-0.88186">
        <ele>165.2</ele>
        <time>2026-03-28T10:29:59.963Z</time>
      </trkpt>
      <trkpt lat="46.9971" lon="-0.88125">
        <ele>163.2</ele>
        <time>2026-03-28T10:30:06.931Z</time>
      </trkpt>
      <trkpt lat="46.9974" lon="-0.88068">
        <ele>159.8</ele>
        <time>2026-03-28T10:30:11.229Z</time>
      </trkpt>
      <trkpt lat="46.99769" lon="-0.88006">
        <ele>157.7</ele>
        <time>2026-03-28T10:30:16.549Z</time>
      </trkpt>
      <trkpt lat="46.9979" lon="-0.87972">
        <ele>156</ele>
        <time>2026-03-28T10:30:19.509Z</time>
      </trkpt>
      <trkpt lat="46.99883" lon="-0.87863">
        <ele>151</ele>
        <time>2026-03-28T10:30:31.769Z</time>
      </trkpt>
      <trkpt lat="46.99902" lon="-0.87834">
        <ele>149.5</ele>
        <time>2026-03-28T10:30:34.358Z</time>
      </trkpt>
      <trkpt lat="46.99938" lon="-0.87749">
        <ele>149</ele>
        <time>2026-03-28T10:30:43.658Z</time>
      </trkpt>
      <trkpt lat="46.99967" lon="-0.87663">
        <ele>148.3</ele>
        <time>2026-03-28T10:30:52.310Z</time>
      </trkpt>
      <trkpt lat="47.00004" lon="-0.87539">
        <ele>147.9</ele>
        <time>2026-03-28T10:31:05.240Z</time>
      </trkpt>
      <trkpt lat="47.00082" lon="-0.873">
        <ele>147</ele>
        <time>2026-03-28T10:31:30.400Z</time>
      </trkpt>
      <trkpt lat="47.00105" lon="-0.87236">
        <ele>146.6</ele>
        <time>2026-03-28T10:31:37.076Z</time>
      </trkpt>
      <trkpt lat="47.00131" lon="-0.87169">
        <ele>146</ele>
        <time>2026-03-28T10:31:43.984Z</time>
      </trkpt>
      <trkpt lat="47.00167" lon="-0.87092">
        <ele>145.7</ele>
        <time>2026-03-28T10:31:52.871Z</time>
      </trkpt>
      <trkpt lat="47.00244" lon="-0.86961">
        <ele>145</ele>
        <time>2026-03-28T10:32:09.150Z</time>
      </trkpt>
      <trkpt lat="47.00291" lon="-0.86886">
        <ele>144.6</ele>
        <time>2026-03-28T10:32:18.753Z</time>
      </trkpt>
      <trkpt lat="47.00311" lon="-0.86847">
        <ele>144.8</ele>
        <time>2026-03-28T10:32:23.899Z</time>
      </trkpt>
      <trkpt lat="47.00333" lon="-0.86799">
        <ele>146</ele>
        <time>2026-03-28T10:32:31.815Z</time>
      </trkpt>
      <trkpt lat="47.00348" lon="-0.86761">
        <ele>146</ele>
        <time>2026-03-28T10:32:36.183Z</time>
      </trkpt>
      <trkpt lat="47.00373" lon="-0.86685">
        <ele>145.5</ele>
        <time>2026-03-28T10:32:43.930Z</time>
      </trkpt>
      <trkpt lat="47.0039" lon="-0.86619">
        <ele>144.5</ele>
        <time>2026-03-28T10:32:49.765Z</time>
      </trkpt>
      <trkpt lat="47.00397" lon="-0.8658">
        <ele>144.7</ele>
        <time>2026-03-28T10:32:54.071Z</time>
      </trkpt>
      <trkpt lat="47.00408" lon="-0.86486">
        <ele>143.8</ele>
        <time>2026-03-28T10:33:02.438Z</time>
      </trkpt>
      <trkpt lat="47.00412" lon="-0.86387">
        <ele>141.2</ele>
        <time>2026-03-28T10:33:09.584Z</time>
      </trkpt>
      <trkpt lat="47.00412" lon="-0.86322">
        <ele>140.8</ele>
        <time>2026-03-28T10:33:15.533Z</time>
      </trkpt>
      <trkpt lat="47.00408" lon="-0.86256">
        <ele>140.3</ele>
        <time>2026-03-28T10:33:21.489Z</time>
      </trkpt>
      <trkpt lat="47.00408" lon="-0.86174">
        <ele>139.3</ele>
        <time>2026-03-28T10:33:28.437Z</time>
      </trkpt>
      <trkpt lat="47.0041" lon="-0.86003">
        <ele>137.2</ele>
        <time>2026-03-28T10:33:42.915Z</time>
      </trkpt>
      <trkpt lat="47.00418" lon="-0.85899">
        <ele>136</ele>
        <time>2026-03-28T10:33:51.864Z</time>
      </trkpt>
      <trkpt lat="47.00421" lon="-0.85848">
        <ele>134.9</ele>
        <time>2026-03-28T10:33:55.750Z</time>
      </trkpt>
      <trkpt lat="47.00422" lon="-0.85782">
        <ele>134.1</ele>
        <time>2026-03-28T10:34:01.350Z</time>
      </trkpt>
      <trkpt lat="47.00431" lon="-0.8573">
        <ele>133.9</ele>
        <time>2026-03-28T10:34:06.421Z</time>
      </trkpt>
      <trkpt lat="47.00451" lon="-0.85653">
        <ele>133.4</ele>
        <time>2026-03-28T10:34:13.971Z</time>
      </trkpt>
      <trkpt lat="47.00455" lon="-0.85623">
        <ele>133</ele>
        <time>2026-03-28T10:34:16.533Z</time>
      </trkpt>
      <trkpt lat="47.00455" lon="-0.85607">
        <ele>133</ele>
        <time>2026-03-28T10:34:18.125Z</time>
      </trkpt>
      <trkpt lat="47.00455" lon="-0.85608">
        <ele>133</ele>
        <time>2026-03-28T10:34:18.225Z</time>
      </trkpt>
      <trkpt lat="47.00456" lon="-0.85582">
        <ele>133</ele>
        <time>2026-03-28T10:34:20.815Z</time>
      </trkpt>
      <trkpt lat="47.00453" lon="-0.8557">
        <ele>133</ele>
        <time>2026-03-28T10:34:22.087Z</time>
      </trkpt>
      <trkpt lat="47.00452" lon="-0.85571">
        <ele>133</ele>
        <time>2026-03-28T10:34:22.263Z</time>
      </trkpt>
      <trkpt lat="47.00448" lon="-0.85567">
        <ele>133</ele>
        <time>2026-03-28T10:34:22.970Z</time>
      </trkpt>
      <trkpt lat="47.00447" lon="-0.8556">
        <ele>133</ele>
        <time>2026-03-28T10:34:23.681Z</time>
      </trkpt>
      <trkpt lat="47.0045" lon="-0.85555">
        <ele>133</ele>
        <time>2026-03-28T10:34:24.344Z</time>
      </trkpt>
      <trkpt lat="47.00454" lon="-0.85554">
        <ele>133</ele>
        <time>2026-03-28T10:34:24.935Z</time>
      </trkpt>
      <trkpt lat="47.00458" lon="-0.85545">
        <ele>133</ele>
        <time>2026-03-28T10:34:26.004Z</time>
      </trkpt>
      <trkpt lat="47.00463" lon="-0.85441">
        <ele>133</ele>
        <time>2026-03-28T10:34:36.376Z</time>
      </trkpt>
      <trkpt lat="47.00467" lon="-0.85406">
        <ele>132.5</ele>
        <time>2026-03-28T10:34:39.314Z</time>
      </trkpt>
      <trkpt lat="47.00481" lon="-0.85314">
        <ele>130.2</ele>
        <time>2026-03-28T10:34:46.242Z</time>
      </trkpt>
      <trkpt lat="47.00486" lon="-0.8527">
        <ele>128.6</ele>
        <time>2026-03-28T10:34:49.153Z</time>
      </trkpt>
      <trkpt lat="47.00488" lon="-0.85229">
        <ele>126.7</ele>
        <time>2026-03-28T10:34:51.606Z</time>
      </trkpt>
      <trkpt lat="47.00499" lon="-0.85191">
        <ele>125.9</ele>
        <time>2026-03-28T10:34:54.816Z</time>
      </trkpt>
      <trkpt lat="47.00488" lon="-0.8518">
        <ele>125.7</ele>
        <time>2026-03-28T10:34:56.512Z</time>
      </trkpt>
      <trkpt lat="47.00474" lon="-0.85152">
        <ele>124.5</ele>
        <time>2026-03-28T10:34:58.807Z</time>
      </trkpt>
      <trkpt lat="47.00466" lon="-0.85114">
        <ele>124</ele>
        <time>2026-03-28T10:35:02.161Z</time>
      </trkpt>
      <trkpt lat="47.00463" lon="-0.85097">
        <ele>123.5</ele>
        <time>2026-03-28T10:35:03.397Z</time>
      </trkpt>
      <trkpt lat="47.00463" lon="-0.85081">
        <ele>122.9</ele>
        <time>2026-03-28T10:35:04.424Z</time>
      </trkpt>
      <trkpt lat="47.0045" lon="-0.85061">
        <ele>122.2</ele>
        <time>2026-03-28T10:35:06.434Z</time>
      </trkpt>
      <trkpt lat="47.00417" lon="-0.85024">
        <ele>121</ele>
        <time>2026-03-28T10:35:11.154Z</time>
      </trkpt>
      <trkpt lat="47.00352" lon="-0.84953">
        <ele>117.9</ele>
        <time>2026-03-28T10:35:19.730Z</time>
      </trkpt>
      <trkpt lat="47.00304" lon="-0.84909">
        <ele>117</ele>
        <time>2026-03-28T10:35:26.884Z</time>
      </trkpt>
      <trkpt lat="47.0028" lon="-0.84899">
        <ele>117.6</ele>
        <time>2026-03-28T10:35:31.544Z</time>
      </trkpt>
      <trkpt lat="47.00204" lon="-0.84846">
        <ele>119.5</ele>
        <time>2026-03-28T10:35:47.010Z</time>
      </trkpt>
      <trkpt lat="47.00195" lon="-0.84856">
        <ele>119.2</ele>
        <time>2026-03-28T10:35:48.317Z</time>
      </trkpt>
      <trkpt lat="47.00182" lon="-0.84853">
        <ele>118.8</ele>
        <time>2026-03-28T10:35:49.795Z</time>
      </trkpt>
      <trkpt lat="47.00176" lon="-0.84837">
        <ele>119.2</ele>
        <time>2026-03-28T10:35:52.343Z</time>
      </trkpt>
      <trkpt lat="47.0018" lon="-0.84821">
        <ele>119.7</ele>
        <time>2026-03-28T10:35:55.053Z</time>
      </trkpt>
      <trkpt lat="47.00139" lon="-0.84775">
        <ele>120.1</ele>
        <time>2026-03-28T10:36:03.176Z</time>
      </trkpt>
      <trkpt lat="47.00097" lon="-0.84724">
        <ele>120.9</ele>
        <time>2026-03-28T10:36:12.384Z</time>
      </trkpt>
      <trkpt lat="47.00064" lon="-0.84678">
        <ele>123</ele>
        <time>2026-03-28T10:36:23.418Z</time>
      </trkpt>
      <trkpt lat="47.0002" lon="-0.84634">
        <ele>125.7</ele>
        <time>2026-03-28T10:36:37.092Z</time>
      </trkpt>
      <trkpt lat="46.99915" lon="-0.84537">
        <ele>132</ele>
        <time>2026-03-28T10:37:08.983Z</time>
      </trkpt>
      <trkpt lat="46.99844" lon="-0.84443">
        <ele>135.6</ele>
        <time>2026-03-28T10:37:29.877Z</time>
      </trkpt>
      <trkpt lat="46.99755" lon="-0.84332">
        <ele>139.8</ele>
        <time>2026-03-28T10:37:54.889Z</time>
      </trkpt>
      <trkpt lat="46.99689" lon="-0.84245">
        <ele>144.2</ele>
        <time>2026-03-28T10:38:17.354Z</time>
      </trkpt>
      <trkpt lat="46.99637" lon="-0.84184">
        <ele>146.3</ele>
        <time>2026-03-28T10:38:30.892Z</time>
      </trkpt>
      <trkpt lat="46.99602" lon="-0.84125">
        <ele>149.2</ele>
        <time>2026-03-28T10:38:45.250Z</time>
      </trkpt>
      <trkpt lat="46.99552" lon="-0.84019">
        <ele>153</ele>
        <time>2026-03-28T10:39:05.800Z</time>
      </trkpt>
      <trkpt lat="46.99534" lon="-0.83968">
        <ele>154</ele>
        <time>2026-03-28T10:39:13.237Z</time>
      </trkpt>
      <trkpt lat="46.99521" lon="-0.83916">
        <ele>154</ele>
        <time>2026-03-28T10:39:18.747Z</time>
      </trkpt>
      <trkpt lat="46.99509" lon="-0.83863">
        <ele>154</ele>
        <time>2026-03-28T10:39:24.304Z</time>
      </trkpt>
      <trkpt lat="46.99482" lon="-0.83673">
        <ele>147</ele>
        <time>2026-03-28T10:39:36.949Z</time>
      </trkpt>
      <trkpt lat="46.99476" lon="-0.83647">
        <ele>145.3</ele>
        <time>2026-03-28T10:39:38.588Z</time>
      </trkpt>
      <trkpt lat="46.99467" lon="-0.83624">
        <ele>144</ele>
        <time>2026-03-28T10:39:40.171Z</time>
      </trkpt>
      <trkpt lat="46.99443" lon="-0.83588">
        <ele>142.2</ele>
        <time>2026-03-28T10:39:43.460Z</time>
      </trkpt>
      <trkpt lat="46.99264" lon="-0.83339">
        <ele>152.8</ele>
        <time>2026-03-28T10:40:40.953Z</time>
      </trkpt>
      <trkpt lat="46.99252" lon="-0.83321">
        <ele>153.9</ele>
        <time>2026-03-28T10:40:46.207Z</time>
      </trkpt>
      <trkpt lat="46.99244" lon="-0.83299">
        <ele>155</ele>
        <time>2026-03-28T10:40:51.453Z</time>
      </trkpt>
      <trkpt lat="46.99209" lon="-0.83183">
        <ele>154.7</ele>
        <time>2026-03-28T10:41:03.670Z</time>
      </trkpt>
      <trkpt lat="46.99199" lon="-0.8316">
        <ele>153.4</ele>
        <time>2026-03-28T10:41:05.298Z</time>
      </trkpt>
      <trkpt lat="46.99187" lon="-0.83143">
        <ele>152.6</ele>
        <time>2026-03-28T10:41:06.947Z</time>
      </trkpt>
      <trkpt lat="46.99109" lon="-0.83064">
        <ele>152.4</ele>
        <time>2026-03-28T10:41:20.504Z</time>
      </trkpt>
      <trkpt lat="46.99048" lon="-0.8301">
        <ele>152.6</ele>
        <time>2026-03-28T10:41:31.183Z</time>
      </trkpt>
      <trkpt lat="46.99016" lon="-0.82969">
        <ele>152.4</ele>
        <time>2026-03-28T10:41:37.115Z</time>
      </trkpt>
      <trkpt lat="46.98946" lon="-0.82871">
        <ele>150.4</ele>
        <time>2026-03-28T10:41:48.866Z</time>
      </trkpt>
      <trkpt lat="46.98937" lon="-0.82855">
        <ele>149.5</ele>
        <time>2026-03-28T10:41:50.128Z</time>
      </trkpt>
      <trkpt lat="46.9893" lon="-0.82839">
        <ele>149</ele>
        <time>2026-03-28T10:41:51.497Z</time>
      </trkpt>
      <trkpt lat="46.98911" lon="-0.82777">
        <ele>146.6</ele>
        <time>2026-03-28T10:41:55.959Z</time>
      </trkpt>
      <trkpt lat="46.98901" lon="-0.82754">
        <ele>145.5</ele>
        <time>2026-03-28T10:41:57.665Z</time>
      </trkpt>
      <trkpt lat="46.98865" lon="-0.82697">
        <ele>145.7</ele>
        <time>2026-03-28T10:42:05.681Z</time>
      </trkpt>
      <trkpt lat="46.98848" lon="-0.82675">
        <ele>146.5</ele>
        <time>2026-03-28T10:42:10.498Z</time>
      </trkpt>
      <trkpt lat="46.98795" lon="-0.82629">
        <ele>149.6</ele>
        <time>2026-03-28T10:42:26.238Z</time>
      </trkpt>
      <trkpt lat="46.98733" lon="-0.82579">
        <ele>150.4</ele>
        <time>2026-03-28T10:42:37.779Z</time>
      </trkpt>
      <trkpt lat="46.98712" lon="-0.82557">
        <ele>149.6</ele>
        <time>2026-03-28T10:42:40.664Z</time>
      </trkpt>
      <trkpt lat="46.98661" lon="-0.82497">
        <ele>146.6</ele>
        <time>2026-03-28T10:42:47.215Z</time>
      </trkpt>
      <trkpt lat="46.98643" lon="-0.82481">
        <ele>145.4</ele>
        <time>2026-03-28T10:42:49.173Z</time>
      </trkpt>
      <trkpt lat="46.98643" lon="-0.8248">
        <ele>145.3</ele>
        <time>2026-03-28T10:42:49.232Z</time>
      </trkpt>
      <trkpt lat="46.98544" lon="-0.82409">
        <ele>146.6</ele>
        <time>2026-03-28T10:43:07.297Z</time>
      </trkpt>
      <trkpt lat="46.98524" lon="-0.82388">
        <ele>147.9</ele>
        <time>2026-03-28T10:43:13.790Z</time>
      </trkpt>
      <trkpt lat="46.98504" lon="-0.82363">
        <ele>148.9</ele>
        <time>2026-03-28T10:43:19.560Z</time>
      </trkpt>
      <trkpt lat="46.98486" lon="-0.82336">
        <ele>150.4</ele>
        <time>2026-03-28T10:43:26.853Z</time>
      </trkpt>
      <trkpt lat="46.98366" lon="-0.82054">
        <ele>160.6</ele>
        <time>2026-03-28T10:44:21.024Z</time>
      </trkpt>
      <trkpt lat="46.9834" lon="-0.81984">
        <ele>162.3</ele>
        <time>2026-03-28T10:44:32.044Z</time>
      </trkpt>
      <trkpt lat="46.98325" lon="-0.81948">
        <ele>164.8</ele>
        <time>2026-03-28T10:44:44.038Z</time>
      </trkpt>
      <trkpt lat="46.98262" lon="-0.81806">
        <ele>172.6</ele>
        <time>2026-03-28T10:45:21.069Z</time>
      </trkpt>
      <trkpt lat="46.98246" lon="-0.81775">
        <ele>174.1</ele>
        <time>2026-03-28T10:45:28.414Z</time>
      </trkpt>
      <trkpt lat="46.98191" lon="-0.81689">
        <ele>174.8</ele>
        <time>2026-03-28T10:45:41.189Z</time>
      </trkpt>
      <trkpt lat="46.98181" lon="-0.81674">
        <ele>174.6</ele>
        <time>2026-03-28T10:45:43.027Z</time>
      </trkpt>
      <trkpt lat="46.98168" lon="-0.81662">
        <ele>174.8</ele>
        <time>2026-03-28T10:45:45.577Z</time>
      </trkpt>
      <trkpt lat="46.98152" lon="-0.81649">
        <ele>174.7</ele>
        <time>2026-03-28T10:45:48.113Z</time>
      </trkpt>
      <trkpt lat="46.98043" lon="-0.81588">
        <ele>172.5</ele>
        <time>2026-03-28T10:46:02.493Z</time>
      </trkpt>
      <trkpt lat="46.98029" lon="-0.81576">
        <ele>171.8</ele>
        <time>2026-03-28T10:46:04.149Z</time>
      </trkpt>
      <trkpt lat="46.98018" lon="-0.81564">
        <ele>171</ele>
        <time>2026-03-28T10:46:05.413Z</time>
      </trkpt>
      <trkpt lat="46.9801" lon="-0.81541">
        <ele>170.4</ele>
        <time>2026-03-28T10:46:07.336Z</time>
      </trkpt>
      <trkpt lat="46.97962" lon="-0.81356">
        <ele>167.1</ele>
        <time>2026-03-28T10:46:23.231Z</time>
      </trkpt>
      <trkpt lat="46.97954" lon="-0.81338">
        <ele>166.4</ele>
        <time>2026-03-28T10:46:24.680Z</time>
      </trkpt>
      <trkpt lat="46.97913" lon="-0.81262">
        <ele>165.9</ele>
        <time>2026-03-28T10:46:33.670Z</time>
      </trkpt>
      <trkpt lat="46.97891" lon="-0.81228">
        <ele>165.8</ele>
        <time>2026-03-28T10:46:38.198Z</time>
      </trkpt>
      <trkpt lat="46.97849" lon="-0.81174">
        <ele>165.4</ele>
        <time>2026-03-28T10:46:45.824Z</time>
      </trkpt>
      <trkpt lat="46.9781" lon="-0.81132">
        <ele>165.2</ele>
        <time>2026-03-28T10:46:52.616Z</time>
      </trkpt>
      <trkpt lat="46.97787" lon="-0.81112">
        <ele>165</ele>
        <time>2026-03-28T10:46:56.256Z</time>
      </trkpt>
      <trkpt lat="46.97731" lon="-0.81075">
        <ele>162.8</ele>
        <time>2026-03-28T10:47:02.874Z</time>
      </trkpt>
      <trkpt lat="46.97706" lon="-0.81053">
        <ele>161.3</ele>
        <time>2026-03-28T10:47:05.686Z</time>
      </trkpt>
      <trkpt lat="46.97685" lon="-0.81023">
        <ele>159.7</ele>
        <time>2026-03-28T10:47:08.457Z</time>
      </trkpt>
      <trkpt lat="46.97665" lon="-0.80979">
        <ele>158.2</ele>
        <time>2026-03-28T10:47:12.182Z</time>
      </trkpt>
      <trkpt lat="46.97641" lon="-0.80936">
        <ele>156.4</ele>
        <time>2026-03-28T10:47:15.938Z</time>
      </trkpt>
      <trkpt lat="46.97569" lon="-0.8083">
        <ele>153.5</ele>
        <time>2026-03-28T10:47:27.575Z</time>
      </trkpt>
      <trkpt lat="46.9748" lon="-0.80715">
        <ele>154.5</ele>
        <time>2026-03-28T10:47:46.370Z</time>
      </trkpt>
      <trkpt lat="46.97404" lon="-0.80626">
        <ele>153.3</ele>
        <time>2026-03-28T10:47:59.049Z</time>
      </trkpt>
      <trkpt lat="46.973" lon="-0.80519">
        <ele>152.5</ele>
        <time>2026-03-28T10:48:16.530Z</time>
      </trkpt>
      <trkpt lat="46.9724" lon="-0.80446">
        <ele>150.7</ele>
        <time>2026-03-28T10:48:25.811Z</time>
      </trkpt>
      <trkpt lat="46.97202" lon="-0.80409">
        <ele>149</ele>
        <time>2026-03-28T10:48:30.674Z</time>
      </trkpt>
      <trkpt lat="46.9715" lon="-0.80355">
        <ele>146.4</ele>
        <time>2026-03-28T10:48:37.293Z</time>
      </trkpt>
      <trkpt lat="46.97078" lon="-0.80303">
        <ele>144</ele>
        <time>2026-03-28T10:48:46.341Z</time>
      </trkpt>
      <trkpt lat="46.97052" lon="-0.80282">
        <ele>143.9</ele>
        <time>2026-03-28T10:48:50.536Z</time>
      </trkpt>
      <trkpt lat="46.97033" lon="-0.8026">
        <ele>143.1</ele>
        <time>2026-03-28T10:48:53.201Z</time>
      </trkpt>
      <trkpt lat="46.97018" lon="-0.80237">
        <ele>142.9</ele>
        <time>2026-03-28T10:48:56.110Z</time>
      </trkpt>
      <trkpt lat="46.96959" lon="-0.80123">
        <ele>141</ele>
        <time>2026-03-28T10:49:08.082Z</time>
      </trkpt>
      <trkpt lat="46.9694" lon="-0.80098">
        <ele>141.8</ele>
        <time>2026-03-28T10:49:13.261Z</time>
      </trkpt>
      <trkpt lat="46.96924" lon="-0.80082">
        <ele>141.3</ele>
        <time>2026-03-28T10:49:15.516Z</time>
      </trkpt>
      <trkpt lat="46.96889" lon="-0.8006">
        <ele>140.3</ele>
        <time>2026-03-28T10:49:19.934Z</time>
      </trkpt>
      <trkpt lat="46.96854" lon="-0.80054">
        <ele>137.9</ele>
        <time>2026-03-28T10:49:23.018Z</time>
      </trkpt>
      <trkpt lat="46.96783" lon="-0.80054">
        <ele>137.3</ele>
        <time>2026-03-28T10:49:32.597Z</time>
      </trkpt>
      <trkpt lat="46.96724" lon="-0.80057">
        <ele>137.1</ele>
        <time>2026-03-28T10:49:40.939Z</time>
      </trkpt>
      <trkpt lat="46.96681" lon="-0.80055">
        <ele>138.1</ele>
        <time>2026-03-28T10:49:48.903Z</time>
      </trkpt>
      <trkpt lat="46.96526" lon="-0.80028">
        <ele>135.8</ele>
        <time>2026-03-28T10:50:08.828Z</time>
      </trkpt>
      <trkpt lat="46.96508" lon="-0.80021">
        <ele>134.2</ele>
        <time>2026-03-28T10:50:10.458Z</time>
      </trkpt>
      <trkpt lat="46.96491" lon="-0.80007">
        <ele>132.7</ele>
        <time>2026-03-28T10:50:12.165Z</time>
      </trkpt>
      <trkpt lat="46.96452" lon="-0.79965">
        <ele>129.3</ele>
        <time>2026-03-28T10:50:16.401Z</time>
      </trkpt>
      <trkpt lat="46.96444" lon="-0.79961">
        <ele>128.3</ele>
        <time>2026-03-28T10:50:17.141Z</time>
      </trkpt>
      <trkpt lat="46.96434" lon="-0.79961">
        <ele>127.1</ele>
        <time>2026-03-28T10:50:18.016Z</time>
      </trkpt>
      <trkpt lat="46.96424" lon="-0.79967">
        <ele>125.8</ele>
        <time>2026-03-28T10:50:18.962Z</time>
      </trkpt>
      <trkpt lat="46.96412" lon="-0.79984">
        <ele>124.6</ele>
        <time>2026-03-28T10:50:20.423Z</time>
      </trkpt>
      <trkpt lat="46.96401" lon="-0.79996">
        <ele>125</ele>
        <time>2026-03-28T10:50:23.136Z</time>
      </trkpt>
      <trkpt lat="46.96386" lon="-0.79999">
        <ele>125.9</ele>
        <time>2026-03-28T10:50:27.492Z</time>
      </trkpt>
      <trkpt lat="46.96377" lon="-0.79996">
        <ele>125.7</ele>
        <time>2026-03-28T10:50:28.603Z</time>
      </trkpt>
      <trkpt lat="46.96361" lon="-0.79986">
        <ele>125</ele>
        <time>2026-03-28T10:50:30.417Z</time>
      </trkpt>
      <trkpt lat="46.9635" lon="-0.79972">
        <ele>126.4</ele>
        <time>2026-03-28T10:50:37.259Z</time>
      </trkpt>
      <trkpt lat="46.96313" lon="-0.79918">
        <ele>127.3</ele>
        <time>2026-03-28T10:50:46.319Z</time>
      </trkpt>
      <trkpt lat="46.963" lon="-0.79906">
        <ele>127.6</ele>
        <time>2026-03-28T10:50:49.051Z</time>
      </trkpt>
      <trkpt lat="46.96273" lon="-0.7989">
        <ele>128.4</ele>
        <time>2026-03-28T10:50:54.703Z</time>
      </trkpt>
      <trkpt lat="46.96257" lon="-0.79886">
        <ele>129.4</ele>
        <time>2026-03-28T10:50:59.508Z</time>
      </trkpt>
      <trkpt lat="46.96239" lon="-0.79885">
        <ele>130.3</ele>
        <time>2026-03-28T10:51:04.090Z</time>
      </trkpt>
      <trkpt lat="46.96203" lon="-0.79889">
        <ele>131.7</ele>
        <time>2026-03-28T10:51:12.085Z</time>
      </trkpt>
      <trkpt lat="46.96124" lon="-0.79917">
        <ele>134.5</ele>
        <time>2026-03-28T10:51:29.180Z</time>
      </trkpt>
      <trkpt lat="46.96104" lon="-0.79921">
        <ele>135.5</ele>
        <time>2026-03-28T10:51:34.286Z</time>
      </trkpt>
      <trkpt lat="46.96048" lon="-0.79923">
        <ele>137.5</ele>
        <time>2026-03-28T10:51:46.244Z</time>
      </trkpt>
      <trkpt lat="46.95965" lon="-0.79906">
        <ele>141.1</ele>
        <time>2026-03-28T10:52:05.770Z</time>
      </trkpt>
      <trkpt lat="46.9593" lon="-0.79877">
        <ele>142.6</ele>
        <time>2026-03-28T10:52:14.518Z</time>
      </trkpt>
      <trkpt lat="46.95878" lon="-0.79818">
        <ele>146</ele>
        <time>2026-03-28T10:52:31.622Z</time>
      </trkpt>
      <trkpt lat="46.95839" lon="-0.79792">
        <ele>149</ele>
        <time>2026-03-28T10:52:45.829Z</time>
      </trkpt>
      <trkpt lat="46.95801" lon="-0.79773">
        <ele>151</ele>
        <time>2026-03-28T10:52:56.022Z</time>
      </trkpt>
      <trkpt lat="46.95696" lon="-0.79755">
        <ele>151.2</ele>
        <time>2026-03-28T10:53:11.726Z</time>
      </trkpt>
      <trkpt lat="46.95596" lon="-0.79631">
        <ele>148</ele>
        <time>2026-03-28T10:53:27.148Z</time>
      </trkpt>
      <trkpt lat="46.95562" lon="-0.79606">
        <ele>147.6</ele>
        <time>2026-03-28T10:53:32.187Z</time>
      </trkpt>
      <trkpt lat="46.95545" lon="-0.79594">
        <ele>147.8</ele>
        <time>2026-03-28T10:53:35.242Z</time>
      </trkpt>
      <trkpt lat="46.95521" lon="-0.7957">
        <ele>147.9</ele>
        <time>2026-03-28T10:53:39.624Z</time>
      </trkpt>
      <trkpt lat="46.95508" lon="-0.79566">
        <ele>148.5</ele>
        <time>2026-03-28T10:53:42.805Z</time>
      </trkpt>
      <trkpt lat="46.95481" lon="-0.79525">
        <ele>148.6</ele>
        <time>2026-03-28T10:53:48.619Z</time>
      </trkpt>
      <trkpt lat="46.95434" lon="-0.79428">
        <ele>145.4</ele>
        <time>2026-03-28T10:53:57.138Z</time>
      </trkpt>
      <trkpt lat="46.95385" lon="-0.79444">
        <ele>145</ele>
        <time>2026-03-28T10:54:03.941Z</time>
      </trkpt>
      <trkpt lat="46.95357" lon="-0.79437">
        <ele>145.1</ele>
        <time>2026-03-28T10:54:08.227Z</time>
      </trkpt>
      <trkpt lat="46.95309" lon="-0.79407">
        <ele>145.9</ele>
        <time>2026-03-28T10:54:17.100Z</time>
      </trkpt>
      <trkpt lat="46.95283" lon="-0.79403">
        <ele>146.8</ele>
        <time>2026-03-28T10:54:22.597Z</time>
      </trkpt>
      <trkpt lat="46.9528" lon="-0.79381">
        <ele>146.9</ele>
        <time>2026-03-28T10:54:24.977Z</time>
      </trkpt>
      <trkpt lat="46.95243" lon="-0.79265">
        <ele>146.8</ele>
        <time>2026-03-28T10:54:37.590Z</time>
      </trkpt>
      <trkpt lat="46.95231" lon="-0.79235">
        <ele>145.6</ele>
        <time>2026-03-28T10:54:39.893Z</time>
      </trkpt>
      <trkpt lat="46.95209" lon="-0.79242">
        <ele>146.6</ele>
        <time>2026-03-28T10:54:45.234Z</time>
      </trkpt>
      <trkpt lat="46.95201" lon="-0.79241">
        <ele>146.6</ele>
        <time>2026-03-28T10:54:46.405Z</time>
      </trkpt>
      <trkpt lat="46.95195" lon="-0.79248">
        <ele>146.9</ele>
        <time>2026-03-28T10:54:48.110Z</time>
      </trkpt>
      <trkpt lat="46.95184" lon="-0.79295">
        <ele>148</ele>
        <time>2026-03-28T10:54:55.077Z</time>
      </trkpt>
      <trkpt lat="46.95166" lon="-0.79319">
        <ele>148.5</ele>
        <time>2026-03-28T10:54:59.452Z</time>
      </trkpt>
      <trkpt lat="46.95157" lon="-0.79307">
        <ele>148.4</ele>
        <time>2026-03-28T10:55:01.098Z</time>
      </trkpt>
      <trkpt lat="46.95149" lon="-0.7929">
        <ele>148.6</ele>
        <time>2026-03-28T10:55:03.466Z</time>
      </trkpt>
      <trkpt lat="46.95119" lon="-0.79206">
        <ele>149.1</ele>
        <time>2026-03-28T10:55:13.645Z</time>
      </trkpt>
      <trkpt lat="46.951" lon="-0.79163">
        <ele>148.3</ele>
        <time>2026-03-28T10:55:17.813Z</time>
      </trkpt>
      <trkpt lat="46.95066" lon="-0.79098">
        <ele>147.8</ele>
        <time>2026-03-28T10:55:25.321Z</time>
      </trkpt>
      <trkpt lat="46.95049" lon="-0.79072">
        <ele>147.8</ele>
        <time>2026-03-28T10:55:28.907Z</time>
      </trkpt>
      <trkpt lat="46.95031" lon="-0.7905">
        <ele>147.7</ele>
        <time>2026-03-28T10:55:32.192Z</time>
      </trkpt>
      <trkpt lat="46.94892" lon="-0.78917">
        <ele>151.7</ele>
        <time>2026-03-28T10:56:03.218Z</time>
      </trkpt>
      <trkpt lat="46.94875" lon="-0.78906">
        <ele>151.9</ele>
        <time>2026-03-28T10:56:06.232Z</time>
      </trkpt>
      <trkpt lat="46.94818" lon="-0.78877">
        <ele>152</ele>
        <time>2026-03-28T10:56:15.175Z</time>
      </trkpt>
      <trkpt lat="46.94676" lon="-0.78824">
        <ele>150.7</ele>
        <time>2026-03-28T10:56:34.870Z</time>
      </trkpt>
      <trkpt lat="46.94649" lon="-0.78817">
        <ele>150.4</ele>
        <time>2026-03-28T10:56:38.488Z</time>
      </trkpt>
      <trkpt lat="46.94578" lon="-0.78809">
        <ele>150.1</ele>
        <time>2026-03-28T10:56:48.473Z</time>
      </trkpt>
      <trkpt lat="46.94553" lon="-0.78799">
        <ele>149.9</ele>
        <time>2026-03-28T10:56:51.993Z</time>
      </trkpt>
      <trkpt lat="46.94529" lon="-0.78785">
        <ele>150.2</ele>
        <time>2026-03-28T10:56:56.219Z</time>
      </trkpt>
      <trkpt lat="46.94514" lon="-0.78773">
        <ele>150.7</ele>
        <time>2026-03-28T10:56:59.604Z</time>
      </trkpt>
      <trkpt lat="46.94504" lon="-0.78759">
        <ele>150.9</ele>
        <time>2026-03-28T10:57:01.935Z</time>
      </trkpt>
      <trkpt lat="46.94496" lon="-0.7873">
        <ele>150.8</ele>
        <time>2026-03-28T10:57:04.916Z</time>
      </trkpt>
      <trkpt lat="46.94477" lon="-0.78562">
        <ele>151.8</ele>
        <time>2026-03-28T10:57:23.364Z</time>
      </trkpt>
      <trkpt lat="46.94476" lon="-0.78499">
        <ele>149.8</ele>
        <time>2026-03-28T10:57:27.656Z</time>
      </trkpt>
      <trkpt lat="46.9447" lon="-0.78448">
        <ele>148.2</ele>
        <time>2026-03-28T10:57:31.210Z</time>
      </trkpt>
      <trkpt lat="46.94419" lon="-0.78221">
        <ele>142.9</ele>
        <time>2026-03-28T10:57:49.237Z</time>
      </trkpt>
      <trkpt lat="46.94403" lon="-0.7817">
        <ele>140.7</ele>
        <time>2026-03-28T10:57:52.790Z</time>
      </trkpt>
      <trkpt lat="46.94382" lon="-0.78129">
        <ele>138.5</ele>
        <time>2026-03-28T10:57:55.926Z</time>
      </trkpt>
      <trkpt lat="46.94361" lon="-0.78097">
        <ele>137</ele>
        <time>2026-03-28T10:57:58.887Z</time>
      </trkpt>
      <trkpt lat="46.94328" lon="-0.78062">
        <ele>135.8</ele>
        <time>2026-03-28T10:58:03.495Z</time>
      </trkpt>
      <trkpt lat="46.94265" lon="-0.7802">
        <ele>136.4</ele>
        <time>2026-03-28T10:58:14.486Z</time>
      </trkpt>
      <trkpt lat="46.94121" lon="-0.77928">
        <ele>138.5</ele>
        <time>2026-03-28T10:58:40.658Z</time>
      </trkpt>
      <trkpt lat="46.94094" lon="-0.77906">
        <ele>137.8</ele>
        <time>2026-03-28T10:58:44.348Z</time>
      </trkpt>
      <trkpt lat="46.94072" lon="-0.77866">
        <ele>136.1</ele>
        <time>2026-03-28T10:58:47.799Z</time>
      </trkpt>
      <trkpt lat="46.94061" lon="-0.77829">
        <ele>135.5</ele>
        <time>2026-03-28T10:58:51.113Z</time>
      </trkpt>
      <trkpt lat="46.94061" lon="-0.77784">
        <ele>134.7</ele>
        <time>2026-03-28T10:58:54.684Z</time>
      </trkpt>
      <trkpt lat="46.94074" lon="-0.77706">
        <ele>134.4</ele>
        <time>2026-03-28T10:59:02.282Z</time>
      </trkpt>
      <trkpt lat="46.94078" lon="-0.77651">
        <ele>138.9</ele>
        <time>2026-03-28T10:59:24.660Z</time>
      </trkpt>
      <trkpt lat="46.94072" lon="-0.77599">
        <ele>141.4</ele>
        <time>2026-03-28T10:59:36.505Z</time>
      </trkpt>
      <trkpt lat="46.9406" lon="-0.77552">
        <ele>143.1</ele>
        <time>2026-03-28T10:59:45.181Z</time>
      </trkpt>
      <trkpt lat="46.94042" lon="-0.77511">
        <ele>144.8</ele>
        <time>2026-03-28T10:59:53.768Z</time>
      </trkpt>
      <trkpt lat="46.94019" lon="-0.77477">
        <ele>145.8</ele>
        <time>2026-03-28T11:00:00.341Z</time>
      </trkpt>
      <trkpt lat="46.93994" lon="-0.77453">
        <ele>146.7</ele>
        <time>2026-03-28T11:00:06.318Z</time>
      </trkpt>
      <trkpt lat="46.93696" lon="-0.77256">
        <ele>136.4</ele>
        <time>2026-03-28T11:00:42.716Z</time>
      </trkpt>
      <trkpt lat="46.93658" lon="-0.77228">
        <ele>137.6</ele>
        <time>2026-03-28T11:00:51.041Z</time>
      </trkpt>
      <trkpt lat="46.93623" lon="-0.77193">
        <ele>140.6</ele>
        <time>2026-03-28T11:01:05.241Z</time>
      </trkpt>
      <trkpt lat="46.93488" lon="-0.77029">
        <ele>145.1</ele>
        <time>2026-03-28T11:01:38.593Z</time>
      </trkpt>
      <trkpt lat="46.93426" lon="-0.76958">
        <ele>142.9</ele>
        <time>2026-03-28T11:01:47.601Z</time>
      </trkpt>
      <trkpt lat="46.9339" lon="-0.76908">
        <ele>141.4</ele>
        <time>2026-03-28T11:01:53.179Z</time>
      </trkpt>
      <trkpt lat="46.93187" lon="-0.76406">
        <ele>138.4</ele>
        <time>2026-03-28T11:02:47.375Z</time>
      </trkpt>
      <trkpt lat="46.93131" lon="-0.76263">
        <ele>139.6</ele>
        <time>2026-03-28T11:03:05.613Z</time>
      </trkpt>
      <trkpt lat="46.93117" lon="-0.76236">
        <ele>140.1</ele>
        <time>2026-03-28T11:03:09.823Z</time>
      </trkpt>
      <trkpt lat="46.93104" lon="-0.76217">
        <ele>140.1</ele>
        <time>2026-03-28T11:03:12.502Z</time>
      </trkpt>
      <trkpt lat="46.93086" lon="-0.76196">
        <ele>139.4</ele>
        <time>2026-03-28T11:03:15.086Z</time>
      </trkpt>
      <trkpt lat="46.92949" lon="-0.76056">
        <ele>141.1</ele>
        <time>2026-03-28T11:03:42.020Z</time>
      </trkpt>
      <trkpt lat="46.92928" lon="-0.76023">
        <ele>141.6</ele>
        <time>2026-03-28T11:03:47.307Z</time>
      </trkpt>
      <trkpt lat="46.92912" lon="-0.75984">
        <ele>142.3</ele>
        <time>2026-03-28T11:03:53.014Z</time>
      </trkpt>
      <trkpt lat="46.92896" lon="-0.75916">
        <ele>143.3</ele>
        <time>2026-03-28T11:04:01.826Z</time>
      </trkpt>
      <trkpt lat="46.92888" lon="-0.75883">
        <ele>143.9</ele>
        <time>2026-03-28T11:04:06.344Z</time>
      </trkpt>
      <trkpt lat="46.92873" lon="-0.75843">
        <ele>143.5</ele>
        <time>2026-03-28T11:04:10.388Z</time>
      </trkpt>
      <trkpt lat="46.92854" lon="-0.75806">
        <ele>144</ele>
        <time>2026-03-28T11:04:15.791Z</time>
      </trkpt>
      <trkpt lat="46.9284" lon="-0.75788">
        <ele>144.6</ele>
        <time>2026-03-28T11:04:19.608Z</time>
      </trkpt>
      <trkpt lat="46.92826" lon="-0.75776">
        <ele>145.1</ele>
        <time>2026-03-28T11:04:22.879Z</time>
      </trkpt>
      <trkpt lat="46.92746" lon="-0.75757">
        <ele>145.7</ele>
        <time>2026-03-28T11:04:35.586Z</time>
      </trkpt>
      <trkpt lat="46.92726" lon="-0.75749">
        <ele>146.1</ele>
      </trkpt>
      <trkpt lat="46.92702" lon="-0.75734">
        <ele>147.1</ele>
      </trkpt>
      <trkpt lat="46.92675" lon="-0.75707">
        <ele>147.8</ele>
        <time>2026-03-28T11:04:54.252Z</time>
      </trkpt>
      <trkpt lat="46.92646" lon="-0.75674">
        <ele>147.2</ele>
        <time>2026-03-28T11:04:59.729Z</time>
      </trkpt>
      <trkpt lat="46.92628" lon="-0.75658">
        <ele>146.5</ele>
        <time>2026-03-28T11:05:01.791Z</time>
      </trkpt>
      <trkpt lat="46.92597" lon="-0.75641">
        <ele>144.9</ele>
        <time>2026-03-28T11:05:04.834Z</time>
      </trkpt>
      <trkpt lat="46.92567" lon="-0.75628">
        <ele>144</ele>
        <time>2026-03-28T11:05:22.490Z</time>
      </trkpt>
      <trkpt lat="46.92546" lon="-0.75619">
        <ele>143.5</ele>
        <time>2026-03-28T11:05:25.099Z</time>
      </trkpt>
      <trkpt lat="46.92525" lon="-0.75616">
        <ele>143.1</ele>
        <time>2026-03-28T11:05:27.697Z</time>
      </trkpt>
      <trkpt lat="46.9249" lon="-0.75628">
        <ele>143.4</ele>
        <time>2026-03-28T11:05:33.387Z</time>
      </trkpt>
      <trkpt lat="46.92433" lon="-0.75671">
        <ele>143.6</ele>
        <time>2026-03-28T11:05:43.025Z</time>
      </trkpt>
      <trkpt lat="46.92388" lon="-0.7567">
        <ele>144.6</ele>
        <time>2026-03-28T11:05:51.264Z</time>
      </trkpt>
      <trkpt lat="46.92347" lon="-0.75657">
        <ele>145.2</ele>
        <time>2026-03-28T11:05:58.321Z</time>
      </trkpt>
      <trkpt lat="46.92279" lon="-0.75601">
        <ele>148.7</ele>
        <time>2026-03-28T11:06:16.932Z</time>
      </trkpt>
      <trkpt lat="46.92268" lon="-0.75596">
        <ele>148.1</ele>
        <time>2026-03-28T11:06:18.038Z</time>
      </trkpt>
      <trkpt lat="46.92253" lon="-0.75601">
        <ele>146.3</ele>
        <time>2026-03-28T11:06:19.384Z</time>
      </trkpt>
      <trkpt lat="46.92247" lon="-0.75605">
        <ele>145.9</ele>
        <time>2026-03-28T11:06:19.983Z</time>
      </trkpt>
      <trkpt lat="46.92233" lon="-0.75617">
        <ele>145.6</ele>
        <time>2026-03-28T11:06:21.989Z</time>
      </trkpt>
      <trkpt lat="46.92221" lon="-0.75634">
        <ele>146.7</ele>
        <time>2026-03-28T11:06:27.224Z</time>
      </trkpt>
      <trkpt lat="46.922" lon="-0.75626">
        <ele>146.9</ele>
        <time>2026-03-28T11:06:30.688Z</time>
      </trkpt>
      <trkpt lat="46.92172" lon="-0.75622">
        <ele>148.2</ele>
        <time>2026-03-28T11:06:37.513Z</time>
      </trkpt>
      <trkpt lat="46.92149" lon="-0.75623">
        <ele>149</ele>
        <time>2026-03-28T11:06:42.371Z</time>
      </trkpt>
      <trkpt lat="46.92125" lon="-0.75632">
        <ele>149.5</ele>
        <time>2026-03-28T11:06:46.807Z</time>
      </trkpt>
      <trkpt lat="46.92105" lon="-0.75646">
        <ele>149.3</ele>
        <time>2026-03-28T11:06:49.782Z</time>
      </trkpt>
      <trkpt lat="46.92024" lon="-0.75724">
        <ele>149</ele>
        <time>2026-03-28T11:07:03.519Z</time>
      </trkpt>
      <trkpt lat="46.92009" lon="-0.75735">
        <ele>149.5</ele>
        <time>2026-03-28T11:07:06.862Z</time>
      </trkpt>
      <trkpt lat="46.91997" lon="-0.7574">
        <ele>149.5</ele>
        <time>2026-03-28T11:07:08.682Z</time>
      </trkpt>
      <trkpt lat="46.91878" lon="-0.75767">
        <ele>149.8</ele>
        <time>2026-03-28T11:07:26.674Z</time>
      </trkpt>
      <trkpt lat="46.91847" lon="-0.75764">
        <ele>149.2</ele>
        <time>2026-03-28T11:07:30.488Z</time>
      </trkpt>
      <trkpt lat="46.91823" lon="-0.75765">
        <ele>148.5</ele>
        <time>2026-03-28T11:07:33.210Z</time>
      </trkpt>
      <trkpt lat="46.91811" lon="-0.75772">
        <ele>148.8</ele>
        <time>2026-03-28T11:07:35.601Z</time>
      </trkpt>
      <trkpt lat="46.91802" lon="-0.75782">
        <ele>149.2</ele>
        <time>2026-03-28T11:07:38.004Z</time>
      </trkpt>
      <trkpt lat="46.91794" lon="-0.75796">
        <ele>149.5</ele>
        <time>2026-03-28T11:07:40.334Z</time>
      </trkpt>
      <trkpt lat="46.9179" lon="-0.75815">
        <ele>149.7</ele>
        <time>2026-03-28T11:07:42.628Z</time>
      </trkpt>
      <trkpt lat="46.91781" lon="-0.75873">
        <ele>149.9</ele>
        <time>2026-03-28T11:07:48.843Z</time>
      </trkpt>
      <trkpt lat="46.91776" lon="-0.75895">
        <ele>150.3</ele>
        <time>2026-03-28T11:07:51.841Z</time>
      </trkpt>
      <trkpt lat="46.91768" lon="-0.7592">
        <ele>151.2</ele>
        <time>2026-03-28T11:07:56.504Z</time>
      </trkpt>
      <trkpt lat="46.91744" lon="-0.75982">
        <ele>152.3</ele>
        <time>2026-03-28T11:08:05.452Z</time>
      </trkpt>
      <trkpt lat="46.91725" lon="-0.76025">
        <ele>151.4</ele>
        <time>2026-03-28T11:08:09.527Z</time>
      </trkpt>
      <trkpt lat="46.91704" lon="-0.76062">
        <ele>150.8</ele>
        <time>2026-03-28T11:08:13.597Z</time>
      </trkpt>
      <trkpt lat="46.91653" lon="-0.76121">
        <ele>152.5</ele>
        <time>2026-03-28T11:08:26.026Z</time>
      </trkpt>
      <trkpt lat="46.91643" lon="-0.76137">
        <ele>153.1</ele>
        <time>2026-03-28T11:08:29.375Z</time>
      </trkpt>
      <trkpt lat="46.91616" lon="-0.76186">
        <ele>154.9</ele>
        <time>2026-03-28T11:08:39.261Z</time>
      </trkpt>
      <trkpt lat="46.91594" lon="-0.7623">
        <ele>156.3</ele>
        <time>2026-03-28T11:08:47.391Z</time>
      </trkpt>
      <trkpt lat="46.9158" lon="-0.76263">
        <ele>157.3</ele>
        <time>2026-03-28T11:08:53.191Z</time>
      </trkpt>
      <trkpt lat="46.91539" lon="-0.76428">
        <ele>163.6</ele>
        <time>2026-03-28T11:09:24.717Z</time>
      </trkpt>
      <trkpt lat="46.91533" lon="-0.76459">
        <ele>163.4</ele>
        <time>2026-03-28T11:09:27.669Z</time>
      </trkpt>
      <trkpt lat="46.91527" lon="-0.76514">
        <ele>161.9</ele>
        <time>2026-03-28T11:09:31.660Z</time>
      </trkpt>
      <trkpt lat="46.91519" lon="-0.76547">
        <ele>161.1</ele>
        <time>2026-03-28T11:09:34.284Z</time>
      </trkpt>
      <trkpt lat="46.91501" lon="-0.76592">
        <ele>162.6</ele>
        <time>2026-03-28T11:09:42.497Z</time>
      </trkpt>
      <trkpt lat="46.9149" lon="-0.76653">
        <ele>164.2</ele>
        <time>2026-03-28T11:09:51.853Z</time>
      </trkpt>
      <trkpt lat="46.91472" lon="-0.76724">
        <ele>166</ele>
        <time>2026-03-28T11:10:02.778Z</time>
      </trkpt>
      <trkpt lat="46.91457" lon="-0.76767">
        <ele>166.6</ele>
        <time>2026-03-28T11:10:08.558Z</time>
      </trkpt>
      <trkpt lat="46.91438" lon="-0.76806">
        <ele>166.7</ele>
        <time>2026-03-28T11:10:13.474Z</time>
      </trkpt>
      <trkpt lat="46.91419" lon="-0.76836">
        <ele>167.5</ele>
        <time>2026-03-28T11:10:18.969Z</time>
      </trkpt>
      <trkpt lat="46.91329" lon="-0.76929">
        <ele>173.5</ele>
        <time>2026-03-28T11:10:48.660Z</time>
      </trkpt>
      <trkpt lat="46.91288" lon="-0.76978">
        <ele>175.2</ele>
        <time>2026-03-28T11:10:59.493Z</time>
      </trkpt>
      <trkpt lat="46.91229" lon="-0.77055">
        <ele>179</ele>
        <time>2026-03-28T11:11:19.123Z</time>
      </trkpt>
      <trkpt lat="46.91212" lon="-0.77074">
        <ele>179.3</ele>
        <time>2026-03-28T11:11:22.710Z</time>
      </trkpt>
      <trkpt lat="46.91158" lon="-0.77117">
        <ele>181.5</ele>
        <time>2026-03-28T11:11:35.845Z</time>
      </trkpt>
      <trkpt lat="46.91144" lon="-0.77132">
        <ele>183.1</ele>
        <time>2026-03-28T11:11:43.603Z</time>
      </trkpt>
      <trkpt lat="46.91135" lon="-0.77149">
        <ele>184.2</ele>
        <time>2026-03-28T11:11:48.807Z</time>
      </trkpt>
      <trkpt lat="46.91129" lon="-0.77165">
        <ele>185</ele>
        <time>2026-03-28T11:11:52.627Z</time>
      </trkpt>
      <trkpt lat="46.91126" lon="-0.77188">
        <ele>186.6</ele>
        <time>2026-03-28T11:12:00.508Z</time>
      </trkpt>
      <trkpt lat="46.91125" lon="-0.77261">
        <ele>190.9</ele>
        <time>2026-03-28T11:12:21.114Z</time>
      </trkpt>
      <trkpt lat="46.91115" lon="-0.77332">
        <ele>192</ele>
        <time>2026-03-28T11:12:30.178Z</time>
      </trkpt>
      <trkpt lat="46.91108" lon="-0.77356">
        <ele>192</ele>
        <time>2026-03-28T11:12:32.779Z</time>
      </trkpt>
      <trkpt lat="46.911" lon="-0.77373">
        <ele>192</ele>
        <time>2026-03-28T11:12:34.836Z</time>
      </trkpt>
      <trkpt lat="46.9083" lon="-0.77775">
        <ele>191.1</ele>
        <time>2026-03-28T11:13:29.793Z</time>
      </trkpt>
      <trkpt lat="46.90796" lon="-0.77816">
        <ele>193.5</ele>
        <time>2026-03-28T11:13:41.668Z</time>
      </trkpt>
      <trkpt lat="46.90704" lon="-0.77912">
        <ele>197.8</ele>
        <time>2026-03-28T11:14:06.472Z</time>
      </trkpt>
      <trkpt lat="46.90637" lon="-0.77997">
        <ele>199.8</ele>
        <time>2026-03-28T11:14:22.763Z</time>
      </trkpt>
      <trkpt lat="46.90614" lon="-0.78018">
        <ele>200.3</ele>
        <time>2026-03-28T11:14:27.527Z</time>
      </trkpt>
      <trkpt lat="46.90599" lon="-0.78028">
        <ele>200.6</ele>
        <time>2026-03-28T11:14:30.416Z</time>
      </trkpt>
      <trkpt lat="46.906" lon="-0.78056">
        <ele>201</ele>
        <time>2026-03-28T11:14:33.871Z</time>
      </trkpt>
      <trkpt lat="46.90599" lon="-0.78028">
        <ele>200.6</ele>
        <time>2026-03-28T11:14:36.193Z</time>
      </trkpt>
      <trkpt lat="46.90542" lon="-0.78063">
        <ele>200.8</ele>
        <time>2026-03-28T11:14:45.495Z</time>
      </trkpt>
      <trkpt lat="46.90513" lon="-0.78084">
        <ele>202</ele>
        <time>2026-03-28T11:14:52.516Z</time>
      </trkpt>
      <trkpt lat="46.9045" lon="-0.78136">
        <ele>204.7</ele>
        <time>2026-03-28T11:15:08.256Z</time>
      </trkpt>
      <trkpt lat="46.9042" lon="-0.78165">
        <ele>206</ele>
        <time>2026-03-28T11:15:15.972Z</time>
      </trkpt>
      <trkpt lat="46.9039" lon="-0.78206">
        <ele>206</ele>
        <time>2026-03-28T11:15:21.960Z</time>
      </trkpt>
      <trkpt lat="46.90372" lon="-0.78235">
        <ele>205.8</ele>
        <time>2026-03-28T11:15:25.603Z</time>
      </trkpt>
      <trkpt lat="46.90355" lon="-0.78279">
        <ele>205</ele>
        <time>2026-03-28T11:15:29.710Z</time>
      </trkpt>
      <trkpt lat="46.9033" lon="-0.78351">
        <ele>202.9</ele>
        <time>2026-03-28T11:15:35.558Z</time>
      </trkpt>
      <trkpt lat="46.90307" lon="-0.78396">
        <ele>202</ele>
        <time>2026-03-28T11:15:40.114Z</time>
      </trkpt>
      <trkpt lat="46.90227" lon="-0.78535">
        <ele>198.4</ele>
        <time>2026-03-28T11:15:54.210Z</time>
      </trkpt>
      <trkpt lat="46.9013" lon="-0.78695">
        <ele>198.7</ele>
        <time>2026-03-28T11:16:15.954Z</time>
      </trkpt>
      <trkpt lat="46.89975" lon="-0.78959">
        <ele>198.6</ele>
        <time>2026-03-28T11:16:50.510Z</time>
      </trkpt>
      <trkpt lat="46.89921" lon="-0.79055">
        <ele>197.3</ele>
        <time>2026-03-28T11:17:01.302Z</time>
      </trkpt>
      <trkpt lat="46.89895" lon="-0.79093">
        <ele>196.7</ele>
        <time>2026-03-28T11:17:05.929Z</time>
      </trkpt>
      <trkpt lat="46.89856" lon="-0.79138">
        <ele>195.4</ele>
        <time>2026-03-28T11:17:11.694Z</time>
      </trkpt>
      <trkpt lat="46.89757" lon="-0.79226">
        <ele>191.5</ele>
        <time>2026-03-28T11:17:24.377Z</time>
      </trkpt>
      <trkpt lat="46.8974" lon="-0.79234">
        <ele>190.8</ele>
        <time>2026-03-28T11:17:26.253Z</time>
      </trkpt>
      <trkpt lat="46.89614" lon="-0.79261">
        <ele>188.1</ele>
        <time>2026-03-28T11:17:41.644Z</time>
      </trkpt>
      <trkpt lat="46.8952" lon="-0.79272">
        <ele>185.6</ele>
        <time>2026-03-28T11:17:52.561Z</time>
      </trkpt>
      <trkpt lat="46.89368" lon="-0.79296">
        <ele>183.2</ele>
        <time>2026-03-28T11:18:11.914Z</time>
      </trkpt>
      <trkpt lat="46.89296" lon="-0.79303">
        <ele>180.7</ele>
        <time>2026-03-28T11:18:19.757Z</time>
      </trkpt>
      <trkpt lat="46.89207" lon="-0.79315">
        <ele>177.5</ele>
        <time>2026-03-28T11:18:29.388Z</time>
      </trkpt>
      <trkpt lat="46.89073" lon="-0.79358">
        <ele>169.7</ele>
        <time>2026-03-28T11:18:42.155Z</time>
      </trkpt>
      <trkpt lat="46.89056" lon="-0.79361">
        <ele>169</ele>
        <time>2026-03-28T11:18:43.933Z</time>
      </trkpt>
      <trkpt lat="46.88959" lon="-0.79349">
        <ele>164</ele>
        <time>2026-03-28T11:18:53.327Z</time>
      </trkpt>
      <trkpt lat="46.88781" lon="-0.79322">
        <ele>158.5</ele>
        <time>2026-03-28T11:19:13.367Z</time>
      </trkpt>
      <trkpt lat="46.88719" lon="-0.79316">
        <ele>155.9</ele>
        <time>2026-03-28T11:19:19.773Z</time>
      </trkpt>
      <trkpt lat="46.88685" lon="-0.79316">
        <ele>154.5</ele>
        <time>2026-03-28T11:19:23.294Z</time>
      </trkpt>
      <trkpt lat="46.88631" lon="-0.79331">
        <ele>151.8</ele>
        <time>2026-03-28T11:19:28.679Z</time>
      </trkpt>
      <trkpt lat="46.88482" lon="-0.79422">
        <ele>146.3</ele>
        <time>2026-03-28T11:19:46.306Z</time>
      </trkpt>
      <trkpt lat="46.88439" lon="-0.79445">
        <ele>146</ele>
        <time>2026-03-28T11:19:52.589Z</time>
      </trkpt>
      <trkpt lat="46.88407" lon="-0.79456">
        <ele>146.3</ele>
        <time>2026-03-28T11:19:57.833Z</time>
      </trkpt>
      <trkpt lat="46.88108" lon="-0.79446">
        <ele>153.1</ele>
        <time>2026-03-28T11:20:52.893Z</time>
      </trkpt>
      <trkpt lat="46.88022" lon="-0.79447">
        <ele>156.2</ele>
        <time>2026-03-28T11:21:11.326Z</time>
      </trkpt>
      <trkpt lat="46.87884" lon="-0.79472">
        <ele>159</ele>
        <time>2026-03-28T11:21:36.211Z</time>
      </trkpt>
      <trkpt lat="46.87819" lon="-0.7947">
        <ele>159</ele>
        <time>2026-03-28T11:21:45.695Z</time>
      </trkpt>
      <trkpt lat="46.87729" lon="-0.79454">
        <ele>158.7</ele>
        <time>2026-03-28T11:21:58.516Z</time>
      </trkpt>
      <trkpt lat="46.87633" lon="-0.7946">
        <ele>157.3</ele>
        <time>2026-03-28T11:22:10.798Z</time>
      </trkpt>
      <trkpt lat="46.87612" lon="-0.79467">
        <ele>157</ele>
        <time>2026-03-28T11:22:13.567Z</time>
      </trkpt>
      <trkpt lat="46.87608" lon="-0.79479">
        <ele>156.7</ele>
        <time>2026-03-28T11:22:14.572Z</time>
      </trkpt>
      <trkpt lat="46.87598" lon="-0.79485">
        <ele>156.3</ele>
        <time>2026-03-28T11:22:15.726Z</time>
      </trkpt>
      <trkpt lat="46.87588" lon="-0.79479">
        <ele>156.1</ele>
        <time>2026-03-28T11:22:17.062Z</time>
      </trkpt>
      <trkpt lat="46.87585" lon="-0.79472">
        <ele>156.1</ele>
        <time>2026-03-28T11:22:17.886Z</time>
      </trkpt>
      <trkpt lat="46.87567" lon="-0.79485">
        <ele>155.7</ele>
        <time>2026-03-28T11:22:20.338Z</time>
      </trkpt>
      <trkpt lat="46.87542" lon="-0.79506">
        <ele>154.9</ele>
        <time>2026-03-28T11:22:23.643Z</time>
      </trkpt>
      <trkpt lat="46.87371" lon="-0.79699">
        <ele>150.4</ele>
        <time>2026-03-28T11:22:49.826Z</time>
      </trkpt>
      <trkpt lat="46.87354" lon="-0.79722">
        <ele>150</ele>
        <time>2026-03-28T11:22:52.718Z</time>
      </trkpt>
      <trkpt lat="46.87308" lon="-0.79763">
        <ele>149</ele>
        <time>2026-03-28T11:22:59.373Z</time>
      </trkpt>
      <trkpt lat="46.87234" lon="-0.79738">
        <ele>149.6</ele>
        <time>2026-03-28T11:23:11.340Z</time>
      </trkpt>
      <trkpt lat="46.8714" lon="-0.79693">
        <ele>148.1</ele>
        <time>2026-03-28T11:23:23.918Z</time>
      </trkpt>
      <trkpt lat="46.8706" lon="-0.79662">
        <ele>148.2</ele>
        <time>2026-03-28T11:23:36.132Z</time>
      </trkpt>
      <trkpt lat="46.8706" lon="-0.79661">
        <ele>148.2</ele>
        <time>2026-03-28T11:23:36.231Z</time>
      </trkpt>
      <trkpt lat="46.86983" lon="-0.79628">
        <ele>149.6</ele>
        <time>2026-03-28T11:23:50.183Z</time>
      </trkpt>
      <trkpt lat="46.86929" lon="-0.79567">
        <ele>149</ele>
        <time>2026-03-28T11:23:59.359Z</time>
      </trkpt>
      <trkpt lat="46.86903" lon="-0.79532">
        <ele>148.5</ele>
        <time>2026-03-28T11:24:03.892Z</time>
      </trkpt>
      <trkpt lat="46.86857" lon="-0.79443">
        <ele>148</ele>
        <time>2026-03-28T11:24:14.361Z</time>
      </trkpt>
      <trkpt lat="46.86842" lon="-0.79419">
        <ele>148</ele>
        <time>2026-03-28T11:24:17.604Z</time>
      </trkpt>
      <trkpt lat="46.86614" lon="-0.7912">
        <ele>149.6</ele>
        <time>2026-03-28T11:25:04.592Z</time>
      </trkpt>
      <trkpt lat="46.86352" lon="-0.78768">
        <ele>153.7</ele>
        <time>2026-03-28T11:26:02.744Z</time>
      </trkpt>
      <trkpt lat="46.86233" lon="-0.78634">
        <ele>149</ele>
        <time>2026-03-28T11:26:19.490Z</time>
      </trkpt>
      <trkpt lat="46.86174" lon="-0.78588">
        <ele>147.4</ele>
        <time>2026-03-28T11:26:27.392Z</time>
      </trkpt>
      <trkpt lat="46.86104" lon="-0.78517">
        <ele>145.6</ele>
        <time>2026-03-28T11:26:37.694Z</time>
      </trkpt>
      <trkpt lat="46.86074" lon="-0.78475">
        <ele>144.7</ele>
        <time>2026-03-28T11:26:42.694Z</time>
      </trkpt>
      <trkpt lat="46.86051" lon="-0.78463">
        <ele>143.8</ele>
        <time>2026-03-28T11:26:45.305Z</time>
      </trkpt>
      <trkpt lat="46.85376" lon="-0.78349">
        <ele>144</ele>
        <time>2026-03-28T11:28:24.707Z</time>
      </trkpt>
      <trkpt lat="46.85097" lon="-0.78296">
        <ele>144.7</ele>
        <time>2026-03-28T11:29:06.741Z</time>
      </trkpt>
      <trkpt lat="46.84865" lon="-0.78249">
        <ele>143.2</ele>
        <time>2026-03-28T11:29:38.930Z</time>
      </trkpt>
      <trkpt lat="46.84749" lon="-0.78229">
        <ele>143</ele>
        <time>2026-03-28T11:29:55.696Z</time>
      </trkpt>
      <trkpt lat="46.84692" lon="-0.78205">
        <ele>142.6</ele>
        <time>2026-03-28T11:30:03.823Z</time>
      </trkpt>
      <trkpt lat="46.84609" lon="-0.78154">
        <ele>143.4</ele>
        <time>2026-03-28T11:30:18.150Z</time>
      </trkpt>
      <trkpt lat="46.84511" lon="-0.78081">
        <ele>143.4</ele>
        <time>2026-03-28T11:30:34.195Z</time>
      </trkpt>
      <trkpt lat="46.84453" lon="-0.78004">
        <ele>143.9</ele>
        <time>2026-03-28T11:30:46.354Z</time>
      </trkpt>
      <trkpt lat="46.84305" lon="-0.778">
        <ele>149</ele>
        <time>2026-03-28T11:31:24.781Z</time>
      </trkpt>
      <trkpt lat="46.84259" lon="-0.77748">
        <ele>149</ele>
        <time>2026-03-28T11:31:33.264Z</time>
      </trkpt>
      <trkpt lat="46.84226" lon="-0.77696">
        <ele>147.1</ele>
        <time>2026-03-28T11:31:38.364Z</time>
      </trkpt>
      <trkpt lat="46.84207" lon="-0.77637">
        <ele>145.5</ele>
        <time>2026-03-28T11:31:43.167Z</time>
      </trkpt>
      <trkpt lat="46.84174" lon="-0.77542">
        <ele>144.6</ele>
        <time>2026-03-28T11:31:52.665Z</time>
      </trkpt>
      <trkpt lat="46.84122" lon="-0.77351">
        <ele>146.8</ele>
        <time>2026-03-28T11:32:16.654Z</time>
      </trkpt>
      <trkpt lat="46.84103" lon="-0.77329">
        <ele>146.8</ele>
        <time>2026-03-28T11:32:20.190Z</time>
      </trkpt>
      <trkpt lat="46.8409" lon="-0.77319">
        <ele>146.4</ele>
        <time>2026-03-28T11:32:21.881Z</time>
      </trkpt>
      <trkpt lat="46.84067" lon="-0.77322">
        <ele>143.6</ele>
        <time>2026-03-28T11:32:23.902Z</time>
      </trkpt>
      <trkpt lat="46.83993" lon="-0.77323">
        <ele>143.3</ele>
        <time>2026-03-28T11:32:34.294Z</time>
      </trkpt>
      <trkpt lat="46.83981" lon="-0.77333">
        <ele>144</ele>
        <time>2026-03-28T11:32:37.840Z</time>
      </trkpt>
      <trkpt lat="46.8397" lon="-0.77346">
        <ele>144.3</ele>
        <time>2026-03-28T11:32:40.401Z</time>
      </trkpt>
      <trkpt lat="46.83946" lon="-0.77401">
        <ele>142.5</ele>
        <time>2026-03-28T11:32:45.052Z</time>
      </trkpt>
      <trkpt lat="46.83934" lon="-0.77419">
        <ele>143</ele>
        <time>2026-03-28T11:32:48.450Z</time>
      </trkpt>
      <trkpt lat="46.83862" lon="-0.7748">
        <ele>144</ele>
        <time>2026-03-28T11:33:02.121Z</time>
      </trkpt>
      <trkpt lat="46.8385" lon="-0.77484">
        <ele>144.2</ele>
        <time>2026-03-28T11:33:04.234Z</time>
      </trkpt>
      <trkpt lat="46.8385" lon="-0.77485">
        <ele>144.2</ele>
        <time>2026-03-28T11:33:04.334Z</time>
      </trkpt>
      <trkpt lat="46.8382" lon="-0.77495">
        <ele>144.9</ele>
        <time>2026-03-28T11:33:09.999Z</time>
      </trkpt>
      <trkpt lat="46.83796" lon="-0.775">
        <ele>145</ele>
        <time>2026-03-28T11:33:13.679Z</time>
      </trkpt>
      <trkpt lat="46.83743" lon="-0.77534">
        <ele>146.1</ele>
        <time>2026-03-28T11:33:23.912Z</time>
      </trkpt>
      <trkpt lat="46.83762" lon="-0.7768">
        <ele>148.3</ele>
        <time>2026-03-28T11:33:42.405Z</time>
      </trkpt>
      <trkpt lat="46.83777" lon="-0.77703">
        <ele>148</ele>
        <time>2026-03-28T11:33:45.203Z</time>
      </trkpt>
      <trkpt lat="46.83809" lon="-0.77726">
        <ele>147</ele>
        <time>2026-03-28T11:33:49.281Z</time>
      </trkpt>
      <trkpt lat="46.83867" lon="-0.77748">
        <ele>145.8</ele>
        <time>2026-03-28T11:33:56.594Z</time>
      </trkpt>
      <trkpt lat="46.83879" lon="-0.77756">
        <ele>145.3</ele>
        <time>2026-03-28T11:33:57.993Z</time>
      </trkpt>
      <trkpt lat="46.83906" lon="-0.77782">
        <ele>144.3</ele>
        <time>2026-03-28T11:34:01.608Z</time>
      </trkpt>
      <trkpt lat="46.83934" lon="-0.77823">
        <ele>143.8</ele>
        <time>2026-03-28T11:34:06.761Z</time>
      </trkpt>
      <trkpt lat="46.83949" lon="-0.77853">
        <ele>143.4</ele>
        <time>2026-03-28T11:34:09.978Z</time>
      </trkpt>
      <trkpt lat="46.83967" lon="-0.77898">
        <ele>144.4</ele>
        <time>2026-03-28T11:34:16.943Z</time>
      </trkpt>
      <trkpt lat="46.84053" lon="-0.78208">
        <ele>144.9</ele>
        <time>2026-03-28T11:34:51.030Z</time>
      </trkpt>
      <trkpt lat="46.84079" lon="-0.78318">
        <ele>145.7</ele>
        <time>2026-03-28T11:35:03.848Z</time>
      </trkpt>
      <trkpt lat="46.84084" lon="-0.78377">
        <ele>146</ele>
        <time>2026-03-28T11:35:10.223Z</time>
      </trkpt>
      <trkpt lat="46.84089" lon="-0.78516">
        <ele>146.1</ele>
        <time>2026-03-28T11:35:24.252Z</time>
      </trkpt>
      <trkpt lat="46.84096" lon="-0.78598">
        <ele>147.5</ele>
        <time>2026-03-28T11:35:34.894Z</time>
      </trkpt>
      <trkpt lat="46.8411" lon="-0.78652">
        <ele>148</ele>
        <time>2026-03-28T11:35:41.427Z</time>
      </trkpt>
      <trkpt lat="46.84136" lon="-0.78736">
        <ele>150</ele>
        <time>2026-03-28T11:35:54.274Z</time>
      </trkpt>
      <trkpt lat="46.84156" lon="-0.78806">
        <ele>151</ele>
        <time>2026-03-28T11:36:03.474Z</time>
      </trkpt>
      <trkpt lat="46.84166" lon="-0.7886">
        <ele>152</ele>
        <time>2026-03-28T11:36:10.790Z</time>
      </trkpt>
      <trkpt lat="46.84167" lon="-0.78906">
        <ele>153</ele>
        <time>2026-03-28T11:36:17.207Z</time>
      </trkpt>
      <trkpt lat="46.84163" lon="-0.78991">
        <ele>155.8</ele>
        <time>2026-03-28T11:36:31.675Z</time>
      </trkpt>
      <trkpt lat="46.84154" lon="-0.7906">
        <ele>159.7</ele>
        <time>2026-03-28T11:36:50.219Z</time>
      </trkpt>
      <trkpt lat="46.84138" lon="-0.7914">
        <ele>163</ele>
        <time>2026-03-28T11:37:06.287Z</time>
      </trkpt>
      <trkpt lat="46.84134" lon="-0.79179">
        <ele>164.8</ele>
        <time>2026-03-28T11:37:14.842Z</time>
      </trkpt>
      <trkpt lat="46.84137" lon="-0.79231">
        <ele>166.2</ele>
        <time>2026-03-28T11:37:22.789Z</time>
      </trkpt>
      <trkpt lat="46.84142" lon="-0.79274">
        <ele>167</ele>
        <time>2026-03-28T11:37:28.536Z</time>
      </trkpt>
      <trkpt lat="46.84155" lon="-0.79346">
        <ele>165.8</ele>
        <time>2026-03-28T11:37:34.574Z</time>
      </trkpt>
      <trkpt lat="46.84177" lon="-0.79439">
        <ele>164.4</ele>
        <time>2026-03-28T11:37:42.737Z</time>
      </trkpt>
      <trkpt lat="46.84196" lon="-0.79534">
        <ele>162.9</ele>
        <time>2026-03-28T11:37:50.856Z</time>
      </trkpt>
      <trkpt lat="46.84298" lon="-0.79979">
        <ele>160.5</ele>
        <time>2026-03-28T11:38:34.547Z</time>
      </trkpt>
      <trkpt lat="46.84304" lon="-0.80015">
        <ele>160.1</ele>
        <time>2026-03-28T11:38:37.753Z</time>
      </trkpt>
      <trkpt lat="46.84306" lon="-0.80074">
        <ele>159</ele>
        <time>2026-03-28T11:38:42.404Z</time>
      </trkpt>
      <trkpt lat="46.84302" lon="-0.80157">
        <ele>157.1</ele>
        <time>2026-03-28T11:38:48.650Z</time>
      </trkpt>
      <trkpt lat="46.84303" lon="-0.8024">
        <ele>156.2</ele>
        <time>2026-03-28T11:38:55.828Z</time>
      </trkpt>
      <trkpt lat="46.8431" lon="-0.80282">
        <ele>156.7</ele>
        <time>2026-03-28T11:39:00.940Z</time>
      </trkpt>
      <trkpt lat="46.84332" lon="-0.80364">
        <ele>156.1</ele>
        <time>2026-03-28T11:39:08.959Z</time>
      </trkpt>
      <trkpt lat="46.84333" lon="-0.80402">
        <ele>156</ele>
        <time>2026-03-28T11:39:12.619Z</time>
      </trkpt>
      <trkpt lat="46.84329" lon="-0.80526">
        <ele>153.8</ele>
        <time>2026-03-28T11:39:22.496Z</time>
      </trkpt>
      <trkpt lat="46.8434" lon="-0.80613">
        <ele>151.2</ele>
        <time>2026-03-28T11:39:28.685Z</time>
      </trkpt>
      <trkpt lat="46.84341" lon="-0.80618">
        <ele>151</ele>
        <time>2026-03-28T11:39:29.018Z</time>
      </trkpt>
      <trkpt lat="46.84355" lon="-0.80656">
        <ele>149.2</ele>
        <time>2026-03-28T11:39:31.695Z</time>
      </trkpt>
      <trkpt lat="46.84375" lon="-0.80682">
        <ele>147.4</ele>
        <time>2026-03-28T11:39:34.037Z</time>
      </trkpt>
      <trkpt lat="46.84411" lon="-0.80706">
        <ele>146.5</ele>
        <time>2026-03-28T11:39:38.759Z</time>
      </trkpt>
      <trkpt lat="46.84385" lon="-0.8104">
        <ele>151.6</ele>
        <time>2026-03-28T11:40:20.832Z</time>
      </trkpt>
      <trkpt lat="46.84388" lon="-0.81083">
        <ele>152</ele>
        <time>2026-03-28T11:40:25.765Z</time>
      </trkpt>
      <trkpt lat="46.84412" lon="-0.81213">
        <ele>154.7</ele>
        <time>2026-03-28T11:40:44.017Z</time>
      </trkpt>
      <trkpt lat="46.84411" lon="-0.81247">
        <ele>155.2</ele>
        <time>2026-03-28T11:40:48.244Z</time>
      </trkpt>
      <trkpt lat="46.84315" lon="-0.81567">
        <ele>158</ele>
        <time>2026-03-28T11:41:27.387Z</time>
      </trkpt>
      <trkpt lat="46.84289" lon="-0.81839">
        <ele>160.4</ele>
        <time>2026-03-28T11:41:58.491Z</time>
      </trkpt>
      <trkpt lat="46.84288" lon="-0.81882">
        <ele>160.4</ele>
        <time>2026-03-28T11:42:02.784Z</time>
      </trkpt>
      <trkpt lat="46.84326" lon="-0.82063">
        <ele>162.7</ele>
        <time>2026-03-28T11:42:25.377Z</time>
      </trkpt>
      <trkpt lat="46.84326" lon="-0.82109">
        <ele>162.7</ele>
        <time>2026-03-28T11:42:29.967Z</time>
      </trkpt>
      <trkpt lat="46.84306" lon="-0.82389">
        <ele>159</ele>
        <time>2026-03-28T11:42:53.628Z</time>
      </trkpt>
      <trkpt lat="46.84287" lon="-0.82599">
        <ele>157.7</ele>
        <time>2026-03-28T11:43:13.085Z</time>
      </trkpt>
      <trkpt lat="46.8428" lon="-0.82685">
        <ele>158.6</ele>
        <time>2026-03-28T11:43:23.143Z</time>
      </trkpt>
      <trkpt lat="46.84282" lon="-0.82811">
        <ele>161.2</ele>
        <time>2026-03-28T11:43:40.393Z</time>
      </trkpt>
      <trkpt lat="46.84232" lon="-0.82989">
        <ele>166.2</ele>
        <time>2026-03-28T11:44:09.263Z</time>
      </trkpt>
      <trkpt lat="46.84221" lon="-0.83048">
        <ele>168.4</ele>
        <time>2026-03-28T11:44:20.267Z</time>
      </trkpt>
      <trkpt lat="46.84207" lon="-0.83112">
        <ele>172</ele>
        <time>2026-03-28T11:44:37.334Z</time>
      </trkpt>
      <trkpt lat="46.84196" lon="-0.83141">
        <ele>172.3</ele>
        <time>2026-03-28T11:44:41.107Z</time>
      </trkpt>
      <trkpt lat="46.84181" lon="-0.83164">
        <ele>174.4</ele>
        <time>2026-03-28T11:44:51.382Z</time>
      </trkpt>
      <trkpt lat="46.84157" lon="-0.8319">
        <ele>175.6</ele>
        <time>2026-03-28T11:44:58.109Z</time>
      </trkpt>
      <trkpt lat="46.84136" lon="-0.83222">
        <ele>175</ele>
        <time>2026-03-28T11:45:01.819Z</time>
      </trkpt>
      <trkpt lat="46.84126" lon="-0.8324">
        <ele>175.3</ele>
        <time>2026-03-28T11:45:04.620Z</time>
      </trkpt>
      <trkpt lat="46.84035" lon="-0.83482">
        <ele>170.7</ele>
        <time>2026-03-28T11:45:26.871Z</time>
      </trkpt>
      <trkpt lat="46.84016" lon="-0.83553">
        <ele>170.9</ele>
        <time>2026-03-28T11:45:34.765Z</time>
      </trkpt>
      <trkpt lat="46.8401" lon="-0.83587">
        <ele>171.2</ele>
        <time>2026-03-28T11:45:38.730Z</time>
      </trkpt>
      <trkpt lat="46.83982" lon="-0.83718">
        <ele>171.3</ele>
        <time>2026-03-28T11:45:52.565Z</time>
      </trkpt>
      <trkpt lat="46.83978" lon="-0.83751">
        <ele>171.8</ele>
        <time>2026-03-28T11:45:56.743Z</time>
      </trkpt>
      <trkpt lat="46.83973" lon="-0.83967">
        <ele>174.8</ele>
        <time>2026-03-28T11:46:23.245Z</time>
      </trkpt>
      <trkpt lat="46.83974" lon="-0.84142">
        <ele>177.9</ele>
        <time>2026-03-28T11:46:46.069Z</time>
      </trkpt>
      <trkpt lat="46.83968" lon="-0.84189">
        <ele>179</ele>
        <time>2026-03-28T11:46:52.882Z</time>
      </trkpt>
      <trkpt lat="46.83957" lon="-0.84243">
        <ele>179.3</ele>
        <time>2026-03-28T11:46:58.948Z</time>
      </trkpt>
      <trkpt lat="46.83943" lon="-0.84298">
        <ele>180.4</ele>
        <time>2026-03-28T11:47:06.732Z</time>
      </trkpt>
      <trkpt lat="46.83923" lon="-0.84418">
        <ele>183.3</ele>
        <time>2026-03-28T11:47:24.476Z</time>
      </trkpt>
      <trkpt lat="46.83909" lon="-0.84473">
        <ele>185.6</ele>
        <time>2026-03-28T11:47:35.702Z</time>
      </trkpt>
      <trkpt lat="46.83905" lon="-0.84519">
        <ele>186.1</ele>
        <time>2026-03-28T11:47:41.120Z</time>
      </trkpt>
      <trkpt lat="46.83909" lon="-0.84683">
        <ele>191.2</ele>
        <time>2026-03-28T11:48:08.090Z</time>
      </trkpt>
      <trkpt lat="46.83904" lon="-0.84732">
        <ele>193.2</ele>
        <time>2026-03-28T11:48:17.784Z</time>
      </trkpt>
      <trkpt lat="46.83895" lon="-0.84797">
        <ele>195.6</ele>
        <time>2026-03-28T11:48:29.767Z</time>
      </trkpt>
      <trkpt lat="46.83867" lon="-0.84953">
        <ele>201.2</ele>
        <time>2026-03-28T11:48:58.116Z</time>
      </trkpt>
      <trkpt lat="46.83867" lon="-0.84971">
        <ele>202.1</ele>
        <time>2026-03-28T11:49:02.373Z</time>
      </trkpt>
      <trkpt lat="46.83831" lon="-0.85094">
        <ele>204.6</ele>
        <time>2026-03-28T11:49:20.103Z</time>
      </trkpt>
      <trkpt lat="46.83815" lon="-0.8513">
        <ele>203.1</ele>
        <time>2026-03-28T11:49:22.942Z</time>
      </trkpt>
      <trkpt lat="46.83794" lon="-0.85162">
        <ele>201.7</ele>
        <time>2026-03-28T11:49:25.975Z</time>
      </trkpt>
      <trkpt lat="46.83751" lon="-0.85193">
        <ele>198.1</ele>
        <time>2026-03-28T11:49:30.172Z</time>
      </trkpt>
      <trkpt lat="46.83722" lon="-0.85211">
        <ele>196.6</ele>
        <time>2026-03-28T11:49:33.291Z</time>
      </trkpt>
      <trkpt lat="46.83702" lon="-0.85231">
        <ele>195.5</ele>
        <time>2026-03-28T11:49:35.727Z</time>
      </trkpt>
      <trkpt lat="46.83658" lon="-0.85298">
        <ele>191.5</ele>
        <time>2026-03-28T11:49:41.417Z</time>
      </trkpt>
      <trkpt lat="46.83643" lon="-0.8533">
        <ele>190.5</ele>
        <time>2026-03-28T11:49:44.236Z</time>
      </trkpt>
      <trkpt lat="46.83604" lon="-0.8545">
        <ele>192.8</ele>
        <time>2026-03-28T11:50:01.451Z</time>
      </trkpt>
      <trkpt lat="46.83576" lon="-0.85543">
        <ele>195.3</ele>
        <time>2026-03-28T11:50:16.334Z</time>
      </trkpt>
      <trkpt lat="46.83562" lon="-0.85597">
        <ele>195.3</ele>
        <time>2026-03-28T11:50:22.097Z</time>
      </trkpt>
      <trkpt lat="46.83553" lon="-0.8566">
        <ele>195.1</ele>
        <time>2026-03-28T11:50:28.252Z</time>
      </trkpt>
      <trkpt lat="46.83553" lon="-0.85661">
        <ele>195</ele>
        <time>2026-03-28T11:50:28.312Z</time>
      </trkpt>
      <trkpt lat="46.83542" lon="-0.8574">
        <ele>196.3</ele>
        <time>2026-03-28T11:50:38.559Z</time>
      </trkpt>
      <trkpt lat="46.83542" lon="-0.85783">
        <ele>193.9</ele>
        <time>2026-03-28T11:50:41.134Z</time>
      </trkpt>
      <trkpt lat="46.83526" lon="-0.85818">
        <ele>194.5</ele>
        <time>2026-03-28T11:50:46.327Z</time>
      </trkpt>
      <trkpt lat="46.83506" lon="-0.85845">
        <ele>196.3</ele>
        <time>2026-03-28T11:50:54.890Z</time>
      </trkpt>
      <trkpt lat="46.83485" lon="-0.8586">
        <ele>197.7</ele>
        <time>2026-03-28T11:51:01.655Z</time>
      </trkpt>
      <trkpt lat="46.83407" lon="-0.85877">
        <ele>201</ele>
        <time>2026-03-28T11:51:19.780Z</time>
      </trkpt>
      <trkpt lat="46.83401" lon="-0.85895">
        <ele>201.1</ele>
        <time>2026-03-28T11:51:21.926Z</time>
      </trkpt>
      <trkpt lat="46.83395" lon="-0.85905">
        <ele>201.5</ele>
        <time>2026-03-28T11:51:24.072Z</time>
      </trkpt>
      <trkpt lat="46.83389" lon="-0.85911">
        <ele>201.8</ele>
        <time>2026-03-28T11:51:25.731Z</time>
      </trkpt>
      <trkpt lat="46.83364" lon="-0.85919">
        <ele>204.9</ele>
        <time>2026-03-28T11:51:41.088Z</time>
      </trkpt>
      <trkpt lat="46.83338" lon="-0.85939">
        <ele>205.9</ele>
        <time>2026-03-28T11:51:47.237Z</time>
      </trkpt>
      <trkpt lat="46.83319" lon="-0.85966">
        <ele>207.2</ele>
        <time>2026-03-28T11:51:53.901Z</time>
      </trkpt>
      <trkpt lat="46.83303" lon="-0.86001">
        <ele>208.9</ele>
        <time>2026-03-28T11:52:02.141Z</time>
      </trkpt>
      <trkpt lat="46.83293" lon="-0.86068">
        <ele>212</ele>
        <time>2026-03-28T11:52:16.889Z</time>
      </trkpt>
      <trkpt lat="46.83282" lon="-0.86121">
        <ele>213.5</ele>
        <time>2026-03-28T11:52:25.362Z</time>
      </trkpt>
      <trkpt lat="46.83238" lon="-0.86155">
        <ele>211.7</ele>
        <time>2026-03-28T11:52:30.710Z</time>
      </trkpt>
      <trkpt lat="46.83201" lon="-0.86178">
        <ele>211.1</ele>
        <time>2026-03-28T11:52:35.834Z</time>
      </trkpt>
      <trkpt lat="46.83211" lon="-0.86224">
        <ele>212.7</ele>
        <time>2026-03-28T11:52:44.074Z</time>
      </trkpt>
      <trkpt lat="46.83217" lon="-0.86279">
        <ele>214.8</ele>
        <time>2026-03-28T11:52:54.430Z</time>
      </trkpt>
      <trkpt lat="46.8322" lon="-0.86325">
        <ele>215.9</ele>
        <time>2026-03-28T11:53:01.106Z</time>
      </trkpt>
      <trkpt lat="46.83219" lon="-0.86335">
        <ele>215.9</ele>
        <time>2026-03-28T11:53:02.115Z</time>
      </trkpt>
      <trkpt lat="46.83213" lon="-0.86346">
        <ele>216</ele>
        <time>2026-03-28T11:53:03.670Z</time>
      </trkpt>
      <trkpt lat="46.83196" lon="-0.86359">
        <ele>215.1</ele>
        <time>2026-03-28T11:53:05.579Z</time>
      </trkpt>
      <trkpt lat="46.8319" lon="-0.86368">
        <ele>215.2</ele>
        <time>2026-03-28T11:53:06.985Z</time>
      </trkpt>
      <trkpt lat="46.8318" lon="-0.86364">
        <ele>215.1</ele>
        <time>2026-03-28T11:53:08.369Z</time>
      </trkpt>
      <trkpt lat="46.83052" lon="-0.86353">
        <ele>212.7</ele>
        <time>2026-03-28T11:53:24.190Z</time>
      </trkpt>
      <trkpt lat="46.83034" lon="-0.86354">
        <ele>212.7</ele>
        <time>2026-03-28T11:53:26.818Z</time>
      </trkpt>
      <trkpt lat="46.83028" lon="-0.86358">
        <ele>212.9</ele>
        <time>2026-03-28T11:53:28.140Z</time>
      </trkpt>
      <trkpt lat="46.83024" lon="-0.86357">
        <ele>212.6</ele>
        <time>2026-03-28T11:53:28.495Z</time>
      </trkpt>
      <trkpt lat="46.83016" lon="-0.86368">
        <ele>212.3</ele>
        <time>2026-03-28T11:53:29.759Z</time>
      </trkpt>
      <trkpt lat="46.83003" lon="-0.86411">
        <ele>212.9</ele>
        <time>2026-03-28T11:53:35.424Z</time>
      </trkpt>
      <trkpt lat="46.82979" lon="-0.86461">
        <ele>213.6</ele>
        <time>2026-03-28T11:53:42.636Z</time>
      </trkpt>
      <trkpt lat="46.82931" lon="-0.86524">
        <ele>215.4</ele>
        <time>2026-03-28T11:53:55.217Z</time>
      </trkpt>
      <trkpt lat="46.82886" lon="-0.8657">
        <ele>217.5</ele>
        <time>2026-03-28T11:54:07.299Z</time>
      </trkpt>
      <trkpt lat="46.82833" lon="-0.86606">
        <ele>216.8</ele>
        <time>2026-03-28T11:54:14.940Z</time>
      </trkpt>
      <trkpt lat="46.82804" lon="-0.86602">
        <ele>214.9</ele>
        <time>2026-03-28T11:54:17.513Z</time>
      </trkpt>
      <trkpt lat="46.82646" lon="-0.86554">
        <ele>206.3</ele>
        <time>2026-03-28T11:54:32.887Z</time>
      </trkpt>
      <trkpt lat="46.82557" lon="-0.86533">
        <ele>202.7</ele>
        <time>2026-03-28T11:54:42.309Z</time>
      </trkpt>
      <trkpt lat="46.82521" lon="-0.86528">
        <ele>203.5</ele>
        <time>2026-03-28T11:54:48.922Z</time>
      </trkpt>
      <trkpt lat="46.82474" lon="-0.86531">
        <ele>205.8</ele>
        <time>2026-03-28T11:55:00.726Z</time>
      </trkpt>
      <trkpt lat="46.82434" lon="-0.8653">
        <ele>208.6</ele>
        <time>2026-03-28T11:55:13.987Z</time>
      </trkpt>
      <trkpt lat="46.82388" lon="-0.86516">
        <ele>212.5</ele>
        <time>2026-03-28T11:55:32.578Z</time>
      </trkpt>
      <trkpt lat="46.82368" lon="-0.86516">
        <ele>214.7</ele>
        <time>2026-03-28T11:55:43.562Z</time>
      </trkpt>
      <trkpt lat="46.823" lon="-0.86536">
        <ele>218.1</ele>
        <time>2026-03-28T11:56:00.995Z</time>
      </trkpt>
      <trkpt lat="46.82271" lon="-0.86549">
        <ele>218</ele>
        <time>2026-03-28T11:56:05.285Z</time>
      </trkpt>
      <trkpt lat="46.82228" lon="-0.86584">
        <ele>214.4</ele>
        <time>2026-03-28T11:56:09.593Z</time>
      </trkpt>
      <trkpt lat="46.82173" lon="-0.86634">
        <ele>211.9</ele>
        <time>2026-03-28T11:56:16.429Z</time>
      </trkpt>
      <trkpt lat="46.82127" lon="-0.86684">
        <ele>212.3</ele>
        <time>2026-03-28T11:56:25.380Z</time>
      </trkpt>
      <trkpt lat="46.82077" lon="-0.86726">
        <ele>214.4</ele>
        <time>2026-03-28T11:56:37.794Z</time>
      </trkpt>
      <trkpt lat="46.82014" lon="-0.86797">
        <ele>217.7</ele>
        <time>2026-03-28T11:56:55.998Z</time>
      </trkpt>
      <trkpt lat="46.81953" lon="-0.86885">
        <ele>217.4</ele>
        <time>2026-03-28T11:57:08.098Z</time>
      </trkpt>
      <trkpt lat="46.81907" lon="-0.86969">
        <ele>216</ele>
        <time>2026-03-28T11:57:17.159Z</time>
      </trkpt>
      <trkpt lat="46.81863" lon="-0.87038">
        <ele>215.6</ele>
        <time>2026-03-28T11:57:26.046Z</time>
      </trkpt>
      <trkpt lat="46.81846" lon="-0.87056">
        <ele>215.5</ele>
        <time>2026-03-28T11:57:28.975Z</time>
      </trkpt>
      <trkpt lat="46.81825" lon="-0.87071">
        <ele>214.9</ele>
        <time>2026-03-28T11:57:31.699Z</time>
      </trkpt>
      <trkpt lat="46.81782" lon="-0.87105">
        <ele>214.1</ele>
        <time>2026-03-28T11:57:37.853Z</time>
      </trkpt>
      <trkpt lat="46.81772" lon="-0.87121">
        <ele>213.9</ele>
        <time>2026-03-28T11:57:39.767Z</time>
      </trkpt>
      <trkpt lat="46.81761" lon="-0.87133">
        <ele>213.8</ele>
        <time>2026-03-28T11:57:41.638Z</time>
      </trkpt>
      <trkpt lat="46.81731" lon="-0.87162">
        <ele>214.4</ele>
        <time>2026-03-28T11:57:47.842Z</time>
      </trkpt>
      <trkpt lat="46.81688" lon="-0.87188">
        <ele>213.8</ele>
        <time>2026-03-28T11:57:53.878Z</time>
      </trkpt>
      <trkpt lat="46.81563" lon="-0.87233">
        <ele>209.6</ele>
        <time>2026-03-28T11:58:08.086Z</time>
      </trkpt>
      <trkpt lat="46.81539" lon="-0.87251">
        <ele>210.7</ele>
        <time>2026-03-28T11:58:14.206Z</time>
      </trkpt>
      <trkpt lat="46.81473" lon="-0.87335">
        <ele>213.9</ele>
        <time>2026-03-28T11:58:33.080Z</time>
      </trkpt>
      <trkpt lat="46.8141" lon="-0.87403">
        <ele>213</ele>
        <time>2026-03-28T11:58:43.365Z</time>
      </trkpt>
      <trkpt lat="46.81323" lon="-0.87506">
        <ele>212.7</ele>
        <time>2026-03-28T11:58:59.292Z</time>
      </trkpt>
      <trkpt lat="46.81264" lon="-0.87585">
        <ele>212.5</ele>
        <time>2026-03-28T11:59:10.694Z</time>
      </trkpt>
      <trkpt lat="46.81224" lon="-0.87642">
        <ele>212.8</ele>
        <time>2026-03-28T11:59:19.280Z</time>
      </trkpt>
      <trkpt lat="46.8118" lon="-0.87691">
        <ele>211.7</ele>
        <time>2026-03-28T11:59:26.040Z</time>
      </trkpt>
      <trkpt lat="46.81076" lon="-0.87785">
        <ele>201</ele>
        <time>2026-03-28T11:59:36.744Z</time>
      </trkpt>
      <trkpt lat="46.81015" lon="-0.8783">
        <ele>197.2</ele>
        <time>2026-03-28T11:59:43.155Z</time>
      </trkpt>
      <trkpt lat="46.80966" lon="-0.87847">
        <ele>194.7</ele>
        <time>2026-03-28T11:59:48.072Z</time>
      </trkpt>
      <trkpt lat="46.80944" lon="-0.87862">
        <ele>193</ele>
        <time>2026-03-28T11:59:50.197Z</time>
      </trkpt>
      <trkpt lat="46.80905" lon="-0.87894">
        <ele>190.1</ele>
        <time>2026-03-28T11:59:54.157Z</time>
      </trkpt>
      <trkpt lat="46.80763" lon="-0.88048">
        <ele>176.9</ele>
        <time>2026-03-28T12:00:09.636Z</time>
      </trkpt>
      <trkpt lat="46.80718" lon="-0.88099">
        <ele>172.3</ele>
        <time>2026-03-28T12:00:14.621Z</time>
      </trkpt>
      <trkpt lat="46.80718" lon="-0.881">
        <ele>172.2</ele>
        <time>2026-03-28T12:00:14.681Z</time>
      </trkpt>
      <trkpt lat="46.806" lon="-0.88234">
        <ele>161.2</ele>
        <time>2026-03-28T12:00:27.762Z</time>
      </trkpt>
      <trkpt lat="46.80556" lon="-0.88301">
        <ele>158</ele>
        <time>2026-03-28T12:00:33.937Z</time>
      </trkpt>
      <trkpt lat="46.80529" lon="-0.88354">
        <ele>156.1</ele>
        <time>2026-03-28T12:00:38.593Z</time>
      </trkpt>
      <trkpt lat="46.8052" lon="-0.88378">
        <ele>156.2</ele>
        <time>2026-03-28T12:00:41.470Z</time>
      </trkpt>
      <trkpt lat="46.80506" lon="-0.88408">
        <ele>156.8</ele>
        <time>2026-03-28T12:00:46.117Z</time>
      </trkpt>
      <trkpt lat="46.80437" lon="-0.88498">
        <ele>157.7</ele>
        <time>2026-03-28T12:01:00.963Z</time>
      </trkpt>
      <trkpt lat="46.80393" lon="-0.88553">
        <ele>157.1</ele>
        <time>2026-03-28T12:01:08.643Z</time>
      </trkpt>
      <trkpt lat="46.80374" lon="-0.88584">
        <ele>155.4</ele>
        <time>2026-03-28T12:01:11.246Z</time>
      </trkpt>
      <trkpt lat="46.80356" lon="-0.88635">
        <ele>153.8</ele>
        <time>2026-03-28T12:01:15.328Z</time>
      </trkpt>
      <trkpt lat="46.80329" lon="-0.88695">
        <ele>151.7</ele>
        <time>2026-03-28T12:01:20.363Z</time>
      </trkpt>
      <trkpt lat="46.80284" lon="-0.88767">
        <ele>150.9</ele>
        <time>2026-03-28T12:01:29.088Z</time>
      </trkpt>
      <trkpt lat="46.80231" lon="-0.88842">
        <ele>149.3</ele>
        <time>2026-03-28T12:01:37.970Z</time>
      </trkpt>
      <trkpt lat="46.80151" lon="-0.88923">
        <ele>143.3</ele>
        <time>2026-03-28T12:01:46.759Z</time>
      </trkpt>
      <trkpt lat="46.8007" lon="-0.89002">
        <ele>139.5</ele>
        <time>2026-03-28T12:01:57.007Z</time>
      </trkpt>
      <trkpt lat="46.80053" lon="-0.89031">
        <ele>138.8</ele>
        <time>2026-03-28T12:02:00.026Z</time>
      </trkpt>
      <trkpt lat="46.80024" lon="-0.89124">
        <ele>134.5</ele>
        <time>2026-03-28T12:02:06.349Z</time>
      </trkpt>
      <trkpt lat="46.80015" lon="-0.89162">
        <ele>133.2</ele>
        <time>2026-03-28T12:02:09.081Z</time>
      </trkpt>
      <trkpt lat="46.80007" lon="-0.89178">
        <ele>132.4</ele>
        <time>2026-03-28T12:02:10.326Z</time>
      </trkpt>
      <trkpt lat="46.79984" lon="-0.89203">
        <ele>129.9</ele>
        <time>2026-03-28T12:02:12.835Z</time>
      </trkpt>
      <trkpt lat="46.79977" lon="-0.89217">
        <ele>128.7</ele>
        <time>2026-03-28T12:02:13.874Z</time>
      </trkpt>
      <trkpt lat="46.79964" lon="-0.89225">
        <ele>127.7</ele>
        <time>2026-03-28T12:02:15.109Z</time>
      </trkpt>
      <trkpt lat="46.79926" lon="-0.8924">
        <ele>125.7</ele>
        <time>2026-03-28T12:02:18.921Z</time>
      </trkpt>
      <trkpt lat="46.79907" lon="-0.8924">
        <ele>125</ele>
        <time>2026-03-28T12:02:20.953Z</time>
      </trkpt>
      <trkpt lat="46.79846" lon="-0.89232">
        <ele>123.6</ele>
        <time>2026-03-28T12:02:28.255Z</time>
      </trkpt>
      <trkpt lat="46.79824" lon="-0.89238">
        <ele>123.4</ele>
        <time>2026-03-28T12:02:31.261Z</time>
      </trkpt>
      <trkpt lat="46.79809" lon="-0.89248">
        <ele>123.1</ele>
        <time>2026-03-28T12:02:33.305Z</time>
      </trkpt>
      <trkpt lat="46.79792" lon="-0.89267">
        <ele>122.4</ele>
        <time>2026-03-28T12:02:35.666Z</time>
      </trkpt>
      <trkpt lat="46.79766" lon="-0.89305">
        <ele>121</ele>
        <time>2026-03-28T12:02:39.563Z</time>
      </trkpt>
      <trkpt lat="46.79713" lon="-0.89395">
        <ele>119.9</ele>
        <time>2026-03-28T12:02:50.045Z</time>
      </trkpt>
      <trkpt lat="46.79664" lon="-0.89465">
        <ele>118.3</ele>
        <time>2026-03-28T12:02:58.184Z</time>
      </trkpt>
      <trkpt lat="46.79641" lon="-0.89503">
        <ele>117.9</ele>
        <time>2026-03-28T12:03:02.743Z</time>
      </trkpt>
      <trkpt lat="46.79672" lon="-0.89579">
        <ele>116</ele>
        <time>2026-03-28T12:03:09.492Z</time>
      </trkpt>
      <trkpt lat="46.79709" lon="-0.89647">
        <ele>113.2</ele>
        <time>2026-03-28T12:03:15.400Z</time>
      </trkpt>
      <trkpt lat="46.79761" lon="-0.89731">
        <ele>107.5</ele>
        <time>2026-03-28T12:03:22.186Z</time>
      </trkpt>
      <trkpt lat="46.79798" lon="-0.89777">
        <ele>105</ele>
        <time>2026-03-28T12:03:26.871Z</time>
      </trkpt>
      <trkpt lat="46.7982" lon="-0.89811">
        <ele>103.5</ele>
        <time>2026-03-28T12:03:30.059Z</time>
      </trkpt>
      <trkpt lat="46.79871" lon="-0.89983">
        <ele>108.8</ele>
        <time>2026-03-28T12:03:59.357Z</time>
      </trkpt>
      <trkpt lat="46.79892" lon="-0.90061">
        <ele>112</ele>
        <time>2026-03-28T12:04:15.086Z</time>
      </trkpt>
      <trkpt lat="46.79894" lon="-0.90103">
        <ele>116</ele>
        <time>2026-03-28T12:04:33.105Z</time>
      </trkpt>
      <trkpt lat="46.79888" lon="-0.90244">
        <ele>123</ele>
        <time>2026-03-28T12:05:06.221Z</time>
      </trkpt>
      <trkpt lat="46.79887" lon="-0.90353">
        <ele>125.7</ele>
        <time>2026-03-28T12:05:22.240Z</time>
      </trkpt>
      <trkpt lat="46.79876" lon="-0.90425">
        <ele>125.5</ele>
        <time>2026-03-28T12:05:29.338Z</time>
      </trkpt>
      <trkpt lat="46.79874" lon="-0.90462">
        <ele>126.1</ele>
        <time>2026-03-28T12:05:34.061Z</time>
      </trkpt>
      <trkpt lat="46.79869" lon="-0.90711">
        <ele>133.6</ele>
        <time>2026-03-28T12:06:14.299Z</time>
      </trkpt>
      <trkpt lat="46.79862" lon="-0.90738">
        <ele>134.6</ele>
        <time>2026-03-28T12:06:19.367Z</time>
      </trkpt>
      <trkpt lat="46.79833" lon="-0.90792">
        <ele>135</ele>
        <time>2026-03-28T12:06:26.816Z</time>
      </trkpt>
      <trkpt lat="46.79823" lon="-0.90827">
        <ele>136</ele>
        <time>2026-03-28T12:06:32.547Z</time>
      </trkpt>
      <trkpt lat="46.79796" lon="-0.90995">
        <ele>138.1</ele>
        <time>2026-03-28T12:06:53.160Z</time>
      </trkpt>
      <trkpt lat="46.79796" lon="-0.90996">
        <ele>138.2</ele>
        <time>2026-03-28T12:06:53.588Z</time>
      </trkpt>
      <trkpt lat="46.79788" lon="-0.91069">
        <ele>140.2</ele>
        <time>2026-03-28T12:07:04.896Z</time>
      </trkpt>
      <trkpt lat="46.7979" lon="-0.91097">
        <ele>141.2</ele>
        <time>2026-03-28T12:07:09.920Z</time>
      </trkpt>
      <trkpt lat="46.79824" lon="-0.9117">
        <ele>142.7</ele>
        <time>2026-03-28T12:07:21.306Z</time>
      </trkpt>
      <trkpt lat="46.79843" lon="-0.91206">
        <ele>143.3</ele>
        <time>2026-03-28T12:07:26.824Z</time>
      </trkpt>
      <trkpt lat="46.79847" lon="-0.9125">
        <ele>142.5</ele>
        <time>2026-03-28T12:07:30.347Z</time>
      </trkpt>
      <trkpt lat="46.79852" lon="-0.9126">
        <ele>142.1</ele>
        <time>2026-03-28T12:07:31.188Z</time>
      </trkpt>
      <trkpt lat="46.79869" lon="-0.91271">
        <ele>141.8</ele>
        <time>2026-03-28T12:07:33.533Z</time>
      </trkpt>
      <trkpt lat="46.799" lon="-0.91315">
        <ele>140.1</ele>
        <time>2026-03-28T12:07:38.071Z</time>
      </trkpt>
      <trkpt lat="46.79904" lon="-0.9133">
        <ele>139.7</ele>
        <time>2026-03-28T12:07:39.254Z</time>
      </trkpt>
      <trkpt lat="46.79896" lon="-0.91345">
        <ele>139.8</ele>
        <time>2026-03-28T12:07:41.300Z</time>
      </trkpt>
      <trkpt lat="46.79852" lon="-0.91378">
        <ele>138.1</ele>
        <time>2026-03-28T12:07:46.687Z</time>
      </trkpt>
      <trkpt lat="46.79814" lon="-0.9142">
        <ele>136.7</ele>
        <time>2026-03-28T12:07:52.080Z</time>
      </trkpt>
      <trkpt lat="46.79797" lon="-0.91443">
        <ele>136.3</ele>
        <time>2026-03-28T12:07:54.975Z</time>
      </trkpt>
      <trkpt lat="46.79789" lon="-0.91468">
        <ele>136.2</ele>
        <time>2026-03-28T12:07:57.598Z</time>
      </trkpt>
      <trkpt lat="46.79781" lon="-0.91558">
        <ele>137.3</ele>
        <time>2026-03-28T12:08:08.430Z</time>
      </trkpt>
      <trkpt lat="46.79769" lon="-0.91603">
        <ele>138.2</ele>
        <time>2026-03-28T12:08:14.828Z</time>
      </trkpt>
      <trkpt lat="46.79747" lon="-0.91652">
        <ele>138.4</ele>
        <time>2026-03-28T12:08:20.969Z</time>
      </trkpt>
      <trkpt lat="46.7972" lon="-0.91761">
        <ele>136.9</ele>
        <time>2026-03-28T12:08:30.745Z</time>
      </trkpt>
      <trkpt lat="46.79698" lon="-0.91838">
        <ele>135.3</ele>
        <time>2026-03-28T12:08:37.280Z</time>
      </trkpt>
      <trkpt lat="46.79692" lon="-0.91877">
        <ele>134.8</ele>
        <time>2026-03-28T12:08:40.669Z</time>
      </trkpt>
      <trkpt lat="46.79682" lon="-0.92069">
        <ele>130.3</ele>
        <time>2026-03-28T12:08:55.052Z</time>
      </trkpt>
      <trkpt lat="46.7967" lon="-0.92125">
        <ele>125.9</ele>
        <time>2026-03-28T12:08:58.568Z</time>
      </trkpt>
      <trkpt lat="46.79621" lon="-0.92203">
        <ele>121.2</ele>
        <time>2026-03-28T12:09:04.983Z</time>
      </trkpt>
      <trkpt lat="46.7959" lon="-0.92271">
        <ele>120.2</ele>
        <time>2026-03-28T12:09:11.933Z</time>
      </trkpt>
      <trkpt lat="46.79556" lon="-0.92383">
        <ele>125</ele>
        <time>2026-03-28T12:09:35.370Z</time>
      </trkpt>
      <trkpt lat="46.79539" lon="-0.92416">
        <ele>127</ele>
        <time>2026-03-28T12:09:44.837Z</time>
      </trkpt>
      <trkpt lat="46.7953" lon="-0.9243">
        <ele>127.5</ele>
        <time>2026-03-28T12:09:47.722Z</time>
      </trkpt>
      <trkpt lat="46.79516" lon="-0.92437">
        <ele>127.7</ele>
        <time>2026-03-28T12:09:50.191Z</time>
      </trkpt>
      <trkpt lat="46.7942" lon="-0.92469">
        <ele>125.1</ele>
        <time>2026-03-28T12:10:01.600Z</time>
      </trkpt>
      <trkpt lat="46.79438" lon="-0.92582">
        <ele>126.5</ele>
        <time>2026-03-28T12:10:15.437Z</time>
      </trkpt>
      <trkpt lat="46.79364" lon="-0.9245">
        <ele>119.6</ele>
        <time>2026-03-28T12:10:26.155Z</time>
      </trkpt>
      <trkpt lat="46.7935" lon="-0.9243">
        <ele>118</ele>
        <time>2026-03-28T12:10:27.869Z</time>
      </trkpt>
      <trkpt lat="46.79344" lon="-0.92425">
        <ele>117.3</ele>
        <time>2026-03-28T12:10:28.473Z</time>
      </trkpt>
      <trkpt lat="46.79337" lon="-0.92422">
        <ele>116.6</ele>
        <time>2026-03-28T12:10:29.112Z</time>
      </trkpt>
      <trkpt lat="46.79333" lon="-0.92427">
        <ele>116.4</ele>
        <time>2026-03-28T12:10:29.670Z</time>
      </trkpt>
      <trkpt lat="46.7933" lon="-0.92426">
        <ele>116.2</ele>
        <time>2026-03-28T12:10:29.942Z</time>
      </trkpt>
      <trkpt lat="46.79327" lon="-0.92423">
        <ele>116</ele>
        <time>2026-03-28T12:10:30.285Z</time>
      </trkpt>
      <trkpt lat="46.7931" lon="-0.92436">
        <ele>115.9</ele>
        <time>2026-03-28T12:10:32.951Z</time>
      </trkpt>
      <trkpt lat="46.79301" lon="-0.92446">
        <ele>116.2</ele>
        <time>2026-03-28T12:10:35.122Z</time>
      </trkpt>
      <trkpt lat="46.79295" lon="-0.92455">
        <ele>116.8</ele>
        <time>2026-03-28T12:10:37.964Z</time>
      </trkpt>
      <trkpt lat="46.79288" lon="-0.9247">
        <ele>117.6</ele>
        <time>2026-03-28T12:10:41.783Z</time>
      </trkpt>
      <trkpt lat="46.79267" lon="-0.92519">
        <ele>119.3</ele>
        <time>2026-03-28T12:10:51.004Z</time>
      </trkpt>
      <trkpt lat="46.79313" lon="-0.92562">
        <ele>119.7</ele>
        <time>2026-03-28T12:10:59.560Z</time>
      </trkpt>
      <trkpt lat="46.79327" lon="-0.92596">
        <ele>120.9</ele>
        <time>2026-03-28T12:11:05.985Z</time>
      </trkpt>
      <trkpt lat="46.79334" lon="-0.92629">
        <ele>121.7</ele>
        <time>2026-03-28T12:11:10.923Z</time>
      </trkpt>
      <trkpt lat="46.79337" lon="-0.92693">
        <ele>123</ele>
        <time>2026-03-28T12:11:19.655Z</time>
      </trkpt>
      <trkpt lat="46.79332" lon="-0.92694">
        <ele>123</ele>
        <time>2026-03-28T12:11:20.391Z</time>
      </trkpt>
      <trkpt lat="46.79334" lon="-0.92729">
        <ele>123</ele>
        <time>2026-03-28T12:11:23.899Z</time>
      </trkpt>
      <trkpt lat="46.79323" lon="-0.92731">
        <ele>123.4</ele>
        <time>2026-03-28T12:11:26.276Z</time>
      </trkpt>
      <trkpt lat="46.79325" lon="-0.92775">
        <ele>123.9</ele>
        <time>2026-03-28T12:11:31.476Z</time>
      </trkpt>
      <trkpt lat="46.79345" lon="-0.92829">
        <ele>124.4</ele>
        <time>2026-03-28T12:11:38.373Z</time>
      </trkpt>
      <trkpt lat="46.7936" lon="-0.92859">
        <ele>125</ele>
        <time>2026-03-28T12:11:43.099Z</time>
      </trkpt>
      <trkpt lat="46.79379" lon="-0.92923">
        <ele>127.9</ele>
        <time>2026-03-28T12:11:57.074Z</time>
      </trkpt>
      <trkpt lat="46.7939" lon="-0.92939">
        <ele>128.8</ele>
        <time>2026-03-28T12:12:01.455Z</time>
      </trkpt>
      <trkpt lat="46.79444" lon="-0.93001">
        <ele>132</ele>
        <time>2026-03-28T12:12:18.197Z</time>
      </trkpt>
      <trkpt lat="46.7945" lon="-0.93028">
        <ele>133</ele>
        <time>2026-03-28T12:12:23.235Z</time>
      </trkpt>
      <trkpt lat="46.79464" lon="-0.93044">
        <ele>133.6</ele>
        <time>2026-03-28T12:12:26.943Z</time>
      </trkpt>
      <trkpt lat="46.79516" lon="-0.93081">
        <ele>136.6</ele>
        <time>2026-03-28T12:12:42.018Z</time>
      </trkpt>
      <trkpt lat="46.7953" lon="-0.93094">
        <ele>137.1</ele>
        <time>2026-03-28T12:12:45.337Z</time>
      </trkpt>
      <trkpt lat="46.79541" lon="-0.93106">
        <ele>137.5</ele>
        <time>2026-03-28T12:12:48.052Z</time>
      </trkpt>
      <trkpt lat="46.79575" lon="-0.93179">
        <ele>139.1</ele>
        <time>2026-03-28T12:12:59.651Z</time>
      </trkpt>
      <trkpt lat="46.79581" lon="-0.93189">
        <ele>139.1</ele>
        <time>2026-03-28T12:13:00.979Z</time>
      </trkpt>
      <trkpt lat="46.79611" lon="-0.93251">
        <ele>138</ele>
        <time>2026-03-28T12:13:07.263Z</time>
      </trkpt>
      <trkpt lat="46.79612" lon="-0.93257">
        <ele>138</ele>
        <time>2026-03-28T12:13:07.880Z</time>
      </trkpt>
      <trkpt lat="46.79615" lon="-0.93261">
        <ele>138</ele>
        <time>2026-03-28T12:13:08.473Z</time>
      </trkpt>
      <trkpt lat="46.79615" lon="-0.93272">
        <ele>138</ele>
        <time>2026-03-28T12:13:09.571Z</time>
      </trkpt>
      <trkpt lat="46.79617" lon="-0.93281">
        <ele>138</ele>
        <time>2026-03-28T12:13:10.516Z</time>
      </trkpt>
      <trkpt lat="46.7963" lon="-0.93303">
        <ele>137.4</ele>
        <time>2026-03-28T12:13:12.754Z</time>
      </trkpt>
      <trkpt lat="46.79634" lon="-0.93312">
        <ele>137.2</ele>
        <time>2026-03-28T12:13:13.600Z</time>
      </trkpt>
      <trkpt lat="46.79667" lon="-0.93471">
        <ele>134</ele>
        <time>2026-03-28T12:13:26.599Z</time>
      </trkpt>
      <trkpt lat="46.7967" lon="-0.9353">
        <ele>133.9</ele>
        <time>2026-03-28T12:13:32.371Z</time>
      </trkpt>
      <trkpt lat="46.79676" lon="-0.93557">
        <ele>133.9</ele>
        <time>2026-03-28T12:13:35.206Z</time>
      </trkpt>
      <trkpt lat="46.79687" lon="-0.93639">
        <ele>132</ele>
        <time>2026-03-28T12:13:41.492Z</time>
      </trkpt>
      <trkpt lat="46.79813" lon="-0.94253">
        <ele>124</ele>
        <time>2026-03-28T12:14:35.858Z</time>
      </trkpt>
      <trkpt lat="46.79819" lon="-0.94332">
        <ele>122.6</ele>
        <time>2026-03-28T12:14:42.197Z</time>
      </trkpt>
      <trkpt lat="46.79837" lon="-0.94467">
        <ele>119.9</ele>
        <time>2026-03-28T12:14:52.912Z</time>
      </trkpt>
      <trkpt lat="46.7985" lon="-0.94512">
        <ele>119</ele>
        <time>2026-03-28T12:14:56.770Z</time>
      </trkpt>
      <trkpt lat="46.79868" lon="-0.94555">
        <ele>118.7</ele>
        <time>2026-03-28T12:15:01.415Z</time>
      </trkpt>
      <trkpt lat="46.79899" lon="-0.94614">
        <ele>119</ele>
        <time>2026-03-28T12:15:09.279Z</time>
      </trkpt>
      <trkpt lat="46.79943" lon="-0.94693">
        <ele>120</ele>
        <time>2026-03-28T12:15:21.011Z</time>
      </trkpt>
      <trkpt lat="46.79993" lon="-0.94794">
        <ele>122.3</ele>
        <time>2026-03-28T12:15:37.474Z</time>
      </trkpt>
      <trkpt lat="46.8" lon="-0.9482">
        <ele>122</ele>
        <time>2026-03-28T12:15:39.895Z</time>
      </trkpt>
      <trkpt lat="46.80001" lon="-0.94838">
        <ele>122</ele>
        <time>2026-03-28T12:15:41.699Z</time>
      </trkpt>
      <trkpt lat="46.80001" lon="-0.94946">
        <ele>120</ele>
        <time>2026-03-28T12:15:50.221Z</time>
      </trkpt>
      <trkpt lat="46.80007" lon="-0.94989">
        <ele>119.4</ele>
        <time>2026-03-28T12:15:53.889Z</time>
      </trkpt>
      <trkpt lat="46.80009" lon="-0.94997">
        <ele>119.1</ele>
        <time>2026-03-28T12:15:54.451Z</time>
      </trkpt>
      <trkpt lat="46.80044" lon="-0.95066">
        <ele>117.6</ele>
        <time>2026-03-28T12:16:01.311Z</time>
      </trkpt>
      <trkpt lat="46.80056" lon="-0.95102">
        <ele>116.3</ele>
        <time>2026-03-28T12:16:04.028Z</time>
      </trkpt>
      <trkpt lat="46.80082" lon="-0.95263">
        <ele>112.6</ele>
        <time>2026-03-28T12:16:16.521Z</time>
      </trkpt>
      <trkpt lat="46.80105" lon="-0.95346">
        <ele>112.3</ele>
        <time>2026-03-28T12:16:25.062Z</time>
      </trkpt>
      <trkpt lat="46.80116" lon="-0.95436">
        <ele>112.2</ele>
        <time>2026-03-28T12:16:34.055Z</time>
      </trkpt>
      <trkpt lat="46.80128" lon="-0.95504">
        <ele>112.6</ele>
        <time>2026-03-28T12:16:41.661Z</time>
      </trkpt>
      <trkpt lat="46.80141" lon="-0.95547">
        <ele>112.4</ele>
        <time>2026-03-28T12:16:46.091Z</time>
      </trkpt>
      <trkpt lat="46.80154" lon="-0.95578">
        <ele>112.5</ele>
        <time>2026-03-28T12:16:49.865Z</time>
      </trkpt>
      <trkpt lat="46.80163" lon="-0.95594">
        <ele>112.5</ele>
        <time>2026-03-28T12:16:51.933Z</time>
      </trkpt>
      <trkpt lat="46.80187" lon="-0.95619">
        <ele>112.5</ele>
        <time>2026-03-28T12:16:56.233Z</time>
      </trkpt>
      <trkpt lat="46.80202" lon="-0.95643">
        <ele>111.9</ele>
        <time>2026-03-28T12:16:58.799Z</time>
      </trkpt>
      <trkpt lat="46.80209" lon="-0.95668">
        <ele>111</ele>
        <time>2026-03-28T12:17:00.616Z</time>
      </trkpt>
      <trkpt lat="46.80211" lon="-0.95702">
        <ele>110.7</ele>
        <time>2026-03-28T12:17:03.647Z</time>
      </trkpt>
      <trkpt lat="46.80209" lon="-0.95723">
        <ele>110</ele>
        <time>2026-03-28T12:17:05.078Z</time>
      </trkpt>
      <trkpt lat="46.80205" lon="-0.95744">
        <ele>109.7</ele>
        <time>2026-03-28T12:17:06.897Z</time>
      </trkpt>
      <trkpt lat="46.80181" lon="-0.95806">
        <ele>108</ele>
        <time>2026-03-28T12:17:12.188Z</time>
      </trkpt>
      <trkpt lat="46.80166" lon="-0.95862">
        <ele>105.9</ele>
        <time>2026-03-28T12:17:16.169Z</time>
      </trkpt>
      <trkpt lat="46.80152" lon="-0.95939">
        <ele>104.1</ele>
        <time>2026-03-28T12:17:22.171Z</time>
      </trkpt>
      <trkpt lat="46.80147" lon="-0.95979">
        <ele>103.2</ele>
        <time>2026-03-28T12:17:25.250Z</time>
      </trkpt>
      <trkpt lat="46.80148" lon="-0.96007">
        <ele>102.8</ele>
        <time>2026-03-28T12:17:27.577Z</time>
      </trkpt>
      <trkpt lat="46.80163" lon="-0.96157">
        <ele>101</ele>
        <time>2026-03-28T12:17:40.530Z</time>
      </trkpt>
      <trkpt lat="46.80183" lon="-0.96197">
        <ele>99.8</ele>
        <time>2026-03-28T12:17:44.195Z</time>
      </trkpt>
      <trkpt lat="46.8023" lon="-0.96279">
        <ele>99.3</ele>
        <time>2026-03-28T12:17:54.217Z</time>
      </trkpt>
      <trkpt lat="46.80238" lon="-0.963">
        <ele>99.7</ele>
        <time>2026-03-28T12:17:57.299Z</time>
      </trkpt>
      <trkpt lat="46.80256" lon="-0.96379">
        <ele>101.4</ele>
        <time>2026-03-28T12:18:08.660Z</time>
      </trkpt>
      <trkpt lat="46.80266" lon="-0.96448">
        <ele>102.1</ele>
        <time>2026-03-28T12:18:16.798Z</time>
      </trkpt>
      <trkpt lat="46.80362" lon="-0.96611">
        <ele>106</ele>
        <time>2026-03-28T12:18:45.051Z</time>
      </trkpt>
      <trkpt lat="46.80462" lon="-0.96733">
        <ele>104.6</ele>
        <time>2026-03-28T12:19:02.271Z</time>
      </trkpt>
      <trkpt lat="46.8048" lon="-0.96748">
        <ele>103.8</ele>
        <time>2026-03-28T12:19:04.458Z</time>
      </trkpt>
      <trkpt lat="46.80542" lon="-0.96784">
        <ele>102.4</ele>
        <time>2026-03-28T12:19:12.536Z</time>
      </trkpt>
      <trkpt lat="46.80554" lon="-0.96795">
        <ele>102.4</ele>
        <time>2026-03-28T12:19:14.603Z</time>
      </trkpt>
      <trkpt lat="46.80567" lon="-0.9681">
        <ele>102.4</ele>
        <time>2026-03-28T12:19:17.019Z</time>
      </trkpt>
      <trkpt lat="46.80622" lon="-0.96935">
        <ele>104.8</ele>
        <time>2026-03-28T12:19:35.923Z</time>
      </trkpt>
      <trkpt lat="46.80637" lon="-0.96957">
        <ele>105.4</ele>
        <time>2026-03-28T12:19:40.083Z</time>
      </trkpt>
      <trkpt lat="46.80694" lon="-0.97013">
        <ele>107</ele>
        <time>2026-03-28T12:19:52.806Z</time>
      </trkpt>
      <trkpt lat="46.80712" lon="-0.97039">
        <ele>108.3</ele>
        <time>2026-03-28T12:19:59.361Z</time>
      </trkpt>
      <trkpt lat="46.80721" lon="-0.97058">
        <ele>108.9</ele>
        <time>2026-03-28T12:20:02.827Z</time>
      </trkpt>
      <trkpt lat="46.8074" lon="-0.9712">
        <ele>109.3</ele>
        <time>2026-03-28T12:20:10.206Z</time>
      </trkpt>
      <trkpt lat="46.80786" lon="-0.97223">
        <ele>110.6</ele>
        <time>2026-03-28T12:20:24.536Z</time>
      </trkpt>
      <trkpt lat="46.80806" lon="-0.9731">
        <ele>109</ele>
        <time>2026-03-28T12:20:31.868Z</time>
      </trkpt>
      <trkpt lat="46.80841" lon="-0.97425">
        <ele>109.1</ele>
        <time>2026-03-28T12:20:44.575Z</time>
      </trkpt>
      <trkpt lat="46.80862" lon="-0.97481">
        <ele>110</ele>
        <time>2026-03-28T12:20:52.435Z</time>
      </trkpt>
      <trkpt lat="46.80885" lon="-0.97552">
        <ele>110.9</ele>
        <time>2026-03-28T12:21:01.713Z</time>
      </trkpt>
      <trkpt lat="46.80891" lon="-0.97585">
        <ele>111</ele>
        <time>2026-03-28T12:21:05.266Z</time>
      </trkpt>
      <trkpt lat="46.80895" lon="-0.97617">
        <ele>110.8</ele>
        <time>2026-03-28T12:21:08.255Z</time>
      </trkpt>
      <trkpt lat="46.80897" lon="-0.9767">
        <ele>110</ele>
        <time>2026-03-28T12:21:12.617Z</time>
      </trkpt>
      <trkpt lat="46.80897" lon="-0.97725">
        <ele>110</ele>
        <time>2026-03-28T12:21:18.108Z</time>
      </trkpt>
      <trkpt lat="46.8089" lon="-0.97815">
        <ele>110</ele>
        <time>2026-03-28T12:21:27.152Z</time>
      </trkpt>
      <trkpt lat="46.80898" lon="-0.97887">
        <ele>109.7</ele>
        <time>2026-03-28T12:21:34.038Z</time>
      </trkpt>
      <trkpt lat="46.80911" lon="-0.97962">
        <ele>109.2</ele>
        <time>2026-03-28T12:21:41.119Z</time>
      </trkpt>
      <trkpt lat="46.80929" lon="-0.98019">
        <ele>108.9</ele>
        <time>2026-03-28T12:21:46.993Z</time>
      </trkpt>
      <trkpt lat="46.81092" lon="-0.98442">
        <ele>103.5</ele>
        <time>2026-03-28T12:22:28.853Z</time>
      </trkpt>
      <trkpt lat="46.81116" lon="-0.98517">
        <ele>99.1</ele>
        <time>2026-03-28T12:22:33.812Z</time>
      </trkpt>
      <trkpt lat="46.81121" lon="-0.98542">
        <ele>98.3</ele>
        <time>2026-03-28T12:22:35.611Z</time>
      </trkpt>
      <trkpt lat="46.81213" lon="-0.98578">
        <ele>92.6</ele>
        <time>2026-03-28T12:22:44.307Z</time>
      </trkpt>
      <trkpt lat="46.81404" lon="-0.98641">
        <ele>102.1</ele>
        <time>2026-03-28T12:23:33.208Z</time>
      </trkpt>
      <trkpt lat="46.81547" lon="-0.98686">
        <ele>109.7</ele>
        <time>2026-03-28T12:24:11.376Z</time>
      </trkpt>
      <trkpt lat="46.81728" lon="-0.9875">
        <ele>115</ele>
        <time>2026-03-28T12:24:47.923Z</time>
      </trkpt>
      <trkpt lat="46.81762" lon="-0.98767">
        <ele>115</ele>
        <time>2026-03-28T12:24:53.165Z</time>
      </trkpt>
      <trkpt lat="46.81905" lon="-0.98862">
        <ele>108.4</ele>
        <time>2026-03-28T12:25:09.339Z</time>
      </trkpt>
      <trkpt lat="46.81974" lon="-0.98906">
        <ele>104</ele>
        <time>2026-03-28T12:25:16.274Z</time>
      </trkpt>
      <trkpt lat="46.82033" lon="-0.98947">
        <ele>107.4</ele>
        <time>2026-03-28T12:25:33.340Z</time>
      </trkpt>
      <trkpt lat="46.82151" lon="-0.99023">
        <ele>114.3</ele>
        <time>2026-03-28T12:26:07.667Z</time>
      </trkpt>
      <trkpt lat="46.8217" lon="-0.99039">
        <ele>115.4</ele>
        <time>2026-03-28T12:26:13.259Z</time>
      </trkpt>
      <trkpt lat="46.82185" lon="-0.99056">
        <ele>116</ele>
        <time>2026-03-28T12:26:17.122Z</time>
      </trkpt>
      <trkpt lat="46.82204" lon="-0.99089">
        <ele>117.1</ele>
        <time>2026-03-28T12:26:23.540Z</time>
      </trkpt>
      <trkpt lat="46.82232" lon="-0.99222">
        <ele>116.4</ele>
        <time>2026-03-28T12:26:36.514Z</time>
      </trkpt>
      <trkpt lat="46.82254" lon="-0.99322">
        <ele>112.8</ele>
        <time>2026-03-28T12:26:43.509Z</time>
      </trkpt>
      <trkpt lat="46.8226" lon="-0.99367">
        <ele>111.5</ele>
        <time>2026-03-28T12:26:46.753Z</time>
      </trkpt>
      <trkpt lat="46.82259" lon="-0.9945">
        <ele>108.2</ele>
        <time>2026-03-28T12:26:51.997Z</time>
      </trkpt>
      <trkpt lat="46.82303" lon="-0.99479">
        <ele>108</ele>
        <time>2026-03-28T12:26:58.770Z</time>
      </trkpt>
      <trkpt lat="46.82321" lon="-0.99495">
        <ele>109.2</ele>
        <time>2026-03-28T12:27:04.636Z</time>
      </trkpt>
      <trkpt lat="46.8235" lon="-0.99565">
        <ele>106.1</ele>
        <time>2026-03-28T12:27:09.898Z</time>
      </trkpt>
      <trkpt lat="46.82377" lon="-0.996">
        <ele>102.7</ele>
        <time>2026-03-28T12:27:13.057Z</time>
      </trkpt>
      <trkpt lat="46.82408" lon="-0.99618">
        <ele>100.7</ele>
        <time>2026-03-28T12:27:16.101Z</time>
      </trkpt>
      <trkpt lat="46.82499" lon="-0.99631">
        <ele>96.6</ele>
        <time>2026-03-28T12:27:25.328Z</time>
      </trkpt>
      <trkpt lat="46.82565" lon="-0.99644">
        <ele>90</ele>
        <time>2026-03-28T12:27:31.157Z</time>
      </trkpt>
      <trkpt lat="46.82582" lon="-0.99652">
        <ele>88.6</ele>
        <time>2026-03-28T12:27:32.721Z</time>
      </trkpt>
      <trkpt lat="46.82597" lon="-0.99662">
        <ele>89</ele>
        <time>2026-03-28T12:27:35.807Z</time>
      </trkpt>
      <trkpt lat="46.82608" lon="-0.99675">
        <ele>90.1</ele>
        <time>2026-03-28T12:27:41.020Z</time>
      </trkpt>
      <trkpt lat="46.82622" lon="-0.9969">
        <ele>91</ele>
        <time>2026-03-28T12:27:45.543Z</time>
      </trkpt>
      <trkpt lat="46.82635" lon="-0.99715">
        <ele>93</ele>
        <time>2026-03-28T12:27:55.257Z</time>
      </trkpt>
      <trkpt lat="46.82655" lon="-0.99768">
        <ele>95.6</ele>
        <time>2026-03-28T12:28:07.712Z</time>
      </trkpt>
      <trkpt lat="46.82705" lon="-0.99918">
        <ele>100</ele>
        <time>2026-03-28T12:28:32.920Z</time>
      </trkpt>
      <trkpt lat="46.82771" lon="-1.00128">
        <ele>106.7</ele>
        <time>2026-03-28T12:29:09.498Z</time>
      </trkpt>
      <trkpt lat="46.82796" lon="-1.00194">
        <ele>106.7</ele>
        <time>2026-03-28T12:29:17.027Z</time>
      </trkpt>
      <trkpt lat="46.8281" lon="-1.00223">
        <ele>108.1</ele>
        <time>2026-03-28T12:29:23.851Z</time>
      </trkpt>
      <trkpt lat="46.82826" lon="-1.00254">
        <ele>109.4</ele>
        <time>2026-03-28T12:29:30.521Z</time>
      </trkpt>
      <trkpt lat="46.82865" lon="-1.00303">
        <ele>110.9</ele>
        <time>2026-03-28T12:29:40.695Z</time>
      </trkpt>
      <trkpt lat="46.82898" lon="-1.00324">
        <ele>111.7</ele>
        <time>2026-03-28T12:29:47.284Z</time>
      </trkpt>
      <trkpt lat="46.82947" lon="-1.00344">
        <ele>112.7</ele>
        <time>2026-03-28T12:29:56.342Z</time>
      </trkpt>
      <trkpt lat="46.83001" lon="-1.00354">
        <ele>114.8</ele>
        <time>2026-03-28T12:30:08.366Z</time>
      </trkpt>
      <trkpt lat="46.83326" lon="-1.00376">
        <ele>125.5</ele>
        <time>2026-03-28T12:31:15.555Z</time>
      </trkpt>
      <trkpt lat="46.8351" lon="-1.00397">
        <ele>126.3</ele>
        <time>2026-03-28T12:31:43.628Z</time>
      </trkpt>
      <trkpt lat="46.83505" lon="-1.00388">
        <ele>126.2</ele>
        <time>2026-03-28T12:31:44.659Z</time>
      </trkpt>
      <trkpt lat="46.83516" lon="-1.00386">
        <ele>126.6</ele>
        <time>2026-03-28T12:31:47.036Z</time>
      </trkpt>
      <trkpt lat="46.83525" lon="-1.0039">
        <ele>126.9</ele>
        <time>2026-03-28T12:31:48.956Z</time>
      </trkpt>
      <trkpt lat="46.8356" lon="-1.0039">
        <ele>126</ele>
        <time>2026-03-28T12:31:53.034Z</time>
      </trkpt>
      <trkpt lat="46.83598" lon="-1.00395">
        <ele>125.5</ele>
        <time>2026-03-28T12:31:57.973Z</time>
      </trkpt>
      <trkpt lat="46.83613" lon="-1.00405">
        <ele>125</ele>
        <time>2026-03-28T12:31:59.825Z</time>
      </trkpt>
      <trkpt lat="46.83677" lon="-1.00402">
        <ele>124.5</ele>
        <time>2026-03-28T12:32:08.514Z</time>
      </trkpt>
      <trkpt lat="46.83857" lon="-1.00416">
        <ele>124.8</ele>
        <time>2026-03-28T12:32:35.232Z</time>
      </trkpt>
      <trkpt lat="46.83871" lon="-1.0041">
        <ele>124.5</ele>
        <time>2026-03-28T12:32:37.004Z</time>
      </trkpt>
      <trkpt lat="46.83876" lon="-1.00414">
        <ele>124.4</ele>
        <time>2026-03-28T12:32:37.714Z</time>
      </trkpt>
      <trkpt lat="46.83876" lon="-1.00437">
        <ele>124.1</ele>
        <time>2026-03-28T12:32:39.650Z</time>
      </trkpt>
      <trkpt lat="46.84259" lon="-1.00464">
        <ele>116.9</ele>
        <time>2026-03-28T12:33:26.940Z</time>
      </trkpt>
      <trkpt lat="46.84319" lon="-1.00471">
        <ele>116</ele>
        <time>2026-03-28T12:33:34.608Z</time>
      </trkpt>
      <trkpt lat="46.84422" lon="-1.00477">
        <ele>114</ele>
        <time>2026-03-28T12:33:47.255Z</time>
      </trkpt>
      <trkpt lat="46.84444" lon="-1.00486">
        <ele>113.5</ele>
        <time>2026-03-28T12:33:50.000Z</time>
      </trkpt>
      <trkpt lat="46.84486" lon="-1.00515">
        <ele>113</ele>
        <time>2026-03-28T12:33:56.138Z</time>
      </trkpt>
      <trkpt lat="46.84497" lon="-1.00515">
        <ele>113</ele>
        <time>2026-03-28T12:33:57.743Z</time>
      </trkpt>
      <trkpt lat="46.84503" lon="-1.00511">
        <ele>112.9</ele>
        <time>2026-03-28T12:33:58.582Z</time>
      </trkpt>
      <trkpt lat="46.84505" lon="-1.00498">
        <ele>112.8</ele>
        <time>2026-03-28T12:33:59.784Z</time>
      </trkpt>
      <trkpt lat="46.84523" lon="-1.00485">
        <ele>112.6</ele>
        <time>2026-03-28T12:34:02.456Z</time>
      </trkpt>
      <trkpt lat="46.84546" lon="-1.00484">
        <ele>112.3</ele>
        <time>2026-03-28T12:34:05.437Z</time>
      </trkpt>
      <trkpt lat="46.84623" lon="-1.00474">
        <ele>113.5</ele>
        <time>2026-03-28T12:34:18.608Z</time>
      </trkpt>
      <trkpt lat="46.84767" lon="-1.00426">
        <ele>116</ele>
        <time>2026-03-28T12:34:44.147Z</time>
      </trkpt>
      <trkpt lat="46.8478" lon="-1.00418">
        <ele>116</ele>
        <time>2026-03-28T12:34:46.204Z</time>
      </trkpt>
      <trkpt lat="46.84786" lon="-1.00408">
        <ele>116</ele>
        <time>2026-03-28T12:34:47.532Z</time>
      </trkpt>
      <trkpt lat="46.84789" lon="-1.00396">
        <ele>116</ele>
        <time>2026-03-28T12:34:48.806Z</time>
      </trkpt>
      <trkpt lat="46.84833" lon="-1.00383">
        <ele>116</ele>
        <time>2026-03-28T12:34:55.355Z</time>
      </trkpt>
      <trkpt lat="46.84867" lon="-1.00377">
        <ele>115.3</ele>
        <time>2026-03-28T12:34:59.520Z</time>
      </trkpt>
      <trkpt lat="46.84906" lon="-1.00376">
        <ele>115</ele>
        <time>2026-03-28T12:35:04.819Z</time>
      </trkpt>
      <trkpt lat="46.84953" lon="-1.00379">
        <ele>114.4</ele>
        <time>2026-03-28T12:35:10.928Z</time>
      </trkpt>
      <trkpt lat="46.84991" lon="-1.00386">
        <ele>113.4</ele>
        <time>2026-03-28T12:35:15.376Z</time>
      </trkpt>
      <trkpt lat="46.85028" lon="-1.00398">
        <ele>112.3</ele>
        <time>2026-03-28T12:35:19.677Z</time>
      </trkpt>
      <trkpt lat="46.85054" lon="-1.0041">
        <ele>111.1</ele>
        <time>2026-03-28T12:35:22.445Z</time>
      </trkpt>
      <trkpt lat="46.85104" lon="-1.00442">
        <ele>110.3</ele>
        <time>2026-03-28T12:35:29.416Z</time>
      </trkpt>
      <trkpt lat="46.85281" lon="-1.00571">
        <ele>109</ele>
        <time>2026-03-28T12:35:56.555Z</time>
      </trkpt>
      <trkpt lat="46.85347" lon="-1.00588">
        <ele>108.1</ele>
        <time>2026-03-28T12:36:05.206Z</time>
      </trkpt>
      <trkpt lat="46.85442" lon="-1.00633">
        <ele>106.8</ele>
        <time>2026-03-28T12:36:18.144Z</time>
      </trkpt>
      <trkpt lat="46.85483" lon="-1.00655">
        <ele>107</ele>
        <time>2026-03-28T12:36:24.803Z</time>
      </trkpt>
      <trkpt lat="46.85562" lon="-1.00711">
        <ele>108.7</ele>
        <time>2026-03-28T12:36:40.384Z</time>
      </trkpt>
      <trkpt lat="46.85689" lon="-1.0083">
        <ele>111</ele>
        <time>2026-03-28T12:37:06.009Z</time>
      </trkpt>
      <trkpt lat="46.8584" lon="-1.00918">
        <ele>112</ele>
        <time>2026-03-28T12:37:31.180Z</time>
      </trkpt>
      <trkpt lat="46.85843" lon="-1.00911">
        <ele>112</ele>
        <time>2026-03-28T12:37:32.004Z</time>
      </trkpt>
      <trkpt lat="46.85851" lon="-1.00907">
        <ele>112</ele>
        <time>2026-03-28T12:37:33.237Z</time>
      </trkpt>
      <trkpt lat="46.85873" lon="-1.00878">
        <ele>112</ele>
        <time>2026-03-28T12:37:37.558Z</time>
      </trkpt>
      <trkpt lat="46.85979" lon="-1.00622">
        <ele>112.5</ele>
        <time>2026-03-28T12:38:08.119Z</time>
      </trkpt>
      <trkpt lat="46.86007" lon="-1.00541">
        <ele>113.8</ele>
        <time>2026-03-28T12:38:19.323Z</time>
      </trkpt>
      <trkpt lat="46.86027" lon="-1.0047">
        <ele>115</ele>
        <time>2026-03-28T12:38:29.002Z</time>
      </trkpt>
      <trkpt lat="46.86043" lon="-1.00404">
        <ele>116</ele>
        <time>2026-03-28T12:38:37.641Z</time>
      </trkpt>
      <trkpt lat="46.86129" lon="-1.0046">
        <ele>115</ele>
        <time>2026-03-28T12:38:50.098Z</time>
      </trkpt>
      <trkpt lat="46.8617" lon="-1.00489">
        <ele>115</ele>
        <time>2026-03-28T12:38:56.741Z</time>
      </trkpt>
      <trkpt lat="46.86189" lon="-1.00512">
        <ele>114.9</ele>
        <time>2026-03-28T12:39:00.205Z</time>
      </trkpt>
      <trkpt lat="46.86228" lon="-1.00664">
        <ele>116</ele>
        <time>2026-03-28T12:39:18.054Z</time>
      </trkpt>
      <trkpt lat="46.86234" lon="-1.00681">
        <ele>116.2</ele>
        <time>2026-03-28T12:39:20.277Z</time>
      </trkpt>
      <trkpt lat="46.8627" lon="-1.00662">
        <ele>117.3</ele>
        <time>2026-03-28T12:39:27.812Z</time>
      </trkpt>
      <trkpt lat="46.86315" lon="-1.00632">
        <ele>117.8</ele>
        <time>2026-03-28T12:39:35.780Z</time>
      </trkpt>
      <trkpt lat="46.86335" lon="-1.00614">
        <ele>118.2</ele>
        <time>2026-03-28T12:39:39.846Z</time>
      </trkpt>
      <trkpt lat="46.86381" lon="-1.00562">
        <ele>119.2</ele>
        <time>2026-03-28T12:39:49.928Z</time>
        <extensions>
          <visugpx:TrkExtension xmlns:visugpx="https://www.visugpx.com/editgpx/">
            <visugpx:node>4</visugpx:node>
            </visugpx:TrkExtension>
        </extensions>
      </trkpt>
      <trkpt lat="46.86381" lon="-1.00562">
        <ele>119.2</ele>
        <time>2026-03-28T09:03:07.000Z</time>
        <extensions>
          <visugpx:TrkExtension xmlns:visugpx="https://www.visugpx.com/editgpx/">
            <visugpx:node>6</visugpx:node>
            </visugpx:TrkExtension>
        </extensions>
      </trkpt>
    </trkseg>
  </trk>
</gpx>